<?xml version="1.0" encoding="UTF-8"?>
<gpx version="1.1" creator="https://www.youtrack.es" xsi:schemaLocation="http://www.topografix.com/GPX/1/1 http://www.topografix.com/GPX/1/1/gpx.xsd http://www.garmin.com/xmlschemas/GpxExtensions/v3 http://www.garmin.com/xmlschemas/GpxExtensionsv3.xsd http://www.garmin.com/xmlschemas/TrackPointExtension/v1 http://www.garmin.com/xmlschemas/TrackPointExtensionv1.xsd" xmlns:gpxtpx="http://www.garmin.com/xmlschemas/TrackPointExtension/v1" xmlns:gpxx="http://www.garmin.com/xmlschemas/GpxExtensions/v3" xmlns:xsi="http://www.w3.org/2001/XMLSchema-instance">
  <metadata>
    <author>
      <name>Necky 00</name>
      <email id="rusama1977" domain="gmail.com"/>
    </author>
    <link href="https://www.youtrack.es">
      <text>YouTrack.es</text>
    </link>
    <time>2026-05-08T04:34:04Z</time>
  </metadata>
  <trk>
    <src>https://www.youtrack.es</src>
    <link href="https://www.youtrack.es/ruta/16442-albaida-tourmalet-antena-covalta">
      <text>YouTrack.es</text>
    </link>
    <trkseg>
      <trkpt lat="38.841119" lon="-0.521089">
        <ele>346.892</ele>
        <time>2020-10-06T19:15:03Z</time>
      </trkpt>
      <trkpt lat="38.841093" lon="-0.521082">
        <ele>346.673</ele>
        <time>2020-10-06T19:15:07Z</time>
      </trkpt>
      <trkpt lat="38.841056" lon="-0.521075">
        <ele>346.620</ele>
        <time>2020-10-06T19:15:09Z</time>
      </trkpt>
      <trkpt lat="38.840920" lon="-0.521065">
        <ele>346.808</ele>
        <time>2020-10-06T19:15:17Z</time>
      </trkpt>
      <trkpt lat="38.840859" lon="-0.521058">
        <ele>347.224</ele>
        <time>2020-10-06T19:15:20Z</time>
      </trkpt>
      <trkpt lat="38.840745" lon="-0.521043">
        <ele>347.627</ele>
        <time>2020-10-06T19:15:25Z</time>
      </trkpt>
      <trkpt lat="38.840657" lon="-0.521010">
        <ele>348.079</ele>
        <time>2020-10-06T19:15:30Z</time>
      </trkpt>
      <trkpt lat="38.840591" lon="-0.520966">
        <ele>348.497</ele>
        <time>2020-10-06T19:15:34Z</time>
      </trkpt>
      <trkpt lat="38.840454" lon="-0.520858">
        <ele>349.024</ele>
        <time>2020-10-06T19:15:41Z</time>
      </trkpt>
      <trkpt lat="38.840424" lon="-0.520819">
        <ele>349.220</ele>
        <time>2020-10-06T19:15:43Z</time>
      </trkpt>
      <trkpt lat="38.840294" lon="-0.520730">
        <ele>349.894</ele>
        <time>2020-10-06T19:15:50Z</time>
      </trkpt>
      <trkpt lat="38.840218" lon="-0.520668">
        <ele>350.048</ele>
        <time>2020-10-06T19:15:54Z</time>
      </trkpt>
      <trkpt lat="38.840138" lon="-0.520598">
        <ele>350.426</ele>
        <time>2020-10-06T19:15:58Z</time>
      </trkpt>
      <trkpt lat="38.840082" lon="-0.520544">
        <ele>350.647</ele>
        <time>2020-10-06T19:16:02Z</time>
      </trkpt>
      <trkpt lat="38.840021" lon="-0.520495">
        <ele>351.011</ele>
        <time>2020-10-06T19:16:05Z</time>
      </trkpt>
      <trkpt lat="38.839982" lon="-0.520488">
        <ele>351.208</ele>
        <time>2020-10-06T19:16:06Z</time>
      </trkpt>
      <trkpt lat="38.839742" lon="-0.520347">
        <ele>352.067</ele>
        <time>2020-10-06T19:16:16Z</time>
      </trkpt>
      <trkpt lat="38.839717" lon="-0.520350">
        <ele>352.250</ele>
        <time>2020-10-06T19:16:17Z</time>
      </trkpt>
      <trkpt lat="38.839627" lon="-0.520329">
        <ele>352.662</ele>
        <time>2020-10-06T19:16:22Z</time>
      </trkpt>
      <trkpt lat="38.839604" lon="-0.520290">
        <ele>352.830</ele>
        <time>2020-10-06T19:16:24Z</time>
      </trkpt>
      <trkpt lat="38.839584" lon="-0.520228">
        <ele>352.827</ele>
        <time>2020-10-06T19:16:27Z</time>
      </trkpt>
      <trkpt lat="38.839551" lon="-0.520146">
        <ele>353.253</ele>
        <time>2020-10-06T19:16:32Z</time>
      </trkpt>
      <trkpt lat="38.839542" lon="-0.520133">
        <ele>353.217</ele>
        <time>2020-10-06T19:16:33Z</time>
      </trkpt>
      <trkpt lat="38.839533" lon="-0.520120">
        <ele>353.481</ele>
        <time>2020-10-06T19:16:34Z</time>
      </trkpt>
      <trkpt lat="38.839517" lon="-0.520109">
        <ele>353.446</ele>
        <time>2020-10-06T19:16:35Z</time>
      </trkpt>
      <trkpt lat="38.839491" lon="-0.520090">
        <ele>353.688</ele>
        <time>2020-10-06T19:16:37Z</time>
      </trkpt>
      <trkpt lat="38.839483" lon="-0.520077">
        <ele>353.616</ele>
        <time>2020-10-06T19:16:38Z</time>
      </trkpt>
      <trkpt lat="38.839428" lon="-0.520003">
        <ele>354.208</ele>
        <time>2020-10-06T19:16:42Z</time>
      </trkpt>
      <trkpt lat="38.839419" lon="-0.519949">
        <ele>354.489</ele>
        <time>2020-10-06T19:16:44Z</time>
      </trkpt>
      <trkpt lat="38.839376" lon="-0.519859">
        <ele>355.232</ele>
        <time>2020-10-06T19:16:50Z</time>
      </trkpt>
      <trkpt lat="38.839350" lon="-0.519838">
        <ele>355.474</ele>
        <time>2020-10-06T19:16:51Z</time>
      </trkpt>
      <trkpt lat="38.839211" lon="-0.519739">
        <ele>356.052</ele>
        <time>2020-10-06T19:16:58Z</time>
      </trkpt>
      <trkpt lat="38.839183" lon="-0.519713">
        <ele>356.459</ele>
        <time>2020-10-06T19:17:00Z</time>
      </trkpt>
      <trkpt lat="38.839071" lon="-0.519599">
        <ele>357.075</ele>
        <time>2020-10-06T19:17:06Z</time>
      </trkpt>
      <trkpt lat="38.838983" lon="-0.519615">
        <ele>357.449</ele>
        <time>2020-10-06T19:17:10Z</time>
      </trkpt>
      <trkpt lat="38.838923" lon="-0.519585">
        <ele>357.663</ele>
        <time>2020-10-06T19:17:13Z</time>
      </trkpt>
      <trkpt lat="38.838828" lon="-0.519457">
        <ele>358.468</ele>
        <time>2020-10-06T19:17:19Z</time>
      </trkpt>
      <trkpt lat="38.838813" lon="-0.519441">
        <ele>358.642</ele>
        <time>2020-10-06T19:17:20Z</time>
      </trkpt>
      <trkpt lat="38.838667" lon="-0.519403">
        <ele>359.226</ele>
        <time>2020-10-06T19:17:26Z</time>
      </trkpt>
      <trkpt lat="38.838598" lon="-0.519271">
        <ele>359.608</ele>
        <time>2020-10-06T19:17:30Z</time>
      </trkpt>
      <trkpt lat="38.838587" lon="-0.519225">
        <ele>359.811</ele>
        <time>2020-10-06T19:17:32Z</time>
      </trkpt>
      <trkpt lat="38.838503" lon="-0.519211">
        <ele>360.014</ele>
        <time>2020-10-06T19:17:34Z</time>
      </trkpt>
      <trkpt lat="38.838402" lon="-0.519196">
        <ele>360.266</ele>
        <time>2020-10-06T19:17:38Z</time>
      </trkpt>
      <trkpt lat="38.838370" lon="-0.519123">
        <ele>360.284</ele>
        <time>2020-10-06T19:17:40Z</time>
      </trkpt>
      <trkpt lat="38.838335" lon="-0.519083">
        <ele>360.221</ele>
        <time>2020-10-06T19:17:42Z</time>
      </trkpt>
      <trkpt lat="38.838305" lon="-0.519085">
        <ele>360.267</ele>
        <time>2020-10-06T19:17:43Z</time>
      </trkpt>
      <trkpt lat="38.838253" lon="-0.518909">
        <ele>360.271</ele>
        <time>2020-10-06T19:17:50Z</time>
      </trkpt>
      <trkpt lat="38.838252" lon="-0.518910">
        <ele>360.435</ele>
        <time>2020-10-06T19:17:51Z</time>
      </trkpt>
      <trkpt lat="38.835685" lon="-0.516493">
        <ele>374.221</ele>
        <time>2020-10-06T19:21:32Z</time>
      </trkpt>
      <trkpt lat="38.835680" lon="-0.516496">
        <ele>374.241</ele>
        <time>2020-10-06T19:21:35Z</time>
      </trkpt>
      <trkpt lat="38.835679" lon="-0.516520">
        <ele>374.205</ele>
        <time>2020-10-06T19:21:38Z</time>
      </trkpt>
      <trkpt lat="38.835686" lon="-0.516544">
        <ele>374.008</ele>
        <time>2020-10-06T19:21:40Z</time>
      </trkpt>
      <trkpt lat="38.835687" lon="-0.516547">
        <ele>374.027</ele>
        <time>2020-10-06T19:21:41Z</time>
      </trkpt>
      <trkpt lat="38.835695" lon="-0.516557">
        <ele>374.090</ele>
        <time>2020-10-06T19:21:51Z</time>
      </trkpt>
      <trkpt lat="38.835671" lon="-0.516567">
        <ele>373.672</ele>
        <time>2020-10-06T19:22:16Z</time>
      </trkpt>
      <trkpt lat="38.835671" lon="-0.516567">
        <ele>373.630</ele>
        <time>2020-10-06T19:22:18Z</time>
      </trkpt>
      <trkpt lat="38.835643" lon="-0.516550">
        <ele>373.897</ele>
        <time>2020-10-06T19:22:57Z</time>
      </trkpt>
      <trkpt lat="38.835647" lon="-0.516536">
        <ele>373.663</ele>
        <time>2020-10-06T19:23:13Z</time>
      </trkpt>
      <trkpt lat="38.835648" lon="-0.516536">
        <ele>373.617</ele>
        <time>2020-10-06T19:23:15Z</time>
      </trkpt>
      <trkpt lat="38.835649" lon="-0.516536">
        <ele>373.631</ele>
        <time>2020-10-06T19:23:17Z</time>
      </trkpt>
      <trkpt lat="38.835652" lon="-0.516537">
        <ele>373.653</ele>
        <time>2020-10-06T19:23:19Z</time>
      </trkpt>
      <trkpt lat="38.835652" lon="-0.516532">
        <ele>373.604</ele>
        <time>2020-10-06T19:23:22Z</time>
      </trkpt>
      <trkpt lat="38.835654" lon="-0.516528">
        <ele>373.614</ele>
        <time>2020-10-06T19:23:25Z</time>
      </trkpt>
      <trkpt lat="38.835661" lon="-0.516521">
        <ele>373.608</ele>
        <time>2020-10-06T19:23:29Z</time>
      </trkpt>
      <trkpt lat="38.835665" lon="-0.516514">
        <ele>373.620</ele>
        <time>2020-10-06T19:23:38Z</time>
      </trkpt>
      <trkpt lat="38.835665" lon="-0.516511">
        <ele>373.623</ele>
        <time>2020-10-06T19:23:49Z</time>
      </trkpt>
      <trkpt lat="38.834714" lon="-0.515050">
        <ele>381.085</ele>
        <time>2020-10-06T19:24:58Z</time>
      </trkpt>
      <trkpt lat="38.834691" lon="-0.515035">
        <ele>381.283</ele>
        <time>2020-10-06T19:24:59Z</time>
      </trkpt>
      <trkpt lat="38.834558" lon="-0.514955">
        <ele>381.830</ele>
        <time>2020-10-06T19:25:05Z</time>
      </trkpt>
      <trkpt lat="38.834510" lon="-0.514930">
        <ele>382.236</ele>
        <time>2020-10-06T19:25:07Z</time>
      </trkpt>
      <trkpt lat="38.834441" lon="-0.514874">
        <ele>382.830</ele>
        <time>2020-10-06T19:25:11Z</time>
      </trkpt>
      <trkpt lat="38.834386" lon="-0.514822">
        <ele>383.234</ele>
        <time>2020-10-06T19:25:14Z</time>
      </trkpt>
      <trkpt lat="38.834348" lon="-0.514791">
        <ele>383.654</ele>
        <time>2020-10-06T19:25:16Z</time>
      </trkpt>
      <trkpt lat="38.834220" lon="-0.514744">
        <ele>384.456</ele>
        <time>2020-10-06T19:25:21Z</time>
      </trkpt>
      <trkpt lat="38.834011" lon="-0.514738">
        <ele>385.011</ele>
        <time>2020-10-06T19:25:29Z</time>
      </trkpt>
      <trkpt lat="38.833936" lon="-0.514733">
        <ele>385.408</ele>
        <time>2020-10-06T19:25:32Z</time>
      </trkpt>
      <trkpt lat="38.833796" lon="-0.514717">
        <ele>386.010</ele>
        <time>2020-10-06T19:25:37Z</time>
      </trkpt>
      <trkpt lat="38.833751" lon="-0.514709">
        <ele>386.453</ele>
        <time>2020-10-06T19:25:39Z</time>
      </trkpt>
      <trkpt lat="38.833659" lon="-0.514722">
        <ele>387.415</ele>
        <time>2020-10-06T19:25:44Z</time>
      </trkpt>
      <trkpt lat="38.833633" lon="-0.514720">
        <ele>387.653</ele>
        <time>2020-10-06T19:25:45Z</time>
      </trkpt>
      <trkpt lat="38.833481" lon="-0.514739">
        <ele>388.880</ele>
        <time>2020-10-06T19:25:52Z</time>
      </trkpt>
      <trkpt lat="38.833353" lon="-0.514843">
        <ele>390.056</ele>
        <time>2020-10-06T19:25:59Z</time>
      </trkpt>
      <trkpt lat="38.833270" lon="-0.514913">
        <ele>391.230</ele>
        <time>2020-10-06T19:26:04Z</time>
      </trkpt>
      <trkpt lat="38.833191" lon="-0.514986">
        <ele>392.214</ele>
        <time>2020-10-06T19:26:09Z</time>
      </trkpt>
      <trkpt lat="38.833143" lon="-0.515026">
        <ele>393.069</ele>
        <time>2020-10-06T19:26:12Z</time>
      </trkpt>
      <trkpt lat="38.833127" lon="-0.515037">
        <ele>393.204</ele>
        <time>2020-10-06T19:26:13Z</time>
      </trkpt>
      <trkpt lat="38.833064" lon="-0.515095">
        <ele>394.224</ele>
        <time>2020-10-06T19:26:17Z</time>
      </trkpt>
      <trkpt lat="38.833013" lon="-0.515138">
        <ele>395.008</ele>
        <time>2020-10-06T19:26:20Z</time>
      </trkpt>
      <trkpt lat="38.832996" lon="-0.515150">
        <ele>395.251</ele>
        <time>2020-10-06T19:26:21Z</time>
      </trkpt>
      <trkpt lat="38.832895" lon="-0.515209">
        <ele>396.464</ele>
        <time>2020-10-06T19:26:27Z</time>
      </trkpt>
      <trkpt lat="38.832868" lon="-0.515218">
        <ele>396.856</ele>
        <time>2020-10-06T19:26:29Z</time>
      </trkpt>
      <trkpt lat="38.832774" lon="-0.515214">
        <ele>397.434</ele>
        <time>2020-10-06T19:26:34Z</time>
      </trkpt>
      <trkpt lat="38.832735" lon="-0.515200">
        <ele>397.621</ele>
        <time>2020-10-06T19:26:36Z</time>
      </trkpt>
      <trkpt lat="38.832644" lon="-0.515090">
        <ele>397.827</ele>
        <time>2020-10-06T19:26:42Z</time>
      </trkpt>
      <trkpt lat="38.832541" lon="-0.514911">
        <ele>398.251</ele>
        <time>2020-10-06T19:26:49Z</time>
      </trkpt>
      <trkpt lat="38.832445" lon="-0.514766">
        <ele>398.695</ele>
        <time>2020-10-06T19:26:55Z</time>
      </trkpt>
      <trkpt lat="38.832356" lon="-0.514621">
        <ele>399.292</ele>
        <time>2020-10-06T19:27:01Z</time>
      </trkpt>
      <trkpt lat="38.832255" lon="-0.514509">
        <ele>399.473</ele>
        <time>2020-10-06T19:27:06Z</time>
      </trkpt>
      <trkpt lat="38.832194" lon="-0.514451">
        <ele>399.620</ele>
        <time>2020-10-06T19:27:09Z</time>
      </trkpt>
      <trkpt lat="38.832132" lon="-0.514392">
        <ele>400.808</ele>
        <time>2020-10-06T19:27:13Z</time>
      </trkpt>
      <trkpt lat="38.832112" lon="-0.514377">
        <ele>401.294</ele>
        <time>2020-10-06T19:27:14Z</time>
      </trkpt>
      <trkpt lat="38.832072" lon="-0.514359">
        <ele>401.847</ele>
        <time>2020-10-06T19:27:16Z</time>
      </trkpt>
      <trkpt lat="38.831986" lon="-0.514345">
        <ele>402.899</ele>
        <time>2020-10-06T19:27:20Z</time>
      </trkpt>
      <trkpt lat="38.831970" lon="-0.514332">
        <ele>403.077</ele>
        <time>2020-10-06T19:27:21Z</time>
      </trkpt>
      <trkpt lat="38.831925" lon="-0.514233">
        <ele>403.454</ele>
        <time>2020-10-06T19:27:25Z</time>
      </trkpt>
      <trkpt lat="38.831890" lon="-0.514099">
        <ele>403.830</ele>
        <time>2020-10-06T19:27:30Z</time>
      </trkpt>
      <trkpt lat="38.831890" lon="-0.514065">
        <ele>403.824</ele>
        <time>2020-10-06T19:27:31Z</time>
      </trkpt>
      <trkpt lat="38.831879" lon="-0.513845">
        <ele>404.068</ele>
        <time>2020-10-06T19:27:36Z</time>
      </trkpt>
      <trkpt lat="38.831866" lon="-0.513782">
        <ele>404.099</ele>
        <time>2020-10-06T19:27:38Z</time>
      </trkpt>
      <trkpt lat="38.831851" lon="-0.513595">
        <ele>404.407</ele>
        <time>2020-10-06T19:27:43Z</time>
      </trkpt>
      <trkpt lat="38.831833" lon="-0.513573">
        <ele>404.427</ele>
        <time>2020-10-06T19:27:44Z</time>
      </trkpt>
      <trkpt lat="38.831701" lon="-0.513507">
        <ele>404.608</ele>
        <time>2020-10-06T19:27:49Z</time>
      </trkpt>
      <trkpt lat="38.831541" lon="-0.513490">
        <ele>405.014</ele>
        <time>2020-10-06T19:27:54Z</time>
      </trkpt>
      <trkpt lat="38.831488" lon="-0.513474">
        <ele>405.247</ele>
        <time>2020-10-06T19:27:56Z</time>
      </trkpt>
      <trkpt lat="38.831399" lon="-0.513457">
        <ele>406.089</ele>
        <time>2020-10-06T19:28:00Z</time>
      </trkpt>
      <trkpt lat="38.831294" lon="-0.513464">
        <ele>406.687</ele>
        <time>2020-10-06T19:28:04Z</time>
      </trkpt>
      <trkpt lat="38.831242" lon="-0.513467">
        <ele>407.014</ele>
        <time>2020-10-06T19:28:06Z</time>
      </trkpt>
      <trkpt lat="38.831150" lon="-0.513451">
        <ele>408.210</ele>
        <time>2020-10-06T19:28:10Z</time>
      </trkpt>
      <trkpt lat="38.831111" lon="-0.513430">
        <ele>409.024</ele>
        <time>2020-10-06T19:28:12Z</time>
      </trkpt>
      <trkpt lat="38.831077" lon="-0.513409">
        <ele>409.498</ele>
        <time>2020-10-06T19:28:14Z</time>
      </trkpt>
      <trkpt lat="38.831015" lon="-0.513364">
        <ele>410.037</ele>
        <time>2020-10-06T19:28:17Z</time>
      </trkpt>
      <trkpt lat="38.830989" lon="-0.513357">
        <ele>410.249</ele>
        <time>2020-10-06T19:28:18Z</time>
      </trkpt>
      <trkpt lat="38.830916" lon="-0.513364">
        <ele>410.213</ele>
        <time>2020-10-06T19:28:21Z</time>
      </trkpt>
      <trkpt lat="38.830904" lon="-0.513393">
        <ele>410.208</ele>
        <time>2020-10-06T19:28:22Z</time>
      </trkpt>
      <trkpt lat="38.830892" lon="-0.513613">
        <ele>409.828</ele>
        <time>2020-10-06T19:28:27Z</time>
      </trkpt>
      <trkpt lat="38.830885" lon="-0.513663">
        <ele>409.611</ele>
        <time>2020-10-06T19:28:28Z</time>
      </trkpt>
      <trkpt lat="38.830856" lon="-0.513764">
        <ele>409.233</ele>
        <time>2020-10-06T19:28:30Z</time>
      </trkpt>
      <trkpt lat="38.830801" lon="-0.513871">
        <ele>409.031</ele>
        <time>2020-10-06T19:28:32Z</time>
      </trkpt>
      <trkpt lat="38.830774" lon="-0.513917">
        <ele>408.858</ele>
        <time>2020-10-06T19:28:33Z</time>
      </trkpt>
      <trkpt lat="38.830713" lon="-0.514005">
        <ele>408.664</ele>
        <time>2020-10-06T19:28:35Z</time>
      </trkpt>
      <trkpt lat="38.830671" lon="-0.514049">
        <ele>408.618</ele>
        <time>2020-10-06T19:28:36Z</time>
      </trkpt>
      <trkpt lat="38.830490" lon="-0.514228">
        <ele>408.652</ele>
        <time>2020-10-06T19:28:40Z</time>
      </trkpt>
      <trkpt lat="38.830483" lon="-0.514273">
        <ele>408.653</ele>
        <time>2020-10-06T19:28:42Z</time>
      </trkpt>
      <trkpt lat="38.830323" lon="-0.514445">
        <ele>409.604</ele>
        <time>2020-10-06T19:28:48Z</time>
      </trkpt>
      <trkpt lat="38.830299" lon="-0.514475">
        <ele>409.614</ele>
        <time>2020-10-06T19:28:49Z</time>
      </trkpt>
      <trkpt lat="38.830213" lon="-0.514686">
        <ele>410.408</ele>
        <time>2020-10-06T19:28:56Z</time>
      </trkpt>
      <trkpt lat="38.830204" lon="-0.514712">
        <ele>410.620</ele>
        <time>2020-10-06T19:28:57Z</time>
      </trkpt>
      <trkpt lat="38.830139" lon="-0.514888">
        <ele>411.293</ele>
        <time>2020-10-06T19:29:02Z</time>
      </trkpt>
      <trkpt lat="38.830127" lon="-0.514996">
        <ele>411.645</ele>
        <time>2020-10-06T19:29:05Z</time>
      </trkpt>
      <trkpt lat="38.830115" lon="-0.515203">
        <ele>412.023</ele>
        <time>2020-10-06T19:29:11Z</time>
      </trkpt>
      <trkpt lat="38.830056" lon="-0.515430">
        <ele>412.440</ele>
        <time>2020-10-06T19:29:18Z</time>
      </trkpt>
      <trkpt lat="38.830026" lon="-0.515476">
        <ele>412.616</ele>
        <time>2020-10-06T19:29:20Z</time>
      </trkpt>
      <trkpt lat="38.829974" lon="-0.515491">
        <ele>412.630</ele>
        <time>2020-10-06T19:29:22Z</time>
      </trkpt>
      <trkpt lat="38.829946" lon="-0.515515">
        <ele>412.634</ele>
        <time>2020-10-06T19:29:23Z</time>
      </trkpt>
      <trkpt lat="38.829907" lon="-0.515628">
        <ele>412.613</ele>
        <time>2020-10-06T19:29:26Z</time>
      </trkpt>
      <trkpt lat="38.829923" lon="-0.515832">
        <ele>413.043</ele>
        <time>2020-10-06T19:29:31Z</time>
      </trkpt>
      <trkpt lat="38.829954" lon="-0.515943">
        <ele>413.807</ele>
        <time>2020-10-06T19:29:34Z</time>
      </trkpt>
      <trkpt lat="38.829989" lon="-0.516084">
        <ele>414.608</ele>
        <time>2020-10-06T19:29:38Z</time>
      </trkpt>
      <trkpt lat="38.829991" lon="-0.516126">
        <ele>414.876</ele>
        <time>2020-10-06T19:29:39Z</time>
      </trkpt>
      <trkpt lat="38.830055" lon="-0.516319">
        <ele>415.869</ele>
        <time>2020-10-06T19:29:45Z</time>
      </trkpt>
      <trkpt lat="38.830065" lon="-0.516353">
        <ele>415.881</ele>
        <time>2020-10-06T19:29:46Z</time>
      </trkpt>
      <trkpt lat="38.830126" lon="-0.516631">
        <ele>416.459</ele>
        <time>2020-10-06T19:29:54Z</time>
      </trkpt>
      <trkpt lat="38.830140" lon="-0.516750">
        <ele>417.046</ele>
        <time>2020-10-06T19:29:57Z</time>
      </trkpt>
      <trkpt lat="38.830167" lon="-0.516957">
        <ele>417.412</ele>
        <time>2020-10-06T19:30:02Z</time>
      </trkpt>
      <trkpt lat="38.830186" lon="-0.517196">
        <ele>417.696</ele>
        <time>2020-10-06T19:30:08Z</time>
      </trkpt>
      <trkpt lat="38.830171" lon="-0.517316">
        <ele>418.060</ele>
        <time>2020-10-06T19:30:11Z</time>
      </trkpt>
      <trkpt lat="38.830135" lon="-0.517474">
        <ele>418.493</ele>
        <time>2020-10-06T19:30:15Z</time>
      </trkpt>
      <trkpt lat="38.830081" lon="-0.517674">
        <ele>418.865</ele>
        <time>2020-10-06T19:30:20Z</time>
      </trkpt>
      <trkpt lat="38.830064" lon="-0.517712">
        <ele>419.021</ele>
        <time>2020-10-06T19:30:21Z</time>
      </trkpt>
      <trkpt lat="38.829956" lon="-0.518017">
        <ele>419.808</ele>
        <time>2020-10-06T19:30:30Z</time>
      </trkpt>
      <trkpt lat="38.829870" lon="-0.518224">
        <ele>419.474</ele>
        <time>2020-10-06T19:30:36Z</time>
      </trkpt>
      <trkpt lat="38.829773" lon="-0.518517">
        <ele>419.447</ele>
        <time>2020-10-06T19:30:42Z</time>
      </trkpt>
      <trkpt lat="38.829655" lon="-0.518932">
        <ele>418.899</ele>
        <time>2020-10-06T19:30:49Z</time>
      </trkpt>
      <trkpt lat="38.829591" lon="-0.519186">
        <ele>417.887</ele>
        <time>2020-10-06T19:30:53Z</time>
      </trkpt>
      <trkpt lat="38.829530" lon="-0.519407">
        <ele>416.864</ele>
        <time>2020-10-06T19:30:56Z</time>
      </trkpt>
      <trkpt lat="38.829509" lon="-0.519488">
        <ele>416.620</ele>
        <time>2020-10-06T19:30:57Z</time>
      </trkpt>
      <trkpt lat="38.829451" lon="-0.519756">
        <ele>415.874</ele>
        <time>2020-10-06T19:31:00Z</time>
      </trkpt>
      <trkpt lat="38.829437" lon="-0.519840">
        <ele>415.488</ele>
        <time>2020-10-06T19:31:01Z</time>
      </trkpt>
      <trkpt lat="38.829419" lon="-0.519925">
        <ele>415.238</ele>
        <time>2020-10-06T19:31:02Z</time>
      </trkpt>
      <trkpt lat="38.829363" lon="-0.520200">
        <ele>414.470</ele>
        <time>2020-10-06T19:31:05Z</time>
      </trkpt>
      <trkpt lat="38.829307" lon="-0.520492">
        <ele>413.217</ele>
        <time>2020-10-06T19:31:08Z</time>
      </trkpt>
      <trkpt lat="38.829287" lon="-0.520591">
        <ele>412.808</ele>
        <time>2020-10-06T19:31:09Z</time>
      </trkpt>
      <trkpt lat="38.829223" lon="-0.520890">
        <ele>412.028</ele>
        <time>2020-10-06T19:31:12Z</time>
      </trkpt>
      <trkpt lat="38.829177" lon="-0.521114">
        <ele>410.811</ele>
        <time>2020-10-06T19:31:14Z</time>
      </trkpt>
      <trkpt lat="38.829163" lon="-0.521235">
        <ele>410.443</ele>
        <time>2020-10-06T19:31:15Z</time>
      </trkpt>
      <trkpt lat="38.829156" lon="-0.521355">
        <ele>409.891</ele>
        <time>2020-10-06T19:31:16Z</time>
      </trkpt>
      <trkpt lat="38.829128" lon="-0.521578">
        <ele>409.048</ele>
        <time>2020-10-06T19:31:18Z</time>
      </trkpt>
      <trkpt lat="38.829096" lon="-0.521684">
        <ele>408.884</ele>
        <time>2020-10-06T19:31:19Z</time>
      </trkpt>
      <trkpt lat="38.829063" lon="-0.521788">
        <ele>408.628</ele>
        <time>2020-10-06T19:31:20Z</time>
      </trkpt>
      <trkpt lat="38.829024" lon="-0.521985">
        <ele>408.692</ele>
        <time>2020-10-06T19:31:22Z</time>
      </trkpt>
      <trkpt lat="38.829015" lon="-0.522078">
        <ele>408.645</ele>
        <time>2020-10-06T19:31:23Z</time>
      </trkpt>
      <trkpt lat="38.828989" lon="-0.522472">
        <ele>408.447</ele>
        <time>2020-10-06T19:31:28Z</time>
      </trkpt>
      <trkpt lat="38.828976" lon="-0.522947">
        <ele>408.411</ele>
        <time>2020-10-06T19:31:35Z</time>
      </trkpt>
      <trkpt lat="38.828975" lon="-0.523280">
        <ele>408.008</ele>
        <time>2020-10-06T19:31:40Z</time>
      </trkpt>
      <trkpt lat="38.828971" lon="-0.523417">
        <ele>407.819</ele>
        <time>2020-10-06T19:31:42Z</time>
      </trkpt>
      <trkpt lat="38.828967" lon="-0.523488">
        <ele>407.852</ele>
        <time>2020-10-06T19:31:43Z</time>
      </trkpt>
      <trkpt lat="38.828957" lon="-0.523640">
        <ele>407.674</ele>
        <time>2020-10-06T19:31:45Z</time>
      </trkpt>
      <trkpt lat="38.828938" lon="-0.524036">
        <ele>406.682</ele>
        <time>2020-10-06T19:31:50Z</time>
      </trkpt>
      <trkpt lat="38.828949" lon="-0.524248">
        <ele>406.659</ele>
        <time>2020-10-06T19:31:53Z</time>
      </trkpt>
      <trkpt lat="38.828949" lon="-0.524318">
        <ele>406.665</ele>
        <time>2020-10-06T19:31:54Z</time>
      </trkpt>
      <trkpt lat="38.828946" lon="-0.524390">
        <ele>406.449</ele>
        <time>2020-10-06T19:31:55Z</time>
      </trkpt>
      <trkpt lat="38.828951" lon="-0.524788">
        <ele>405.423</ele>
        <time>2020-10-06T19:32:00Z</time>
      </trkpt>
      <trkpt lat="38.828950" lon="-0.524882">
        <ele>405.281</ele>
        <time>2020-10-06T19:32:01Z</time>
      </trkpt>
      <trkpt lat="38.828958" lon="-0.524972">
        <ele>405.061</ele>
        <time>2020-10-06T19:32:02Z</time>
      </trkpt>
      <trkpt lat="38.828998" lon="-0.525128">
        <ele>404.817</ele>
        <time>2020-10-06T19:32:04Z</time>
      </trkpt>
      <trkpt lat="38.829032" lon="-0.525248">
        <ele>405.008</ele>
        <time>2020-10-06T19:32:06Z</time>
      </trkpt>
      <trkpt lat="38.829048" lon="-0.525345">
        <ele>405.873</ele>
        <time>2020-10-06T19:32:08Z</time>
      </trkpt>
      <trkpt lat="38.829049" lon="-0.525526">
        <ele>406.616</ele>
        <time>2020-10-06T19:32:12Z</time>
      </trkpt>
      <trkpt lat="38.829054" lon="-0.525677">
        <ele>407.018</ele>
        <time>2020-10-06T19:32:15Z</time>
      </trkpt>
      <trkpt lat="38.829073" lon="-0.526127">
        <ele>407.626</ele>
        <time>2020-10-06T19:32:24Z</time>
      </trkpt>
      <trkpt lat="38.829077" lon="-0.526172">
        <ele>407.643</ele>
        <time>2020-10-06T19:32:25Z</time>
      </trkpt>
      <trkpt lat="38.829097" lon="-0.526439">
        <ele>407.699</ele>
        <time>2020-10-06T19:32:30Z</time>
      </trkpt>
      <trkpt lat="38.829109" lon="-0.526561">
        <ele>407.293</ele>
        <time>2020-10-06T19:32:32Z</time>
      </trkpt>
      <trkpt lat="38.829157" lon="-0.527092">
        <ele>406.627</ele>
        <time>2020-10-06T19:32:40Z</time>
      </trkpt>
      <trkpt lat="38.829209" lon="-0.527643">
        <ele>405.484</ele>
        <time>2020-10-06T19:32:48Z</time>
      </trkpt>
      <trkpt lat="38.829219" lon="-0.527716">
        <ele>405.007</ele>
        <time>2020-10-06T19:32:49Z</time>
      </trkpt>
      <trkpt lat="38.829239" lon="-0.527885">
        <ele>404.417</ele>
        <time>2020-10-06T19:32:51Z</time>
      </trkpt>
      <trkpt lat="38.829243" lon="-0.528091">
        <ele>403.408</ele>
        <time>2020-10-06T19:32:53Z</time>
      </trkpt>
      <trkpt lat="38.829245" lon="-0.528184">
        <ele>403.013</ele>
        <time>2020-10-06T19:32:54Z</time>
      </trkpt>
      <trkpt lat="38.829267" lon="-0.528421">
        <ele>402.646</ele>
        <time>2020-10-06T19:32:57Z</time>
      </trkpt>
      <trkpt lat="38.829276" lon="-0.528693">
        <ele>401.818</ele>
        <time>2020-10-06T19:33:00Z</time>
      </trkpt>
      <trkpt lat="38.829269" lon="-0.528889">
        <ele>400.886</ele>
        <time>2020-10-06T19:33:02Z</time>
      </trkpt>
      <trkpt lat="38.829255" lon="-0.528988">
        <ele>400.643</ele>
        <time>2020-10-06T19:33:03Z</time>
      </trkpt>
      <trkpt lat="38.829220" lon="-0.529151">
        <ele>400.059</ele>
        <time>2020-10-06T19:33:05Z</time>
      </trkpt>
      <trkpt lat="38.829186" lon="-0.529217">
        <ele>400.073</ele>
        <time>2020-10-06T19:33:06Z</time>
      </trkpt>
      <trkpt lat="38.828964" lon="-0.529463">
        <ele>400.077</ele>
        <time>2020-10-06T19:33:11Z</time>
      </trkpt>
      <trkpt lat="38.828873" lon="-0.529574">
        <ele>400.456</ele>
        <time>2020-10-06T19:33:14Z</time>
      </trkpt>
      <trkpt lat="38.828825" lon="-0.529656">
        <ele>400.659</ele>
        <time>2020-10-06T19:33:16Z</time>
      </trkpt>
      <trkpt lat="38.828800" lon="-0.529705">
        <ele>400.814</ele>
        <time>2020-10-06T19:33:17Z</time>
      </trkpt>
      <trkpt lat="38.828781" lon="-0.529827">
        <ele>400.608</ele>
        <time>2020-10-06T19:33:19Z</time>
      </trkpt>
      <trkpt lat="38.828803" lon="-0.529877">
        <ele>400.410</ele>
        <time>2020-10-06T19:33:20Z</time>
      </trkpt>
      <trkpt lat="38.828841" lon="-0.529914">
        <ele>399.883</ele>
        <time>2020-10-06T19:33:21Z</time>
      </trkpt>
      <trkpt lat="38.828893" lon="-0.529928">
        <ele>399.445</ele>
        <time>2020-10-06T19:33:22Z</time>
      </trkpt>
      <trkpt lat="38.828955" lon="-0.529917">
        <ele>399.273</ele>
        <time>2020-10-06T19:33:23Z</time>
      </trkpt>
      <trkpt lat="38.829130" lon="-0.529832">
        <ele>398.440</ele>
        <time>2020-10-06T19:33:26Z</time>
      </trkpt>
      <trkpt lat="38.829189" lon="-0.529814">
        <ele>397.826</ele>
        <time>2020-10-06T19:33:27Z</time>
      </trkpt>
      <trkpt lat="38.829254" lon="-0.529803">
        <ele>397.240</ele>
        <time>2020-10-06T19:33:28Z</time>
      </trkpt>
      <trkpt lat="38.829312" lon="-0.529809">
        <ele>396.634</ele>
        <time>2020-10-06T19:33:29Z</time>
      </trkpt>
      <trkpt lat="38.829363" lon="-0.529843">
        <ele>396.062</ele>
        <time>2020-10-06T19:33:30Z</time>
      </trkpt>
      <trkpt lat="38.829400" lon="-0.529899">
        <ele>395.683</ele>
        <time>2020-10-06T19:33:31Z</time>
      </trkpt>
      <trkpt lat="38.829431" lon="-0.530048">
        <ele>395.211</ele>
        <time>2020-10-06T19:33:33Z</time>
      </trkpt>
      <trkpt lat="38.829440" lon="-0.530200">
        <ele>395.008</ele>
        <time>2020-10-06T19:33:35Z</time>
      </trkpt>
      <trkpt lat="38.829478" lon="-0.530922">
        <ele>394.481</ele>
        <time>2020-10-06T19:33:45Z</time>
      </trkpt>
      <trkpt lat="38.829490" lon="-0.531081">
        <ele>394.014</ele>
        <time>2020-10-06T19:33:47Z</time>
      </trkpt>
      <trkpt lat="38.829527" lon="-0.531334">
        <ele>392.666</ele>
        <time>2020-10-06T19:33:50Z</time>
      </trkpt>
      <trkpt lat="38.829538" lon="-0.531425">
        <ele>392.284</ele>
        <time>2020-10-06T19:33:51Z</time>
      </trkpt>
      <trkpt lat="38.829541" lon="-0.531522">
        <ele>391.811</ele>
        <time>2020-10-06T19:33:52Z</time>
      </trkpt>
      <trkpt lat="38.829531" lon="-0.531624">
        <ele>391.447</ele>
        <time>2020-10-06T19:33:53Z</time>
      </trkpt>
      <trkpt lat="38.829514" lon="-0.531729">
        <ele>390.861</ele>
        <time>2020-10-06T19:33:54Z</time>
      </trkpt>
      <trkpt lat="38.829503" lon="-0.531846">
        <ele>389.835</ele>
        <time>2020-10-06T19:33:55Z</time>
      </trkpt>
      <trkpt lat="38.829509" lon="-0.531975">
        <ele>388.492</ele>
        <time>2020-10-06T19:33:56Z</time>
      </trkpt>
      <trkpt lat="38.829527" lon="-0.532103">
        <ele>387.273</ele>
        <time>2020-10-06T19:33:57Z</time>
      </trkpt>
      <trkpt lat="38.829573" lon="-0.532362">
        <ele>385.620</ele>
        <time>2020-10-06T19:33:59Z</time>
      </trkpt>
      <trkpt lat="38.829595" lon="-0.532543">
        <ele>385.208</ele>
        <time>2020-10-06T19:34:01Z</time>
      </trkpt>
      <trkpt lat="38.829598" lon="-0.532628">
        <ele>385.054</ele>
        <time>2020-10-06T19:34:02Z</time>
      </trkpt>
      <trkpt lat="38.829595" lon="-0.532732">
        <ele>385.447</ele>
        <time>2020-10-06T19:34:04Z</time>
      </trkpt>
      <trkpt lat="38.829583" lon="-0.532817">
        <ele>386.889</ele>
        <time>2020-10-06T19:34:06Z</time>
      </trkpt>
      <trkpt lat="38.829576" lon="-0.532860">
        <ele>387.287</ele>
        <time>2020-10-06T19:34:07Z</time>
      </trkpt>
      <trkpt lat="38.829535" lon="-0.533174">
        <ele>390.224</ele>
        <time>2020-10-06T19:34:14Z</time>
      </trkpt>
      <trkpt lat="38.829521" lon="-0.533286">
        <ele>391.290</ele>
        <time>2020-10-06T19:34:17Z</time>
      </trkpt>
      <trkpt lat="38.829512" lon="-0.533400">
        <ele>392.064</ele>
        <time>2020-10-06T19:34:20Z</time>
      </trkpt>
      <trkpt lat="38.829509" lon="-0.533471">
        <ele>392.418</ele>
        <time>2020-10-06T19:34:22Z</time>
      </trkpt>
      <trkpt lat="38.829500" lon="-0.533544">
        <ele>392.853</ele>
        <time>2020-10-06T19:34:24Z</time>
      </trkpt>
      <trkpt lat="38.829478" lon="-0.533666">
        <ele>393.404</ele>
        <time>2020-10-06T19:34:27Z</time>
      </trkpt>
      <trkpt lat="38.829467" lon="-0.533836">
        <ele>394.414</ele>
        <time>2020-10-06T19:34:32Z</time>
      </trkpt>
      <trkpt lat="38.829459" lon="-0.533874">
        <ele>394.808</ele>
        <time>2020-10-06T19:34:33Z</time>
      </trkpt>
      <trkpt lat="38.829445" lon="-0.534016">
        <ele>395.670</ele>
        <time>2020-10-06T19:34:37Z</time>
      </trkpt>
      <trkpt lat="38.829434" lon="-0.534138">
        <ele>396.053</ele>
        <time>2020-10-06T19:34:41Z</time>
      </trkpt>
      <trkpt lat="38.829388" lon="-0.534223">
        <ele>396.435</ele>
        <time>2020-10-06T19:34:44Z</time>
      </trkpt>
      <trkpt lat="38.829361" lon="-0.534239">
        <ele>396.493</ele>
        <time>2020-10-06T19:34:45Z</time>
      </trkpt>
      <trkpt lat="38.829275" lon="-0.534286">
        <ele>396.890</ele>
        <time>2020-10-06T19:34:48Z</time>
      </trkpt>
      <trkpt lat="38.829146" lon="-0.534347">
        <ele>397.676</ele>
        <time>2020-10-06T19:34:53Z</time>
      </trkpt>
      <trkpt lat="38.829095" lon="-0.534366">
        <ele>397.840</ele>
        <time>2020-10-06T19:34:55Z</time>
      </trkpt>
      <trkpt lat="38.828998" lon="-0.534395">
        <ele>398.474</ele>
        <time>2020-10-06T19:34:59Z</time>
      </trkpt>
      <trkpt lat="38.828945" lon="-0.534413">
        <ele>398.683</ele>
        <time>2020-10-06T19:35:01Z</time>
      </trkpt>
      <trkpt lat="38.828921" lon="-0.534419">
        <ele>398.625</ele>
        <time>2020-10-06T19:35:02Z</time>
      </trkpt>
      <trkpt lat="38.828873" lon="-0.534440">
        <ele>399.017</ele>
        <time>2020-10-06T19:35:04Z</time>
      </trkpt>
      <trkpt lat="38.828740" lon="-0.534492">
        <ele>399.808</ele>
        <time>2020-10-06T19:35:09Z</time>
      </trkpt>
      <trkpt lat="38.828689" lon="-0.534513">
        <ele>400.283</ele>
        <time>2020-10-06T19:35:11Z</time>
      </trkpt>
      <trkpt lat="38.828642" lon="-0.534533">
        <ele>400.436</ele>
        <time>2020-10-06T19:35:13Z</time>
      </trkpt>
      <trkpt lat="38.828538" lon="-0.534580">
        <ele>401.228</ele>
        <time>2020-10-06T19:35:18Z</time>
      </trkpt>
      <trkpt lat="38.828446" lon="-0.534618">
        <ele>402.066</ele>
        <time>2020-10-06T19:35:22Z</time>
      </trkpt>
      <trkpt lat="38.828405" lon="-0.534638">
        <ele>402.453</ele>
        <time>2020-10-06T19:35:24Z</time>
      </trkpt>
      <trkpt lat="38.828343" lon="-0.534662">
        <ele>402.849</ele>
        <time>2020-10-06T19:35:27Z</time>
      </trkpt>
      <trkpt lat="38.828279" lon="-0.534684">
        <ele>403.493</ele>
        <time>2020-10-06T19:35:30Z</time>
      </trkpt>
      <trkpt lat="38.828258" lon="-0.534690">
        <ele>403.447</ele>
        <time>2020-10-06T19:35:31Z</time>
      </trkpt>
      <trkpt lat="38.828190" lon="-0.534710">
        <ele>404.072</ele>
        <time>2020-10-06T19:35:34Z</time>
      </trkpt>
      <trkpt lat="38.828144" lon="-0.534719">
        <ele>404.613</ele>
        <time>2020-10-06T19:35:36Z</time>
      </trkpt>
      <trkpt lat="38.828045" lon="-0.534714">
        <ele>405.414</ele>
        <time>2020-10-06T19:35:41Z</time>
      </trkpt>
      <trkpt lat="38.828021" lon="-0.534711">
        <ele>405.608</ele>
        <time>2020-10-06T19:35:42Z</time>
      </trkpt>
      <trkpt lat="38.828002" lon="-0.534707">
        <ele>405.852</ele>
        <time>2020-10-06T19:35:43Z</time>
      </trkpt>
      <trkpt lat="38.827949" lon="-0.534701">
        <ele>406.675</ele>
        <time>2020-10-06T19:35:46Z</time>
      </trkpt>
      <trkpt lat="38.827833" lon="-0.534700">
        <ele>407.637</ele>
        <time>2020-10-06T19:35:52Z</time>
      </trkpt>
      <trkpt lat="38.827793" lon="-0.534699">
        <ele>408.085</ele>
        <time>2020-10-06T19:35:54Z</time>
      </trkpt>
      <trkpt lat="38.827735" lon="-0.534699">
        <ele>408.692</ele>
        <time>2020-10-06T19:35:57Z</time>
      </trkpt>
      <trkpt lat="38.827715" lon="-0.534699">
        <ele>408.878</ele>
        <time>2020-10-06T19:35:58Z</time>
      </trkpt>
      <trkpt lat="38.827617" lon="-0.534718">
        <ele>409.292</ele>
        <time>2020-10-06T19:36:03Z</time>
      </trkpt>
      <trkpt lat="38.827549" lon="-0.534742">
        <ele>409.886</ele>
        <time>2020-10-06T19:36:06Z</time>
      </trkpt>
      <trkpt lat="38.827484" lon="-0.534783">
        <ele>410.635</ele>
        <time>2020-10-06T19:36:10Z</time>
      </trkpt>
      <trkpt lat="38.827455" lon="-0.534809">
        <ele>411.086</ele>
        <time>2020-10-06T19:36:12Z</time>
      </trkpt>
      <trkpt lat="38.827381" lon="-0.534869">
        <ele>411.614</ele>
        <time>2020-10-06T19:36:17Z</time>
      </trkpt>
      <trkpt lat="38.827312" lon="-0.534918">
        <ele>412.008</ele>
        <time>2020-10-06T19:36:21Z</time>
      </trkpt>
      <trkpt lat="38.827198" lon="-0.534984">
        <ele>412.698</ele>
        <time>2020-10-06T19:36:27Z</time>
      </trkpt>
      <trkpt lat="38.827159" lon="-0.534997">
        <ele>413.051</ele>
        <time>2020-10-06T19:36:29Z</time>
      </trkpt>
      <trkpt lat="38.827014" lon="-0.535024">
        <ele>414.083</ele>
        <time>2020-10-06T19:36:36Z</time>
      </trkpt>
      <trkpt lat="38.826848" lon="-0.535031">
        <ele>414.841</ele>
        <time>2020-10-06T19:36:44Z</time>
      </trkpt>
      <trkpt lat="38.826806" lon="-0.535034">
        <ele>415.218</ele>
        <time>2020-10-06T19:36:46Z</time>
      </trkpt>
      <trkpt lat="38.826703" lon="-0.535050">
        <ele>415.814</ele>
        <time>2020-10-06T19:36:51Z</time>
      </trkpt>
      <trkpt lat="38.826664" lon="-0.535053">
        <ele>416.228</ele>
        <time>2020-10-06T19:36:53Z</time>
      </trkpt>
      <trkpt lat="38.826623" lon="-0.535055">
        <ele>416.642</ele>
        <time>2020-10-06T19:36:55Z</time>
      </trkpt>
      <trkpt lat="38.826558" lon="-0.535064">
        <ele>417.283</ele>
        <time>2020-10-06T19:36:58Z</time>
      </trkpt>
      <trkpt lat="38.826453" lon="-0.535096">
        <ele>418.225</ele>
        <time>2020-10-06T19:37:03Z</time>
      </trkpt>
      <trkpt lat="38.826309" lon="-0.535186">
        <ele>419.417</ele>
        <time>2020-10-06T19:37:11Z</time>
      </trkpt>
      <trkpt lat="38.826220" lon="-0.535243">
        <ele>419.608</ele>
        <time>2020-10-06T19:37:16Z</time>
      </trkpt>
      <trkpt lat="38.826123" lon="-0.535309">
        <ele>420.233</ele>
        <time>2020-10-06T19:37:21Z</time>
      </trkpt>
      <trkpt lat="38.826072" lon="-0.535362">
        <ele>420.426</ele>
        <time>2020-10-06T19:37:24Z</time>
      </trkpt>
      <trkpt lat="38.826029" lon="-0.535409">
        <ele>420.678</ele>
        <time>2020-10-06T19:37:27Z</time>
      </trkpt>
      <trkpt lat="38.825925" lon="-0.535559">
        <ele>420.866</ele>
        <time>2020-10-06T19:37:34Z</time>
      </trkpt>
      <trkpt lat="38.825907" lon="-0.535576">
        <ele>421.073</ele>
        <time>2020-10-06T19:37:35Z</time>
      </trkpt>
      <trkpt lat="38.825872" lon="-0.535604">
        <ele>421.289</ele>
        <time>2020-10-06T19:37:37Z</time>
      </trkpt>
      <trkpt lat="38.825852" lon="-0.535619">
        <ele>421.483</ele>
        <time>2020-10-06T19:37:38Z</time>
      </trkpt>
      <trkpt lat="38.825773" lon="-0.535703">
        <ele>422.657</ele>
        <time>2020-10-06T19:37:43Z</time>
      </trkpt>
      <trkpt lat="38.825741" lon="-0.535742">
        <ele>423.241</ele>
        <time>2020-10-06T19:37:45Z</time>
      </trkpt>
      <trkpt lat="38.825710" lon="-0.535779">
        <ele>423.881</ele>
        <time>2020-10-06T19:37:47Z</time>
      </trkpt>
      <trkpt lat="38.825578" lon="-0.535936">
        <ele>424.409</ele>
        <time>2020-10-06T19:37:55Z</time>
      </trkpt>
      <trkpt lat="38.825565" lon="-0.535951">
        <ele>424.808</ele>
        <time>2020-10-06T19:37:56Z</time>
      </trkpt>
      <trkpt lat="38.825488" lon="-0.536036">
        <ele>425.879</ele>
        <time>2020-10-06T19:38:01Z</time>
      </trkpt>
      <trkpt lat="38.825456" lon="-0.536070">
        <ele>426.412</ele>
        <time>2020-10-06T19:38:03Z</time>
      </trkpt>
      <trkpt lat="38.825430" lon="-0.536109">
        <ele>427.084</ele>
        <time>2020-10-06T19:38:05Z</time>
      </trkpt>
      <trkpt lat="38.825325" lon="-0.536233">
        <ele>428.282</ele>
        <time>2020-10-06T19:38:12Z</time>
      </trkpt>
      <trkpt lat="38.825307" lon="-0.536253">
        <ele>428.289</ele>
        <time>2020-10-06T19:38:13Z</time>
      </trkpt>
      <trkpt lat="38.825220" lon="-0.536370">
        <ele>429.455</ele>
        <time>2020-10-06T19:38:19Z</time>
      </trkpt>
      <trkpt lat="38.825176" lon="-0.536419">
        <ele>430.029</ele>
        <time>2020-10-06T19:38:22Z</time>
      </trkpt>
      <trkpt lat="38.825109" lon="-0.536484">
        <ele>430.463</ele>
        <time>2020-10-06T19:38:26Z</time>
      </trkpt>
      <trkpt lat="38.825058" lon="-0.536525">
        <ele>430.875</ele>
        <time>2020-10-06T19:38:29Z</time>
      </trkpt>
      <trkpt lat="38.824970" lon="-0.536594">
        <ele>431.628</ele>
        <time>2020-10-06T19:38:34Z</time>
      </trkpt>
      <trkpt lat="38.824870" lon="-0.536666">
        <ele>432.620</ele>
        <time>2020-10-06T19:38:39Z</time>
      </trkpt>
      <trkpt lat="38.824849" lon="-0.536678">
        <ele>432.808</ele>
        <time>2020-10-06T19:38:40Z</time>
      </trkpt>
      <trkpt lat="38.824750" lon="-0.536707">
        <ele>433.832</ele>
        <time>2020-10-06T19:38:45Z</time>
      </trkpt>
      <trkpt lat="38.824664" lon="-0.536742">
        <ele>434.475</ele>
        <time>2020-10-06T19:38:49Z</time>
      </trkpt>
      <trkpt lat="38.824605" lon="-0.536754">
        <ele>435.067</ele>
        <time>2020-10-06T19:38:52Z</time>
      </trkpt>
      <trkpt lat="38.824473" lon="-0.536776">
        <ele>435.855</ele>
        <time>2020-10-06T19:38:58Z</time>
      </trkpt>
      <trkpt lat="38.824429" lon="-0.536786">
        <ele>436.062</ele>
        <time>2020-10-06T19:39:00Z</time>
      </trkpt>
      <trkpt lat="38.824259" lon="-0.536838">
        <ele>436.288</ele>
        <time>2020-10-06T19:39:07Z</time>
      </trkpt>
      <trkpt lat="38.824189" lon="-0.536871">
        <ele>436.292</ele>
        <time>2020-10-06T19:39:10Z</time>
      </trkpt>
      <trkpt lat="38.824074" lon="-0.536938">
        <ele>436.446</ele>
        <time>2020-10-06T19:39:15Z</time>
      </trkpt>
      <trkpt lat="38.823952" lon="-0.537011">
        <ele>436.485</ele>
        <time>2020-10-06T19:39:20Z</time>
      </trkpt>
      <trkpt lat="38.823928" lon="-0.537025">
        <ele>436.489</ele>
        <time>2020-10-06T19:39:21Z</time>
      </trkpt>
      <trkpt lat="38.823851" lon="-0.537077">
        <ele>436.617</ele>
        <time>2020-10-06T19:39:24Z</time>
      </trkpt>
      <trkpt lat="38.823775" lon="-0.537125">
        <ele>436.608</ele>
        <time>2020-10-06T19:39:27Z</time>
      </trkpt>
      <trkpt lat="38.823717" lon="-0.537158">
        <ele>436.643</ele>
        <time>2020-10-06T19:39:29Z</time>
      </trkpt>
      <trkpt lat="38.823692" lon="-0.537176">
        <ele>436.656</ele>
        <time>2020-10-06T19:39:30Z</time>
      </trkpt>
      <trkpt lat="38.823586" lon="-0.537242">
        <ele>436.458</ele>
        <time>2020-10-06T19:39:34Z</time>
      </trkpt>
      <trkpt lat="38.823471" lon="-0.537318">
        <ele>436.466</ele>
        <time>2020-10-06T19:39:38Z</time>
      </trkpt>
      <trkpt lat="38.823414" lon="-0.537350">
        <ele>436.613</ele>
        <time>2020-10-06T19:39:40Z</time>
      </trkpt>
      <trkpt lat="38.823271" lon="-0.537496">
        <ele>437.089</ele>
        <time>2020-10-06T19:39:46Z</time>
      </trkpt>
      <trkpt lat="38.823257" lon="-0.537527">
        <ele>437.263</ele>
        <time>2020-10-06T19:39:47Z</time>
      </trkpt>
      <trkpt lat="38.823223" lon="-0.537711">
        <ele>437.217</ele>
        <time>2020-10-06T19:39:52Z</time>
      </trkpt>
      <trkpt lat="38.823216" lon="-0.537752">
        <ele>437.265</ele>
        <time>2020-10-06T19:39:53Z</time>
      </trkpt>
      <trkpt lat="38.823166" lon="-0.538081">
        <ele>436.668</ele>
        <time>2020-10-06T19:40:00Z</time>
      </trkpt>
      <trkpt lat="38.823135" lon="-0.538114">
        <ele>436.614</ele>
        <time>2020-10-06T19:40:01Z</time>
      </trkpt>
      <trkpt lat="38.823044" lon="-0.538143">
        <ele>436.208</ele>
        <time>2020-10-06T19:40:03Z</time>
      </trkpt>
      <trkpt lat="38.822937" lon="-0.538144">
        <ele>436.041</ele>
        <time>2020-10-06T19:40:05Z</time>
      </trkpt>
      <trkpt lat="38.822716" lon="-0.538149">
        <ele>435.464</ele>
        <time>2020-10-06T19:40:09Z</time>
      </trkpt>
      <trkpt lat="38.822444" lon="-0.538163">
        <ele>435.466</ele>
        <time>2020-10-06T19:40:15Z</time>
      </trkpt>
      <trkpt lat="38.822404" lon="-0.538166">
        <ele>435.464</ele>
        <time>2020-10-06T19:40:16Z</time>
      </trkpt>
      <trkpt lat="38.822137" lon="-0.538193">
        <ele>436.091</ele>
        <time>2020-10-06T19:40:23Z</time>
      </trkpt>
      <trkpt lat="38.821896" lon="-0.538198">
        <ele>437.017</ele>
        <time>2020-10-06T19:40:31Z</time>
      </trkpt>
      <trkpt lat="38.821785" lon="-0.538203">
        <ele>438.211</ele>
        <time>2020-10-06T19:40:35Z</time>
      </trkpt>
      <trkpt lat="38.821731" lon="-0.538207">
        <ele>439.285</ele>
        <time>2020-10-06T19:40:37Z</time>
      </trkpt>
      <trkpt lat="38.821687" lon="-0.538215">
        <ele>440.238</ele>
        <time>2020-10-06T19:40:39Z</time>
      </trkpt>
      <trkpt lat="38.821673" lon="-0.538233">
        <ele>440.470</ele>
        <time>2020-10-06T19:40:40Z</time>
      </trkpt>
      <trkpt lat="38.821658" lon="-0.538337">
        <ele>441.017</ele>
        <time>2020-10-06T19:40:44Z</time>
      </trkpt>
      <trkpt lat="38.821645" lon="-0.538542">
        <ele>441.008</ele>
        <time>2020-10-06T19:40:50Z</time>
      </trkpt>
      <trkpt lat="38.821627" lon="-0.538753">
        <ele>440.618</ele>
        <time>2020-10-06T19:40:55Z</time>
      </trkpt>
      <trkpt lat="38.821631" lon="-0.539007">
        <ele>440.421</ele>
        <time>2020-10-06T19:41:01Z</time>
      </trkpt>
      <trkpt lat="38.821639" lon="-0.539283">
        <ele>439.823</ele>
        <time>2020-10-06T19:41:05Z</time>
      </trkpt>
      <trkpt lat="38.821593" lon="-0.539662">
        <ele>439.211</ele>
        <time>2020-10-06T19:41:10Z</time>
      </trkpt>
      <trkpt lat="38.821574" lon="-0.539818">
        <ele>439.088</ele>
        <time>2020-10-06T19:41:12Z</time>
      </trkpt>
      <trkpt lat="38.821487" lon="-0.540202">
        <ele>438.084</ele>
        <time>2020-10-06T19:41:17Z</time>
      </trkpt>
      <trkpt lat="38.821434" lon="-0.540374">
        <ele>437.688</ele>
        <time>2020-10-06T19:41:19Z</time>
      </trkpt>
      <trkpt lat="38.821371" lon="-0.540694">
        <ele>437.012</ele>
        <time>2020-10-06T19:41:23Z</time>
      </trkpt>
      <trkpt lat="38.821349" lon="-0.540777">
        <ele>436.642</ele>
        <time>2020-10-06T19:41:24Z</time>
      </trkpt>
      <trkpt lat="38.821278" lon="-0.540928">
        <ele>436.022</ele>
        <time>2020-10-06T19:41:26Z</time>
      </trkpt>
      <trkpt lat="38.821162" lon="-0.541060">
        <ele>435.214</ele>
        <time>2020-10-06T19:41:28Z</time>
      </trkpt>
      <trkpt lat="38.821099" lon="-0.541117">
        <ele>434.808</ele>
        <time>2020-10-06T19:41:29Z</time>
      </trkpt>
      <trkpt lat="38.821036" lon="-0.541175">
        <ele>434.689</ele>
        <time>2020-10-06T19:41:30Z</time>
      </trkpt>
      <trkpt lat="38.820913" lon="-0.541313">
        <ele>434.222</ele>
        <time>2020-10-06T19:41:32Z</time>
      </trkpt>
      <trkpt lat="38.820830" lon="-0.541484">
        <ele>433.694</ele>
        <time>2020-10-06T19:41:34Z</time>
      </trkpt>
      <trkpt lat="38.820843" lon="-0.541675">
        <ele>432.672</ele>
        <time>2020-10-06T19:41:36Z</time>
      </trkpt>
      <trkpt lat="38.820982" lon="-0.541966">
        <ele>431.859</ele>
        <time>2020-10-06T19:41:40Z</time>
      </trkpt>
      <trkpt lat="38.821029" lon="-0.542149">
        <ele>432.885</ele>
        <time>2020-10-06T19:41:44Z</time>
      </trkpt>
      <trkpt lat="38.821059" lon="-0.542299">
        <ele>433.699</ele>
        <time>2020-10-06T19:41:48Z</time>
      </trkpt>
      <trkpt lat="38.821064" lon="-0.542365">
        <ele>434.073</ele>
        <time>2020-10-06T19:41:50Z</time>
      </trkpt>
      <trkpt lat="38.821067" lon="-0.542509">
        <ele>434.696</ele>
        <time>2020-10-06T19:41:55Z</time>
      </trkpt>
      <trkpt lat="38.821062" lon="-0.542566">
        <ele>435.031</ele>
        <time>2020-10-06T19:41:57Z</time>
      </trkpt>
      <trkpt lat="38.821040" lon="-0.542637">
        <ele>435.824</ele>
        <time>2020-10-06T19:42:00Z</time>
      </trkpt>
      <trkpt lat="38.821019" lon="-0.542680">
        <ele>436.208</ele>
        <time>2020-10-06T19:42:02Z</time>
      </trkpt>
      <trkpt lat="38.820969" lon="-0.542758">
        <ele>436.844</ele>
        <time>2020-10-06T19:42:06Z</time>
      </trkpt>
      <trkpt lat="38.820966" lon="-0.542781">
        <ele>437.097</ele>
        <time>2020-10-06T19:42:07Z</time>
      </trkpt>
      <trkpt lat="38.820970" lon="-0.542811">
        <ele>437.239</ele>
        <time>2020-10-06T19:42:08Z</time>
      </trkpt>
      <trkpt lat="38.821013" lon="-0.542896">
        <ele>437.657</ele>
        <time>2020-10-06T19:42:11Z</time>
      </trkpt>
      <trkpt lat="38.821056" lon="-0.542982">
        <ele>437.874</ele>
        <time>2020-10-06T19:42:15Z</time>
      </trkpt>
      <trkpt lat="38.821114" lon="-0.543112">
        <ele>438.260</ele>
        <time>2020-10-06T19:42:21Z</time>
      </trkpt>
      <trkpt lat="38.821185" lon="-0.543295">
        <ele>438.414</ele>
        <time>2020-10-06T19:42:29Z</time>
      </trkpt>
      <trkpt lat="38.821169" lon="-0.543329">
        <ele>438.848</ele>
        <time>2020-10-06T19:42:31Z</time>
      </trkpt>
      <trkpt lat="38.821130" lon="-0.543340">
        <ele>439.062</ele>
        <time>2020-10-06T19:42:33Z</time>
      </trkpt>
      <trkpt lat="38.821066" lon="-0.543338">
        <ele>440.283</ele>
        <time>2020-10-06T19:42:37Z</time>
      </trkpt>
      <trkpt lat="38.821000" lon="-0.543348">
        <ele>441.011</ele>
        <time>2020-10-06T19:42:41Z</time>
      </trkpt>
      <trkpt lat="38.820982" lon="-0.543351">
        <ele>441.208</ele>
        <time>2020-10-06T19:42:42Z</time>
      </trkpt>
      <trkpt lat="38.820932" lon="-0.543390">
        <ele>442.481</ele>
        <time>2020-10-06T19:42:46Z</time>
      </trkpt>
      <trkpt lat="38.820876" lon="-0.543418">
        <ele>443.494</ele>
        <time>2020-10-06T19:42:50Z</time>
      </trkpt>
      <trkpt lat="38.820860" lon="-0.543428">
        <ele>443.666</ele>
        <time>2020-10-06T19:42:51Z</time>
      </trkpt>
      <trkpt lat="38.820802" lon="-0.543457">
        <ele>444.854</ele>
        <time>2020-10-06T19:42:55Z</time>
      </trkpt>
      <trkpt lat="38.820734" lon="-0.543513">
        <ele>446.091</ele>
        <time>2020-10-06T19:43:00Z</time>
      </trkpt>
      <trkpt lat="38.820685" lon="-0.543538">
        <ele>447.077</ele>
        <time>2020-10-06T19:43:04Z</time>
      </trkpt>
      <trkpt lat="38.820647" lon="-0.543561">
        <ele>447.881</ele>
        <time>2020-10-06T19:43:07Z</time>
      </trkpt>
      <trkpt lat="38.820629" lon="-0.543579">
        <ele>448.225</ele>
        <time>2020-10-06T19:43:09Z</time>
      </trkpt>
      <trkpt lat="38.820609" lon="-0.543604">
        <ele>448.882</ele>
        <time>2020-10-06T19:43:11Z</time>
      </trkpt>
      <trkpt lat="38.820581" lon="-0.543631">
        <ele>449.643</ele>
        <time>2020-10-06T19:43:14Z</time>
      </trkpt>
      <trkpt lat="38.820525" lon="-0.543680">
        <ele>450.617</ele>
        <time>2020-10-06T19:43:19Z</time>
      </trkpt>
      <trkpt lat="38.820506" lon="-0.543694">
        <ele>451.208</ele>
        <time>2020-10-06T19:43:21Z</time>
      </trkpt>
      <trkpt lat="38.820487" lon="-0.543711">
        <ele>451.663</ele>
        <time>2020-10-06T19:43:23Z</time>
      </trkpt>
      <trkpt lat="38.820427" lon="-0.543767">
        <ele>452.846</ele>
        <time>2020-10-06T19:43:29Z</time>
      </trkpt>
      <trkpt lat="38.820402" lon="-0.543777">
        <ele>453.218</ele>
        <time>2020-10-06T19:43:31Z</time>
      </trkpt>
      <trkpt lat="38.820361" lon="-0.543803">
        <ele>454.036</ele>
        <time>2020-10-06T19:43:35Z</time>
      </trkpt>
      <trkpt lat="38.820289" lon="-0.543840">
        <ele>454.673</ele>
        <time>2020-10-06T19:43:40Z</time>
      </trkpt>
      <trkpt lat="38.820258" lon="-0.543847">
        <ele>455.089</ele>
        <time>2020-10-06T19:43:42Z</time>
      </trkpt>
      <trkpt lat="38.820172" lon="-0.543865">
        <ele>455.813</ele>
        <time>2020-10-06T19:43:48Z</time>
      </trkpt>
      <trkpt lat="38.820160" lon="-0.543869">
        <ele>456.097</ele>
        <time>2020-10-06T19:43:49Z</time>
      </trkpt>
      <trkpt lat="38.820081" lon="-0.543883">
        <ele>456.887</ele>
        <time>2020-10-06T19:43:55Z</time>
      </trkpt>
      <trkpt lat="38.820067" lon="-0.543889">
        <ele>457.042</ele>
        <time>2020-10-06T19:43:56Z</time>
      </trkpt>
      <trkpt lat="38.819966" lon="-0.543925">
        <ele>458.226</ele>
        <time>2020-10-06T19:44:03Z</time>
      </trkpt>
      <trkpt lat="38.819927" lon="-0.543943">
        <ele>459.008</ele>
        <time>2020-10-06T19:44:06Z</time>
      </trkpt>
      <trkpt lat="38.819906" lon="-0.543954">
        <ele>459.463</ele>
        <time>2020-10-06T19:44:08Z</time>
      </trkpt>
      <trkpt lat="38.819831" lon="-0.543993">
        <ele>460.426</ele>
        <time>2020-10-06T19:44:14Z</time>
      </trkpt>
      <trkpt lat="38.819805" lon="-0.544007">
        <ele>461.098</ele>
        <time>2020-10-06T19:44:16Z</time>
      </trkpt>
      <trkpt lat="38.819776" lon="-0.544028">
        <ele>461.656</ele>
        <time>2020-10-06T19:44:19Z</time>
      </trkpt>
      <trkpt lat="38.819728" lon="-0.544080">
        <ele>462.813</ele>
        <time>2020-10-06T19:44:24Z</time>
      </trkpt>
      <trkpt lat="38.819718" lon="-0.544093">
        <ele>463.289</ele>
        <time>2020-10-06T19:44:25Z</time>
      </trkpt>
      <trkpt lat="38.819690" lon="-0.544130">
        <ele>464.043</ele>
        <time>2020-10-06T19:44:28Z</time>
      </trkpt>
      <trkpt lat="38.819673" lon="-0.544164">
        <ele>464.437</ele>
        <time>2020-10-06T19:44:31Z</time>
      </trkpt>
      <trkpt lat="38.819657" lon="-0.544189">
        <ele>464.689</ele>
        <time>2020-10-06T19:44:33Z</time>
      </trkpt>
      <trkpt lat="38.819623" lon="-0.544254">
        <ele>465.006</ele>
        <time>2020-10-06T19:44:37Z</time>
      </trkpt>
      <trkpt lat="38.819589" lon="-0.544327">
        <ele>465.626</ele>
        <time>2020-10-06T19:44:41Z</time>
      </trkpt>
      <trkpt lat="38.819541" lon="-0.544475">
        <ele>465.408</ele>
        <time>2020-10-06T19:44:47Z</time>
      </trkpt>
      <trkpt lat="38.819528" lon="-0.544509">
        <ele>465.443</ele>
        <time>2020-10-06T19:44:48Z</time>
      </trkpt>
      <trkpt lat="38.819475" lon="-0.544752">
        <ele>464.456</ele>
        <time>2020-10-06T19:44:54Z</time>
      </trkpt>
      <trkpt lat="38.819456" lon="-0.544911">
        <ele>464.018</ele>
        <time>2020-10-06T19:44:57Z</time>
      </trkpt>
      <trkpt lat="38.819431" lon="-0.545078">
        <ele>463.656</ele>
        <time>2020-10-06T19:45:00Z</time>
      </trkpt>
      <trkpt lat="38.819414" lon="-0.545373">
        <ele>462.863</ele>
        <time>2020-10-06T19:45:05Z</time>
      </trkpt>
      <trkpt lat="38.819393" lon="-0.545606">
        <ele>462.299</ele>
        <time>2020-10-06T19:45:09Z</time>
      </trkpt>
      <trkpt lat="38.819396" lon="-0.545659">
        <ele>462.213</ele>
        <time>2020-10-06T19:45:10Z</time>
      </trkpt>
      <trkpt lat="38.819401" lon="-0.545712">
        <ele>462.027</ele>
        <time>2020-10-06T19:45:11Z</time>
      </trkpt>
      <trkpt lat="38.819398" lon="-0.545767">
        <ele>461.842</ele>
        <time>2020-10-06T19:45:12Z</time>
      </trkpt>
      <trkpt lat="38.819380" lon="-0.545922">
        <ele>460.822</ele>
        <time>2020-10-06T19:45:15Z</time>
      </trkpt>
      <trkpt lat="38.819374" lon="-0.546112">
        <ele>459.614</ele>
        <time>2020-10-06T19:45:18Z</time>
      </trkpt>
      <trkpt lat="38.819383" lon="-0.546179">
        <ele>459.208</ele>
        <time>2020-10-06T19:45:19Z</time>
      </trkpt>
      <trkpt lat="38.819395" lon="-0.546249">
        <ele>458.679</ele>
        <time>2020-10-06T19:45:20Z</time>
      </trkpt>
      <trkpt lat="38.819406" lon="-0.546317">
        <ele>458.052</ele>
        <time>2020-10-06T19:45:21Z</time>
      </trkpt>
      <trkpt lat="38.819421" lon="-0.546481">
        <ele>457.094</ele>
        <time>2020-10-06T19:45:23Z</time>
      </trkpt>
      <trkpt lat="38.819428" lon="-0.546568">
        <ele>456.412</ele>
        <time>2020-10-06T19:45:24Z</time>
      </trkpt>
      <trkpt lat="38.819435" lon="-0.546654">
        <ele>455.869</ele>
        <time>2020-10-06T19:45:25Z</time>
      </trkpt>
      <trkpt lat="38.819453" lon="-0.546821">
        <ele>454.875</ele>
        <time>2020-10-06T19:45:27Z</time>
      </trkpt>
      <trkpt lat="38.819463" lon="-0.546908">
        <ele>454.459</ele>
        <time>2020-10-06T19:45:28Z</time>
      </trkpt>
      <trkpt lat="38.819462" lon="-0.547076">
        <ele>453.633</ele>
        <time>2020-10-06T19:45:30Z</time>
      </trkpt>
      <trkpt lat="38.819439" lon="-0.547279">
        <ele>452.611</ele>
        <time>2020-10-06T19:45:33Z</time>
      </trkpt>
      <trkpt lat="38.819419" lon="-0.547409">
        <ele>452.021</ele>
        <time>2020-10-06T19:45:35Z</time>
      </trkpt>
      <trkpt lat="38.819392" lon="-0.547536">
        <ele>451.203</ele>
        <time>2020-10-06T19:45:37Z</time>
      </trkpt>
      <trkpt lat="38.819365" lon="-0.547688">
        <ele>450.608</ele>
        <time>2020-10-06T19:45:39Z</time>
      </trkpt>
      <trkpt lat="38.819345" lon="-0.547764">
        <ele>450.046</ele>
        <time>2020-10-06T19:45:40Z</time>
      </trkpt>
      <trkpt lat="38.819298" lon="-0.547906">
        <ele>449.049</ele>
        <time>2020-10-06T19:45:42Z</time>
      </trkpt>
      <trkpt lat="38.819248" lon="-0.548047">
        <ele>447.831</ele>
        <time>2020-10-06T19:45:44Z</time>
      </trkpt>
      <trkpt lat="38.819235" lon="-0.548122">
        <ele>447.239</ele>
        <time>2020-10-06T19:45:45Z</time>
      </trkpt>
      <trkpt lat="38.819220" lon="-0.548206">
        <ele>446.856</ele>
        <time>2020-10-06T19:45:46Z</time>
      </trkpt>
      <trkpt lat="38.819184" lon="-0.548393">
        <ele>445.862</ele>
        <time>2020-10-06T19:45:48Z</time>
      </trkpt>
      <trkpt lat="38.819111" lon="-0.548636">
        <ele>444.426</ele>
        <time>2020-10-06T19:45:51Z</time>
      </trkpt>
      <trkpt lat="38.819110" lon="-0.548787">
        <ele>444.260</ele>
        <time>2020-10-06T19:45:53Z</time>
      </trkpt>
      <trkpt lat="38.819126" lon="-0.548848">
        <ele>444.014</ele>
        <time>2020-10-06T19:45:54Z</time>
      </trkpt>
      <trkpt lat="38.819152" lon="-0.548906">
        <ele>444.054</ele>
        <time>2020-10-06T19:45:55Z</time>
      </trkpt>
      <trkpt lat="38.819209" lon="-0.548977">
        <ele>444.009</ele>
        <time>2020-10-06T19:45:57Z</time>
      </trkpt>
      <trkpt lat="38.819238" lon="-0.548994">
        <ele>444.008</ele>
        <time>2020-10-06T19:45:58Z</time>
      </trkpt>
      <trkpt lat="38.819290" lon="-0.549004">
        <ele>444.046</ele>
        <time>2020-10-06T19:46:00Z</time>
      </trkpt>
      <trkpt lat="38.819351" lon="-0.549004">
        <ele>444.089</ele>
        <time>2020-10-06T19:46:02Z</time>
      </trkpt>
      <trkpt lat="38.819477" lon="-0.549081">
        <ele>444.221</ele>
        <time>2020-10-06T19:46:06Z</time>
      </trkpt>
      <trkpt lat="38.819498" lon="-0.549104">
        <ele>444.249</ele>
        <time>2020-10-06T19:46:07Z</time>
      </trkpt>
      <trkpt lat="38.819630" lon="-0.549199">
        <ele>444.296</ele>
        <time>2020-10-06T19:46:13Z</time>
      </trkpt>
      <trkpt lat="38.819696" lon="-0.549282">
        <ele>444.462</ele>
        <time>2020-10-06T19:46:17Z</time>
      </trkpt>
      <trkpt lat="38.819695" lon="-0.549305">
        <ele>444.416</ele>
        <time>2020-10-06T19:46:18Z</time>
      </trkpt>
      <trkpt lat="38.819664" lon="-0.549409">
        <ele>445.010</ele>
        <time>2020-10-06T19:46:23Z</time>
      </trkpt>
      <trkpt lat="38.819639" lon="-0.549398">
        <ele>445.662</ele>
        <time>2020-10-06T19:46:25Z</time>
      </trkpt>
      <trkpt lat="38.819632" lon="-0.549389">
        <ele>445.883</ele>
        <time>2020-10-06T19:46:26Z</time>
      </trkpt>
      <trkpt lat="38.819607" lon="-0.549360">
        <ele>446.211</ele>
        <time>2020-10-06T19:46:28Z</time>
      </trkpt>
      <trkpt lat="38.819586" lon="-0.549331">
        <ele>446.808</ele>
        <time>2020-10-06T19:46:30Z</time>
      </trkpt>
      <trkpt lat="38.819575" lon="-0.549275">
        <ele>447.681</ele>
        <time>2020-10-06T19:46:34Z</time>
      </trkpt>
      <trkpt lat="38.819567" lon="-0.549246">
        <ele>448.084</ele>
        <time>2020-10-06T19:46:36Z</time>
      </trkpt>
      <trkpt lat="38.819546" lon="-0.549217">
        <ele>448.456</ele>
        <time>2020-10-06T19:46:38Z</time>
      </trkpt>
      <trkpt lat="38.819542" lon="-0.549209">
        <ele>448.664</ele>
        <time>2020-10-06T19:46:39Z</time>
      </trkpt>
      <trkpt lat="38.819490" lon="-0.549187">
        <ele>449.261</ele>
        <time>2020-10-06T19:46:42Z</time>
      </trkpt>
      <trkpt lat="38.819456" lon="-0.549158">
        <ele>449.877</ele>
        <time>2020-10-06T19:46:45Z</time>
      </trkpt>
      <trkpt lat="38.819436" lon="-0.549141">
        <ele>450.281</ele>
        <time>2020-10-06T19:46:47Z</time>
      </trkpt>
      <trkpt lat="38.819381" lon="-0.549126">
        <ele>451.215</ele>
        <time>2020-10-06T19:46:52Z</time>
      </trkpt>
      <trkpt lat="38.819376" lon="-0.549141">
        <ele>451.413</ele>
        <time>2020-10-06T19:46:53Z</time>
      </trkpt>
      <trkpt lat="38.819375" lon="-0.549163">
        <ele>451.643</ele>
        <time>2020-10-06T19:46:54Z</time>
      </trkpt>
      <trkpt lat="38.819392" lon="-0.549222">
        <ele>452.007</ele>
        <time>2020-10-06T19:46:57Z</time>
      </trkpt>
      <trkpt lat="38.819402" lon="-0.549256">
        <ele>452.408</ele>
        <time>2020-10-06T19:46:59Z</time>
      </trkpt>
      <trkpt lat="38.819407" lon="-0.549271">
        <ele>452.876</ele>
        <time>2020-10-06T19:47:00Z</time>
      </trkpt>
      <trkpt lat="38.819422" lon="-0.549314">
        <ele>453.459</ele>
        <time>2020-10-06T19:47:03Z</time>
      </trkpt>
      <trkpt lat="38.819428" lon="-0.549327">
        <ele>453.661</ele>
        <time>2020-10-06T19:47:04Z</time>
      </trkpt>
      <trkpt lat="38.819451" lon="-0.549381">
        <ele>454.459</ele>
        <time>2020-10-06T19:47:08Z</time>
      </trkpt>
      <trkpt lat="38.819462" lon="-0.549444">
        <ele>454.846</ele>
        <time>2020-10-06T19:47:12Z</time>
      </trkpt>
      <trkpt lat="38.819470" lon="-0.549480">
        <ele>455.052</ele>
        <time>2020-10-06T19:47:14Z</time>
      </trkpt>
      <trkpt lat="38.819471" lon="-0.549498">
        <ele>455.216</ele>
        <time>2020-10-06T19:47:15Z</time>
      </trkpt>
      <trkpt lat="38.819482" lon="-0.549522">
        <ele>455.460</ele>
        <time>2020-10-06T19:47:17Z</time>
      </trkpt>
      <trkpt lat="38.819487" lon="-0.549530">
        <ele>455.639</ele>
        <time>2020-10-06T19:47:18Z</time>
      </trkpt>
      <trkpt lat="38.819483" lon="-0.549537">
        <ele>455.801</ele>
        <time>2020-10-06T19:47:19Z</time>
      </trkpt>
      <trkpt lat="38.819476" lon="-0.549541">
        <ele>456.021</ele>
        <time>2020-10-06T19:47:20Z</time>
      </trkpt>
      <trkpt lat="38.819468" lon="-0.549539">
        <ele>456.408</ele>
        <time>2020-10-06T19:47:21Z</time>
      </trkpt>
      <trkpt lat="38.819462" lon="-0.549533">
        <ele>456.648</ele>
        <time>2020-10-06T19:47:22Z</time>
      </trkpt>
      <trkpt lat="38.819455" lon="-0.549514">
        <ele>457.051</ele>
        <time>2020-10-06T19:47:24Z</time>
      </trkpt>
      <trkpt lat="38.819438" lon="-0.549500">
        <ele>457.463</ele>
        <time>2020-10-06T19:47:26Z</time>
      </trkpt>
      <trkpt lat="38.819416" lon="-0.549484">
        <ele>457.891</ele>
        <time>2020-10-06T19:47:28Z</time>
      </trkpt>
      <trkpt lat="38.819405" lon="-0.549478">
        <ele>457.828</ele>
        <time>2020-10-06T19:47:30Z</time>
      </trkpt>
      <trkpt lat="38.819390" lon="-0.549482">
        <ele>458.214</ele>
        <time>2020-10-06T19:47:31Z</time>
      </trkpt>
      <trkpt lat="38.819396" lon="-0.549504">
        <ele>458.448</ele>
        <time>2020-10-06T19:47:33Z</time>
      </trkpt>
      <trkpt lat="38.819418" lon="-0.549561">
        <ele>458.852</ele>
        <time>2020-10-06T19:47:37Z</time>
      </trkpt>
      <trkpt lat="38.819414" lon="-0.549569">
        <ele>459.061</ele>
        <time>2020-10-06T19:47:39Z</time>
      </trkpt>
      <trkpt lat="38.819405" lon="-0.549572">
        <ele>459.421</ele>
        <time>2020-10-06T19:47:40Z</time>
      </trkpt>
      <trkpt lat="38.819373" lon="-0.549581">
        <ele>460.413</ele>
        <time>2020-10-06T19:47:44Z</time>
      </trkpt>
      <trkpt lat="38.819362" lon="-0.549580">
        <ele>460.608</ele>
        <time>2020-10-06T19:47:45Z</time>
      </trkpt>
      <trkpt lat="38.819340" lon="-0.549577">
        <ele>461.021</ele>
        <time>2020-10-06T19:47:47Z</time>
      </trkpt>
      <trkpt lat="38.819313" lon="-0.549575">
        <ele>461.244</ele>
        <time>2020-10-06T19:47:49Z</time>
      </trkpt>
      <trkpt lat="38.819277" lon="-0.549575">
        <ele>461.416</ele>
        <time>2020-10-06T19:47:51Z</time>
      </trkpt>
      <trkpt lat="38.819255" lon="-0.549592">
        <ele>462.024</ele>
        <time>2020-10-06T19:47:53Z</time>
      </trkpt>
      <trkpt lat="38.819169" lon="-0.549654">
        <ele>462.651</ele>
        <time>2020-10-06T19:47:58Z</time>
      </trkpt>
      <trkpt lat="38.819156" lon="-0.549664">
        <ele>462.887</ele>
        <time>2020-10-06T19:47:59Z</time>
      </trkpt>
      <trkpt lat="38.819113" lon="-0.549714">
        <ele>463.831</ele>
        <time>2020-10-06T19:48:04Z</time>
      </trkpt>
      <trkpt lat="38.819098" lon="-0.549747">
        <ele>464.225</ele>
        <time>2020-10-06T19:48:07Z</time>
      </trkpt>
      <trkpt lat="38.819032" lon="-0.549846">
        <ele>464.832</ele>
        <time>2020-10-06T19:48:14Z</time>
      </trkpt>
      <trkpt lat="38.819022" lon="-0.549862">
        <ele>465.092</ele>
        <time>2020-10-06T19:48:15Z</time>
      </trkpt>
      <trkpt lat="38.818953" lon="-0.549961">
        <ele>465.611</ele>
        <time>2020-10-06T19:48:22Z</time>
      </trkpt>
      <trkpt lat="38.818920" lon="-0.550010">
        <ele>465.808</ele>
        <time>2020-10-06T19:48:25Z</time>
      </trkpt>
      <trkpt lat="38.818865" lon="-0.550069">
        <ele>466.488</ele>
        <time>2020-10-06T19:48:30Z</time>
      </trkpt>
      <trkpt lat="38.818852" lon="-0.550087">
        <ele>466.411</ele>
        <time>2020-10-06T19:48:31Z</time>
      </trkpt>
      <trkpt lat="38.818786" lon="-0.550183">
        <ele>466.863</ele>
        <time>2020-10-06T19:48:37Z</time>
      </trkpt>
      <trkpt lat="38.818775" lon="-0.550198">
        <ele>467.081</ele>
        <time>2020-10-06T19:48:38Z</time>
      </trkpt>
      <trkpt lat="38.818723" lon="-0.550249">
        <ele>467.488</ele>
        <time>2020-10-06T19:48:42Z</time>
      </trkpt>
      <trkpt lat="38.818694" lon="-0.550275">
        <ele>467.684</ele>
        <time>2020-10-06T19:48:44Z</time>
      </trkpt>
      <trkpt lat="38.818682" lon="-0.550291">
        <ele>467.628</ele>
        <time>2020-10-06T19:48:45Z</time>
      </trkpt>
      <trkpt lat="38.818661" lon="-0.550322">
        <ele>468.082</ele>
        <time>2020-10-06T19:48:47Z</time>
      </trkpt>
      <trkpt lat="38.818602" lon="-0.550393">
        <ele>468.651</ele>
        <time>2020-10-06T19:48:51Z</time>
      </trkpt>
      <trkpt lat="38.818570" lon="-0.550422">
        <ele>469.001</ele>
        <time>2020-10-06T19:48:53Z</time>
      </trkpt>
      <trkpt lat="38.818556" lon="-0.550432">
        <ele>469.211</ele>
        <time>2020-10-06T19:48:54Z</time>
      </trkpt>
      <trkpt lat="38.818487" lon="-0.550527">
        <ele>470.008</ele>
        <time>2020-10-06T19:49:00Z</time>
      </trkpt>
      <trkpt lat="38.818473" lon="-0.550539">
        <ele>470.290</ele>
        <time>2020-10-06T19:49:01Z</time>
      </trkpt>
      <trkpt lat="38.818396" lon="-0.550614">
        <ele>470.873</ele>
        <time>2020-10-06T19:49:07Z</time>
      </trkpt>
      <trkpt lat="38.818372" lon="-0.550634">
        <ele>471.275</ele>
        <time>2020-10-06T19:49:09Z</time>
      </trkpt>
      <trkpt lat="38.818323" lon="-0.550687">
        <ele>472.253</ele>
        <time>2020-10-06T19:49:13Z</time>
      </trkpt>
      <trkpt lat="38.818308" lon="-0.550695">
        <ele>472.630</ele>
        <time>2020-10-06T19:49:14Z</time>
      </trkpt>
      <trkpt lat="38.818298" lon="-0.550705">
        <ele>473.066</ele>
        <time>2020-10-06T19:49:16Z</time>
      </trkpt>
      <trkpt lat="38.818288" lon="-0.550721">
        <ele>473.290</ele>
        <time>2020-10-06T19:49:17Z</time>
      </trkpt>
      <trkpt lat="38.818267" lon="-0.550749">
        <ele>473.844</ele>
        <time>2020-10-06T19:49:19Z</time>
      </trkpt>
      <trkpt lat="38.818261" lon="-0.550766">
        <ele>474.256</ele>
        <time>2020-10-06T19:49:20Z</time>
      </trkpt>
      <trkpt lat="38.818251" lon="-0.550802">
        <ele>474.859</ele>
        <time>2020-10-06T19:49:22Z</time>
      </trkpt>
      <trkpt lat="38.818241" lon="-0.550827">
        <ele>475.014</ele>
        <time>2020-10-06T19:49:23Z</time>
      </trkpt>
      <trkpt lat="38.818248" lon="-0.550960">
        <ele>475.808</ele>
        <time>2020-10-06T19:49:29Z</time>
      </trkpt>
      <trkpt lat="38.818250" lon="-0.550994">
        <ele>476.090</ele>
        <time>2020-10-06T19:49:31Z</time>
      </trkpt>
      <trkpt lat="38.818222" lon="-0.551040">
        <ele>476.893</ele>
        <time>2020-10-06T19:49:34Z</time>
      </trkpt>
      <trkpt lat="38.818196" lon="-0.551070">
        <ele>477.255</ele>
        <time>2020-10-06T19:49:36Z</time>
      </trkpt>
      <trkpt lat="38.818129" lon="-0.551136">
        <ele>478.493</ele>
        <time>2020-10-06T19:49:41Z</time>
      </trkpt>
      <trkpt lat="38.818116" lon="-0.551146">
        <ele>478.620</ele>
        <time>2020-10-06T19:49:42Z</time>
      </trkpt>
      <trkpt lat="38.818080" lon="-0.551190">
        <ele>479.656</ele>
        <time>2020-10-06T19:49:45Z</time>
      </trkpt>
      <trkpt lat="38.818046" lon="-0.551301">
        <ele>480.410</ele>
        <time>2020-10-06T19:49:50Z</time>
      </trkpt>
      <trkpt lat="38.818045" lon="-0.551322">
        <ele>480.674</ele>
        <time>2020-10-06T19:49:51Z</time>
      </trkpt>
      <trkpt lat="38.818068" lon="-0.551462">
        <ele>481.855</ele>
        <time>2020-10-06T19:49:57Z</time>
      </trkpt>
      <trkpt lat="38.818074" lon="-0.551529">
        <ele>482.407</ele>
        <time>2020-10-06T19:50:00Z</time>
      </trkpt>
      <trkpt lat="38.818061" lon="-0.551583">
        <ele>482.817</ele>
        <time>2020-10-06T19:50:02Z</time>
      </trkpt>
      <trkpt lat="38.818068" lon="-0.551660">
        <ele>483.408</ele>
        <time>2020-10-06T19:50:05Z</time>
      </trkpt>
      <trkpt lat="38.818053" lon="-0.551740">
        <ele>484.060</ele>
        <time>2020-10-06T19:50:08Z</time>
      </trkpt>
      <trkpt lat="38.818047" lon="-0.551766">
        <ele>484.413</ele>
        <time>2020-10-06T19:50:09Z</time>
      </trkpt>
      <trkpt lat="38.818032" lon="-0.551834">
        <ele>485.015</ele>
        <time>2020-10-06T19:50:12Z</time>
      </trkpt>
      <trkpt lat="38.818010" lon="-0.551952">
        <ele>486.023</ele>
        <time>2020-10-06T19:50:17Z</time>
      </trkpt>
      <trkpt lat="38.818006" lon="-0.551977">
        <ele>486.290</ele>
        <time>2020-10-06T19:50:18Z</time>
      </trkpt>
      <trkpt lat="38.817984" lon="-0.552124">
        <ele>487.436</ele>
        <time>2020-10-06T19:50:24Z</time>
      </trkpt>
      <trkpt lat="38.817979" lon="-0.552167">
        <ele>487.630</ele>
        <time>2020-10-06T19:50:26Z</time>
      </trkpt>
      <trkpt lat="38.817975" lon="-0.552260">
        <ele>488.474</ele>
        <time>2020-10-06T19:50:31Z</time>
      </trkpt>
      <trkpt lat="38.817970" lon="-0.552353">
        <ele>488.877</ele>
        <time>2020-10-06T19:50:36Z</time>
      </trkpt>
      <trkpt lat="38.817940" lon="-0.552659">
        <ele>488.661</ele>
        <time>2020-10-06T19:50:48Z</time>
      </trkpt>
      <trkpt lat="38.817868" lon="-0.552951">
        <ele>488.227</ele>
        <time>2020-10-06T19:50:56Z</time>
      </trkpt>
      <trkpt lat="38.817850" lon="-0.553033">
        <ele>488.408</ele>
        <time>2020-10-06T19:50:59Z</time>
      </trkpt>
      <trkpt lat="38.817850" lon="-0.553078">
        <ele>488.432</ele>
        <time>2020-10-06T19:51:01Z</time>
      </trkpt>
      <trkpt lat="38.817818" lon="-0.553248">
        <ele>488.645</ele>
        <time>2020-10-06T19:51:07Z</time>
      </trkpt>
      <trkpt lat="38.817813" lon="-0.553276">
        <ele>488.617</ele>
        <time>2020-10-06T19:51:08Z</time>
      </trkpt>
      <trkpt lat="38.817804" lon="-0.553359">
        <ele>488.885</ele>
        <time>2020-10-06T19:51:11Z</time>
      </trkpt>
      <trkpt lat="38.817800" lon="-0.553419">
        <ele>489.072</ele>
        <time>2020-10-06T19:51:13Z</time>
      </trkpt>
      <trkpt lat="38.817800" lon="-0.553477">
        <ele>489.258</ele>
        <time>2020-10-06T19:51:15Z</time>
      </trkpt>
      <trkpt lat="38.817803" lon="-0.553532">
        <ele>489.442</ele>
        <time>2020-10-06T19:51:17Z</time>
      </trkpt>
      <trkpt lat="38.817805" lon="-0.553590">
        <ele>489.886</ele>
        <time>2020-10-06T19:51:19Z</time>
      </trkpt>
      <trkpt lat="38.817805" lon="-0.553643">
        <ele>489.829</ele>
        <time>2020-10-06T19:51:21Z</time>
      </trkpt>
      <trkpt lat="38.817805" lon="-0.553701">
        <ele>490.000</ele>
        <time>2020-10-06T19:51:23Z</time>
      </trkpt>
      <trkpt lat="38.817818" lon="-0.553784">
        <ele>490.220</ele>
        <time>2020-10-06T19:51:26Z</time>
      </trkpt>
      <trkpt lat="38.817823" lon="-0.553815">
        <ele>490.208</ele>
        <time>2020-10-06T19:51:27Z</time>
      </trkpt>
      <trkpt lat="38.817863" lon="-0.553936">
        <ele>490.477</ele>
        <time>2020-10-06T19:51:32Z</time>
      </trkpt>
      <trkpt lat="38.817914" lon="-0.554035">
        <ele>490.270</ele>
        <time>2020-10-06T19:51:36Z</time>
      </trkpt>
      <trkpt lat="38.817956" lon="-0.554129">
        <ele>490.012</ele>
        <time>2020-10-06T19:51:39Z</time>
      </trkpt>
      <trkpt lat="38.818036" lon="-0.554252">
        <ele>489.660</ele>
        <time>2020-10-06T19:51:42Z</time>
      </trkpt>
      <trkpt lat="38.818162" lon="-0.554430">
        <ele>488.817</ele>
        <time>2020-10-06T19:51:45Z</time>
      </trkpt>
      <trkpt lat="38.818216" lon="-0.554483">
        <ele>488.443</ele>
        <time>2020-10-06T19:51:46Z</time>
      </trkpt>
      <trkpt lat="38.818274" lon="-0.554528">
        <ele>488.267</ele>
        <time>2020-10-06T19:51:47Z</time>
      </trkpt>
      <trkpt lat="38.818452" lon="-0.554615">
        <ele>487.881</ele>
        <time>2020-10-06T19:51:50Z</time>
      </trkpt>
      <trkpt lat="38.818513" lon="-0.554630">
        <ele>487.859</ele>
        <time>2020-10-06T19:51:51Z</time>
      </trkpt>
      <trkpt lat="38.818702" lon="-0.554624">
        <ele>487.203</ele>
        <time>2020-10-06T19:51:54Z</time>
      </trkpt>
      <trkpt lat="38.818816" lon="-0.554607">
        <ele>486.823</ele>
        <time>2020-10-06T19:51:56Z</time>
      </trkpt>
      <trkpt lat="38.818935" lon="-0.554610">
        <ele>486.608</ele>
        <time>2020-10-06T19:51:58Z</time>
      </trkpt>
      <trkpt lat="38.818980" lon="-0.554634">
        <ele>486.640</ele>
        <time>2020-10-06T19:51:59Z</time>
      </trkpt>
      <trkpt lat="38.819014" lon="-0.554667">
        <ele>486.663</ele>
        <time>2020-10-06T19:52:00Z</time>
      </trkpt>
      <trkpt lat="38.819050" lon="-0.554730">
        <ele>487.035</ele>
        <time>2020-10-06T19:52:02Z</time>
      </trkpt>
      <trkpt lat="38.819057" lon="-0.554905">
        <ele>488.443</ele>
        <time>2020-10-06T19:52:07Z</time>
      </trkpt>
      <trkpt lat="38.818992" lon="-0.555168">
        <ele>489.090</ele>
        <time>2020-10-06T19:52:15Z</time>
      </trkpt>
      <trkpt lat="38.818875" lon="-0.555444">
        <ele>489.246</ele>
        <time>2020-10-06T19:52:23Z</time>
      </trkpt>
      <trkpt lat="38.818787" lon="-0.555537">
        <ele>489.410</ele>
        <time>2020-10-06T19:52:27Z</time>
      </trkpt>
      <trkpt lat="38.818697" lon="-0.555633">
        <ele>489.494</ele>
        <time>2020-10-06T19:52:31Z</time>
      </trkpt>
      <trkpt lat="38.818586" lon="-0.555712">
        <ele>490.266</ele>
        <time>2020-10-06T19:52:37Z</time>
      </trkpt>
      <trkpt lat="38.818545" lon="-0.555730">
        <ele>490.429</ele>
        <time>2020-10-06T19:52:39Z</time>
      </trkpt>
      <trkpt lat="38.818526" lon="-0.555744">
        <ele>490.621</ele>
        <time>2020-10-06T19:52:40Z</time>
      </trkpt>
      <trkpt lat="38.818494" lon="-0.555759">
        <ele>491.008</ele>
        <time>2020-10-06T19:52:42Z</time>
      </trkpt>
      <trkpt lat="38.818443" lon="-0.555764">
        <ele>491.841</ele>
        <time>2020-10-06T19:52:45Z</time>
      </trkpt>
      <trkpt lat="38.818396" lon="-0.555781">
        <ele>492.484</ele>
        <time>2020-10-06T19:52:48Z</time>
      </trkpt>
      <trkpt lat="38.818378" lon="-0.555787">
        <ele>492.876</ele>
        <time>2020-10-06T19:52:49Z</time>
      </trkpt>
      <trkpt lat="38.818309" lon="-0.555808">
        <ele>493.834</ele>
        <time>2020-10-06T19:52:53Z</time>
      </trkpt>
      <trkpt lat="38.818269" lon="-0.555869">
        <ele>494.421</ele>
        <time>2020-10-06T19:52:56Z</time>
      </trkpt>
      <trkpt lat="38.818205" lon="-0.555938">
        <ele>495.087</ele>
        <time>2020-10-06T19:53:00Z</time>
      </trkpt>
      <trkpt lat="38.818128" lon="-0.556039">
        <ele>496.221</ele>
        <time>2020-10-06T19:53:06Z</time>
      </trkpt>
      <trkpt lat="38.818094" lon="-0.556106">
        <ele>496.895</ele>
        <time>2020-10-06T19:53:10Z</time>
      </trkpt>
      <trkpt lat="38.818058" lon="-0.556129">
        <ele>497.255</ele>
        <time>2020-10-06T19:53:13Z</time>
      </trkpt>
      <trkpt lat="38.818043" lon="-0.556138">
        <ele>497.407</ele>
        <time>2020-10-06T19:53:14Z</time>
      </trkpt>
      <trkpt lat="38.817981" lon="-0.556192">
        <ele>498.017</ele>
        <time>2020-10-06T19:53:18Z</time>
      </trkpt>
      <trkpt lat="38.817933" lon="-0.556233">
        <ele>498.408</ele>
        <time>2020-10-06T19:53:21Z</time>
      </trkpt>
      <trkpt lat="38.817883" lon="-0.556274">
        <ele>499.020</ele>
        <time>2020-10-06T19:53:24Z</time>
      </trkpt>
      <trkpt lat="38.817832" lon="-0.556308">
        <ele>499.463</ele>
        <time>2020-10-06T19:53:27Z</time>
      </trkpt>
      <trkpt lat="38.817755" lon="-0.556345">
        <ele>499.865</ele>
        <time>2020-10-06T19:53:32Z</time>
      </trkpt>
      <trkpt lat="38.817707" lon="-0.556347">
        <ele>500.243</ele>
        <time>2020-10-06T19:53:35Z</time>
      </trkpt>
      <trkpt lat="38.817545" lon="-0.556356">
        <ele>500.450</ele>
        <time>2020-10-06T19:53:43Z</time>
      </trkpt>
      <trkpt lat="38.817501" lon="-0.556362">
        <ele>500.646</ele>
        <time>2020-10-06T19:53:45Z</time>
      </trkpt>
      <trkpt lat="38.817318" lon="-0.556378">
        <ele>501.440</ele>
        <time>2020-10-06T19:53:54Z</time>
      </trkpt>
      <trkpt lat="38.817279" lon="-0.556383">
        <ele>501.414</ele>
        <time>2020-10-06T19:53:56Z</time>
      </trkpt>
      <trkpt lat="38.817234" lon="-0.556389">
        <ele>501.645</ele>
        <time>2020-10-06T19:53:58Z</time>
      </trkpt>
      <trkpt lat="38.817160" lon="-0.556394">
        <ele>502.447</ele>
        <time>2020-10-06T19:54:02Z</time>
      </trkpt>
      <trkpt lat="38.817136" lon="-0.556396">
        <ele>502.611</ele>
        <time>2020-10-06T19:54:03Z</time>
      </trkpt>
      <trkpt lat="38.817049" lon="-0.556392">
        <ele>503.208</ele>
        <time>2020-10-06T19:54:08Z</time>
      </trkpt>
      <trkpt lat="38.816998" lon="-0.556392">
        <ele>503.649</ele>
        <time>2020-10-06T19:54:11Z</time>
      </trkpt>
      <trkpt lat="38.816854" lon="-0.556361">
        <ele>503.822</ele>
        <time>2020-10-06T19:54:19Z</time>
      </trkpt>
      <trkpt lat="38.816835" lon="-0.556353">
        <ele>503.844</ele>
        <time>2020-10-06T19:54:20Z</time>
      </trkpt>
      <trkpt lat="38.816691" lon="-0.556263">
        <ele>504.682</ele>
        <time>2020-10-06T19:54:29Z</time>
      </trkpt>
      <trkpt lat="38.816680" lon="-0.556254">
        <ele>504.849</ele>
        <time>2020-10-06T19:54:30Z</time>
      </trkpt>
      <trkpt lat="38.816610" lon="-0.556218">
        <ele>505.445</ele>
        <time>2020-10-06T19:54:35Z</time>
      </trkpt>
      <trkpt lat="38.816580" lon="-0.556210">
        <ele>505.669</ele>
        <time>2020-10-06T19:54:37Z</time>
      </trkpt>
      <trkpt lat="38.816515" lon="-0.556189">
        <ele>506.423</ele>
        <time>2020-10-06T19:54:41Z</time>
      </trkpt>
      <trkpt lat="38.816469" lon="-0.556175">
        <ele>506.886</ele>
        <time>2020-10-06T19:54:44Z</time>
      </trkpt>
      <trkpt lat="38.816408" lon="-0.556155">
        <ele>507.460</ele>
        <time>2020-10-06T19:54:48Z</time>
      </trkpt>
      <trkpt lat="38.816366" lon="-0.556142">
        <ele>508.026</ele>
        <time>2020-10-06T19:54:51Z</time>
      </trkpt>
      <trkpt lat="38.816335" lon="-0.556127">
        <ele>508.408</ele>
        <time>2020-10-06T19:54:53Z</time>
      </trkpt>
      <trkpt lat="38.816286" lon="-0.556110">
        <ele>509.413</ele>
        <time>2020-10-06T19:54:56Z</time>
      </trkpt>
      <trkpt lat="38.816215" lon="-0.556095">
        <ele>510.656</ele>
        <time>2020-10-06T19:55:01Z</time>
      </trkpt>
      <trkpt lat="38.816185" lon="-0.556089">
        <ele>511.058</ele>
        <time>2020-10-06T19:55:03Z</time>
      </trkpt>
      <trkpt lat="38.816130" lon="-0.556077">
        <ele>511.836</ele>
        <time>2020-10-06T19:55:07Z</time>
      </trkpt>
      <trkpt lat="38.816074" lon="-0.556076">
        <ele>512.623</ele>
        <time>2020-10-06T19:55:11Z</time>
      </trkpt>
      <trkpt lat="38.816061" lon="-0.556080">
        <ele>512.869</ele>
        <time>2020-10-06T19:55:12Z</time>
      </trkpt>
      <trkpt lat="38.816037" lon="-0.556098">
        <ele>513.263</ele>
        <time>2020-10-06T19:55:14Z</time>
      </trkpt>
      <trkpt lat="38.815999" lon="-0.556113">
        <ele>514.037</ele>
        <time>2020-10-06T19:55:17Z</time>
      </trkpt>
      <trkpt lat="38.815943" lon="-0.556126">
        <ele>514.639</ele>
        <time>2020-10-06T19:55:21Z</time>
      </trkpt>
      <trkpt lat="38.815920" lon="-0.556130">
        <ele>515.001</ele>
        <time>2020-10-06T19:55:23Z</time>
      </trkpt>
      <trkpt lat="38.815892" lon="-0.556135">
        <ele>515.621</ele>
        <time>2020-10-06T19:55:25Z</time>
      </trkpt>
      <trkpt lat="38.815843" lon="-0.556145">
        <ele>516.208</ele>
        <time>2020-10-06T19:55:29Z</time>
      </trkpt>
      <trkpt lat="38.815793" lon="-0.556150">
        <ele>517.268</ele>
        <time>2020-10-06T19:55:34Z</time>
      </trkpt>
      <trkpt lat="38.815785" lon="-0.556152">
        <ele>517.421</ele>
        <time>2020-10-06T19:55:35Z</time>
      </trkpt>
      <trkpt lat="38.815727" lon="-0.556155">
        <ele>518.413</ele>
        <time>2020-10-06T19:55:40Z</time>
      </trkpt>
      <trkpt lat="38.815676" lon="-0.556171">
        <ele>519.441</ele>
        <time>2020-10-06T19:55:45Z</time>
      </trkpt>
      <trkpt lat="38.815600" lon="-0.556174">
        <ele>520.618</ele>
        <time>2020-10-06T19:55:51Z</time>
      </trkpt>
      <trkpt lat="38.815531" lon="-0.556168">
        <ele>521.694</ele>
        <time>2020-10-06T19:55:56Z</time>
      </trkpt>
      <trkpt lat="38.815450" lon="-0.556166">
        <ele>522.648</ele>
        <time>2020-10-06T19:56:02Z</time>
      </trkpt>
      <trkpt lat="38.815409" lon="-0.556159">
        <ele>523.022</ele>
        <time>2020-10-06T19:56:05Z</time>
      </trkpt>
      <trkpt lat="38.815339" lon="-0.556167">
        <ele>523.871</ele>
        <time>2020-10-06T19:56:11Z</time>
      </trkpt>
      <trkpt lat="38.815298" lon="-0.556176">
        <ele>524.041</ele>
        <time>2020-10-06T19:56:14Z</time>
      </trkpt>
      <trkpt lat="38.815245" lon="-0.556184">
        <ele>524.815</ele>
        <time>2020-10-06T19:56:18Z</time>
      </trkpt>
      <trkpt lat="38.815178" lon="-0.556210">
        <ele>525.208</ele>
        <time>2020-10-06T19:56:23Z</time>
      </trkpt>
      <trkpt lat="38.815149" lon="-0.556220">
        <ele>525.442</ele>
        <time>2020-10-06T19:56:25Z</time>
      </trkpt>
      <trkpt lat="38.815076" lon="-0.556263">
        <ele>525.875</ele>
        <time>2020-10-06T19:56:30Z</time>
      </trkpt>
      <trkpt lat="38.815017" lon="-0.556299">
        <ele>526.287</ele>
        <time>2020-10-06T19:56:34Z</time>
      </trkpt>
      <trkpt lat="38.814941" lon="-0.556370">
        <ele>526.875</ele>
        <time>2020-10-06T19:56:41Z</time>
      </trkpt>
      <trkpt lat="38.814866" lon="-0.556416">
        <ele>526.852</ele>
        <time>2020-10-06T19:56:46Z</time>
      </trkpt>
      <trkpt lat="38.814835" lon="-0.556428">
        <ele>527.268</ele>
        <time>2020-10-06T19:56:49Z</time>
      </trkpt>
      <trkpt lat="38.814813" lon="-0.556430">
        <ele>527.282</ele>
        <time>2020-10-06T19:56:51Z</time>
      </trkpt>
      <trkpt lat="38.814734" lon="-0.556427">
        <ele>528.086</ele>
        <time>2020-10-06T19:56:58Z</time>
      </trkpt>
      <trkpt lat="38.814717" lon="-0.556425">
        <ele>528.482</ele>
        <time>2020-10-06T19:56:59Z</time>
      </trkpt>
      <trkpt lat="38.814670" lon="-0.556418">
        <ele>529.243</ele>
        <time>2020-10-06T19:57:02Z</time>
      </trkpt>
      <trkpt lat="38.814580" lon="-0.556391">
        <ele>530.017</ele>
        <time>2020-10-06T19:57:08Z</time>
      </trkpt>
      <trkpt lat="38.814552" lon="-0.556395">
        <ele>530.008</ele>
        <time>2020-10-06T19:57:10Z</time>
      </trkpt>
      <trkpt lat="38.814522" lon="-0.556401">
        <ele>530.483</ele>
        <time>2020-10-06T19:57:12Z</time>
      </trkpt>
      <trkpt lat="38.814454" lon="-0.556443">
        <ele>530.886</ele>
        <time>2020-10-06T19:57:17Z</time>
      </trkpt>
      <trkpt lat="38.814422" lon="-0.556475">
        <ele>531.468</ele>
        <time>2020-10-06T19:57:20Z</time>
      </trkpt>
      <trkpt lat="38.814353" lon="-0.556526">
        <ele>532.436</ele>
        <time>2020-10-06T19:57:26Z</time>
      </trkpt>
      <trkpt lat="38.814329" lon="-0.556539">
        <ele>532.693</ele>
        <time>2020-10-06T19:57:28Z</time>
      </trkpt>
      <trkpt lat="38.814233" lon="-0.556612">
        <ele>533.469</ele>
        <time>2020-10-06T19:57:36Z</time>
      </trkpt>
      <trkpt lat="38.814218" lon="-0.556620">
        <ele>533.623</ele>
        <time>2020-10-06T19:57:37Z</time>
      </trkpt>
      <trkpt lat="38.814169" lon="-0.556647">
        <ele>534.287</ele>
        <time>2020-10-06T19:57:41Z</time>
      </trkpt>
      <trkpt lat="38.814142" lon="-0.556660">
        <ele>534.468</ele>
        <time>2020-10-06T19:57:43Z</time>
      </trkpt>
      <trkpt lat="38.814111" lon="-0.556676">
        <ele>534.642</ele>
        <time>2020-10-06T19:57:46Z</time>
      </trkpt>
      <trkpt lat="38.814024" lon="-0.556690">
        <ele>535.626</ele>
        <time>2020-10-06T19:57:53Z</time>
      </trkpt>
      <trkpt lat="38.814010" lon="-0.556692">
        <ele>535.608</ele>
        <time>2020-10-06T19:57:54Z</time>
      </trkpt>
      <trkpt lat="38.813989" lon="-0.556691">
        <ele>535.871</ele>
        <time>2020-10-06T19:57:56Z</time>
      </trkpt>
      <trkpt lat="38.813945" lon="-0.556677">
        <ele>536.084</ele>
        <time>2020-10-06T19:58:00Z</time>
      </trkpt>
      <trkpt lat="38.813910" lon="-0.556668">
        <ele>536.666</ele>
        <time>2020-10-06T19:58:03Z</time>
      </trkpt>
      <trkpt lat="38.813888" lon="-0.556669">
        <ele>537.294</ele>
        <time>2020-10-06T19:58:05Z</time>
      </trkpt>
      <trkpt lat="38.813845" lon="-0.556670">
        <ele>537.891</ele>
        <time>2020-10-06T19:58:09Z</time>
      </trkpt>
      <trkpt lat="38.813785" lon="-0.556649">
        <ele>538.617</ele>
        <time>2020-10-06T19:58:14Z</time>
      </trkpt>
      <trkpt lat="38.813774" lon="-0.556655">
        <ele>538.861</ele>
        <time>2020-10-06T19:58:15Z</time>
      </trkpt>
      <trkpt lat="38.813763" lon="-0.556661">
        <ele>538.875</ele>
        <time>2020-10-06T19:58:16Z</time>
      </trkpt>
      <trkpt lat="38.813696" lon="-0.556684">
        <ele>539.699</ele>
        <time>2020-10-06T19:58:22Z</time>
      </trkpt>
      <trkpt lat="38.813674" lon="-0.556679">
        <ele>540.207</ele>
        <time>2020-10-06T19:58:24Z</time>
      </trkpt>
      <trkpt lat="38.813622" lon="-0.556689">
        <ele>541.227</ele>
        <time>2020-10-06T19:58:29Z</time>
      </trkpt>
      <trkpt lat="38.813590" lon="-0.556694">
        <ele>541.808</ele>
        <time>2020-10-06T19:58:32Z</time>
      </trkpt>
      <trkpt lat="38.813559" lon="-0.556698">
        <ele>542.484</ele>
        <time>2020-10-06T19:58:35Z</time>
      </trkpt>
      <trkpt lat="38.813505" lon="-0.556712">
        <ele>543.497</ele>
        <time>2020-10-06T19:58:40Z</time>
      </trkpt>
      <trkpt lat="38.813450" lon="-0.556708">
        <ele>544.629</ele>
        <time>2020-10-06T19:58:45Z</time>
      </trkpt>
      <trkpt lat="38.813376" lon="-0.556691">
        <ele>545.687</ele>
        <time>2020-10-06T19:58:51Z</time>
      </trkpt>
      <trkpt lat="38.813363" lon="-0.556691">
        <ele>545.664</ele>
        <time>2020-10-06T19:58:52Z</time>
      </trkpt>
      <trkpt lat="38.813310" lon="-0.556654">
        <ele>546.650</ele>
        <time>2020-10-06T19:58:58Z</time>
      </trkpt>
      <trkpt lat="38.813306" lon="-0.556647">
        <ele>546.674</ele>
        <time>2020-10-06T19:58:59Z</time>
      </trkpt>
      <trkpt lat="38.813247" lon="-0.556506">
        <ele>547.888</ele>
        <time>2020-10-06T19:59:08Z</time>
      </trkpt>
      <trkpt lat="38.813199" lon="-0.556373">
        <ele>548.816</ele>
        <time>2020-10-06T19:59:17Z</time>
      </trkpt>
      <trkpt lat="38.813164" lon="-0.556296">
        <ele>549.476</ele>
        <time>2020-10-06T19:59:22Z</time>
      </trkpt>
      <trkpt lat="38.813139" lon="-0.556239">
        <ele>550.013</ele>
        <time>2020-10-06T19:59:26Z</time>
      </trkpt>
      <trkpt lat="38.813114" lon="-0.556166">
        <ele>551.208</ele>
        <time>2020-10-06T19:59:31Z</time>
      </trkpt>
      <trkpt lat="38.813092" lon="-0.556126">
        <ele>551.676</ele>
        <time>2020-10-06T19:59:34Z</time>
      </trkpt>
      <trkpt lat="38.813066" lon="-0.556063">
        <ele>552.229</ele>
        <time>2020-10-06T19:59:39Z</time>
      </trkpt>
      <trkpt lat="38.813043" lon="-0.556001">
        <ele>552.851</ele>
        <time>2020-10-06T19:59:44Z</time>
      </trkpt>
      <trkpt lat="38.813025" lon="-0.555977">
        <ele>553.279</ele>
        <time>2020-10-06T19:59:46Z</time>
      </trkpt>
      <trkpt lat="38.812978" lon="-0.555890">
        <ele>554.426</ele>
        <time>2020-10-06T19:59:53Z</time>
      </trkpt>
      <trkpt lat="38.812916" lon="-0.555754">
        <ele>555.452</ele>
        <time>2020-10-06T20:00:03Z</time>
      </trkpt>
      <trkpt lat="38.812906" lon="-0.555745">
        <ele>555.626</ele>
        <time>2020-10-06T20:00:04Z</time>
      </trkpt>
      <trkpt lat="38.812878" lon="-0.555688">
        <ele>556.270</ele>
        <time>2020-10-06T20:00:09Z</time>
      </trkpt>
      <trkpt lat="38.812870" lon="-0.555651">
        <ele>556.662</ele>
        <time>2020-10-06T20:00:11Z</time>
      </trkpt>
      <trkpt lat="38.812854" lon="-0.555606">
        <ele>557.083</ele>
        <time>2020-10-06T20:00:14Z</time>
      </trkpt>
      <trkpt lat="38.812836" lon="-0.555550">
        <ele>557.611</ele>
        <time>2020-10-06T20:00:18Z</time>
      </trkpt>
      <trkpt lat="38.812815" lon="-0.555503">
        <ele>558.008</ele>
        <time>2020-10-06T20:00:22Z</time>
      </trkpt>
      <trkpt lat="38.812790" lon="-0.555428">
        <ele>558.671</ele>
        <time>2020-10-06T20:00:27Z</time>
      </trkpt>
      <trkpt lat="38.812760" lon="-0.555343">
        <ele>559.444</ele>
        <time>2020-10-06T20:00:33Z</time>
      </trkpt>
      <trkpt lat="38.812756" lon="-0.555313">
        <ele>559.886</ele>
        <time>2020-10-06T20:00:35Z</time>
      </trkpt>
      <trkpt lat="38.812747" lon="-0.555199">
        <ele>561.044</ele>
        <time>2020-10-06T20:00:42Z</time>
      </trkpt>
      <trkpt lat="38.812743" lon="-0.555182">
        <ele>561.211</ele>
        <time>2020-10-06T20:00:43Z</time>
      </trkpt>
      <trkpt lat="38.812710" lon="-0.555116">
        <ele>562.217</ele>
        <time>2020-10-06T20:00:48Z</time>
      </trkpt>
      <trkpt lat="38.812673" lon="-0.555094">
        <ele>562.851</ele>
        <time>2020-10-06T20:00:51Z</time>
      </trkpt>
      <trkpt lat="38.812634" lon="-0.555123">
        <ele>563.255</ele>
        <time>2020-10-06T20:00:54Z</time>
      </trkpt>
      <trkpt lat="38.812614" lon="-0.555170">
        <ele>563.696</ele>
        <time>2020-10-06T20:00:57Z</time>
      </trkpt>
      <trkpt lat="38.812578" lon="-0.555269">
        <ele>564.231</ele>
        <time>2020-10-06T20:01:03Z</time>
      </trkpt>
      <trkpt lat="38.812525" lon="-0.555348">
        <ele>565.024</ele>
        <time>2020-10-06T20:01:09Z</time>
      </trkpt>
      <trkpt lat="38.812512" lon="-0.555374">
        <ele>565.408</ele>
        <time>2020-10-06T20:01:11Z</time>
      </trkpt>
      <trkpt lat="38.812458" lon="-0.555482">
        <ele>566.494</ele>
        <time>2020-10-06T20:01:19Z</time>
      </trkpt>
      <trkpt lat="38.812452" lon="-0.555498">
        <ele>566.667</ele>
        <time>2020-10-06T20:01:20Z</time>
      </trkpt>
      <trkpt lat="38.812403" lon="-0.555581">
        <ele>567.229</ele>
        <time>2020-10-06T20:01:26Z</time>
      </trkpt>
      <trkpt lat="38.812376" lon="-0.555624">
        <ele>567.667</ele>
        <time>2020-10-06T20:01:29Z</time>
      </trkpt>
      <trkpt lat="38.812367" lon="-0.555638">
        <ele>567.614</ele>
        <time>2020-10-06T20:01:30Z</time>
      </trkpt>
      <trkpt lat="38.812320" lon="-0.555728">
        <ele>568.450</ele>
        <time>2020-10-06T20:01:37Z</time>
      </trkpt>
      <trkpt lat="38.812303" lon="-0.555755">
        <ele>568.614</ele>
        <time>2020-10-06T20:01:39Z</time>
      </trkpt>
      <trkpt lat="38.812280" lon="-0.555821">
        <ele>569.068</ele>
        <time>2020-10-06T20:01:43Z</time>
      </trkpt>
      <trkpt lat="38.812274" lon="-0.555852">
        <ele>569.485</ele>
        <time>2020-10-06T20:01:45Z</time>
      </trkpt>
      <trkpt lat="38.812254" lon="-0.555883">
        <ele>569.689</ele>
        <time>2020-10-06T20:01:47Z</time>
      </trkpt>
      <trkpt lat="38.812193" lon="-0.556012">
        <ele>570.417</ele>
        <time>2020-10-06T20:01:56Z</time>
      </trkpt>
      <trkpt lat="38.812178" lon="-0.556037">
        <ele>570.808</ele>
        <time>2020-10-06T20:01:58Z</time>
      </trkpt>
      <trkpt lat="38.812132" lon="-0.556133">
        <ele>571.663</ele>
        <time>2020-10-06T20:02:04Z</time>
      </trkpt>
      <trkpt lat="38.812130" lon="-0.556153">
        <ele>571.826</ele>
        <time>2020-10-06T20:02:05Z</time>
      </trkpt>
      <trkpt lat="38.812128" lon="-0.556170">
        <ele>571.858</ele>
        <time>2020-10-06T20:02:06Z</time>
      </trkpt>
      <trkpt lat="38.812125" lon="-0.556271">
        <ele>572.866</ele>
        <time>2020-10-06T20:02:12Z</time>
      </trkpt>
      <trkpt lat="38.812133" lon="-0.556309">
        <ele>573.043</ele>
        <time>2020-10-06T20:02:14Z</time>
      </trkpt>
      <trkpt lat="38.812166" lon="-0.556440">
        <ele>574.019</ele>
        <time>2020-10-06T20:02:22Z</time>
      </trkpt>
      <trkpt lat="38.812184" lon="-0.556525">
        <ele>574.643</ele>
        <time>2020-10-06T20:02:27Z</time>
      </trkpt>
      <trkpt lat="38.812198" lon="-0.556583">
        <ele>575.087</ele>
        <time>2020-10-06T20:02:30Z</time>
      </trkpt>
      <trkpt lat="38.812202" lon="-0.556599">
        <ele>575.092</ele>
        <time>2020-10-06T20:02:31Z</time>
      </trkpt>
      <trkpt lat="38.812218" lon="-0.556721">
        <ele>575.873</ele>
        <time>2020-10-06T20:02:38Z</time>
      </trkpt>
      <trkpt lat="38.812224" lon="-0.556760">
        <ele>576.020</ele>
        <time>2020-10-06T20:02:40Z</time>
      </trkpt>
      <trkpt lat="38.812225" lon="-0.556914">
        <ele>576.808</ele>
        <time>2020-10-06T20:02:48Z</time>
      </trkpt>
      <trkpt lat="38.812218" lon="-0.556966">
        <ele>577.294</ele>
        <time>2020-10-06T20:02:51Z</time>
      </trkpt>
      <trkpt lat="38.812207" lon="-0.557057">
        <ele>577.897</ele>
        <time>2020-10-06T20:02:56Z</time>
      </trkpt>
      <trkpt lat="38.812200" lon="-0.557071">
        <ele>577.859</ele>
        <time>2020-10-06T20:02:57Z</time>
      </trkpt>
      <trkpt lat="38.812184" lon="-0.557112">
        <ele>578.477</ele>
        <time>2020-10-06T20:03:00Z</time>
      </trkpt>
      <trkpt lat="38.812145" lon="-0.557179">
        <ele>579.694</ele>
        <time>2020-10-06T20:03:05Z</time>
      </trkpt>
      <trkpt lat="38.812097" lon="-0.557224">
        <ele>580.650</ele>
        <time>2020-10-06T20:03:10Z</time>
      </trkpt>
      <trkpt lat="38.812072" lon="-0.557252">
        <ele>581.024</ele>
        <time>2020-10-06T20:03:13Z</time>
      </trkpt>
      <trkpt lat="38.812022" lon="-0.557289">
        <ele>581.668</ele>
        <time>2020-10-06T20:03:17Z</time>
      </trkpt>
      <trkpt lat="38.811968" lon="-0.557308">
        <ele>582.617</ele>
        <time>2020-10-06T20:03:22Z</time>
      </trkpt>
      <trkpt lat="38.811954" lon="-0.557311">
        <ele>582.887</ele>
        <time>2020-10-06T20:03:23Z</time>
      </trkpt>
      <trkpt lat="38.811888" lon="-0.557304">
        <ele>583.815</ele>
        <time>2020-10-06T20:03:29Z</time>
      </trkpt>
      <trkpt lat="38.811867" lon="-0.557294">
        <ele>584.208</ele>
        <time>2020-10-06T20:03:31Z</time>
      </trkpt>
      <trkpt lat="38.811827" lon="-0.557259">
        <ele>585.056</ele>
        <time>2020-10-06T20:03:36Z</time>
      </trkpt>
      <trkpt lat="38.811780" lon="-0.557184">
        <ele>586.069</ele>
        <time>2020-10-06T20:03:42Z</time>
      </trkpt>
      <trkpt lat="38.811735" lon="-0.557110">
        <ele>587.281</ele>
        <time>2020-10-06T20:03:49Z</time>
      </trkpt>
      <trkpt lat="38.811714" lon="-0.557067">
        <ele>588.049</ele>
        <time>2020-10-06T20:03:52Z</time>
      </trkpt>
      <trkpt lat="38.811696" lon="-0.557022">
        <ele>588.256</ele>
        <time>2020-10-06T20:03:55Z</time>
      </trkpt>
      <trkpt lat="38.811643" lon="-0.556936">
        <ele>589.082</ele>
        <time>2020-10-06T20:04:02Z</time>
      </trkpt>
      <trkpt lat="38.811631" lon="-0.556913">
        <ele>589.496</ele>
        <time>2020-10-06T20:04:04Z</time>
      </trkpt>
      <trkpt lat="38.811557" lon="-0.556803">
        <ele>590.430</ele>
        <time>2020-10-06T20:04:13Z</time>
      </trkpt>
      <trkpt lat="38.811488" lon="-0.556654">
        <ele>591.453</ele>
        <time>2020-10-06T20:04:23Z</time>
      </trkpt>
      <trkpt lat="38.811455" lon="-0.556604">
        <ele>591.804</ele>
        <time>2020-10-06T20:04:27Z</time>
      </trkpt>
      <trkpt lat="38.811418" lon="-0.556542">
        <ele>592.414</ele>
        <time>2020-10-06T20:04:32Z</time>
      </trkpt>
      <trkpt lat="38.811340" lon="-0.556454">
        <ele>593.408</ele>
        <time>2020-10-06T20:04:40Z</time>
      </trkpt>
      <trkpt lat="38.811327" lon="-0.556443">
        <ele>593.420</ele>
        <time>2020-10-06T20:04:41Z</time>
      </trkpt>
      <trkpt lat="38.811237" lon="-0.556421">
        <ele>594.653</ele>
        <time>2020-10-06T20:04:48Z</time>
      </trkpt>
      <trkpt lat="38.811170" lon="-0.556440">
        <ele>595.885</ele>
        <time>2020-10-06T20:04:54Z</time>
      </trkpt>
      <trkpt lat="38.811136" lon="-0.556457">
        <ele>596.423</ele>
        <time>2020-10-06T20:04:57Z</time>
      </trkpt>
      <trkpt lat="38.811108" lon="-0.556467">
        <ele>596.880</ele>
        <time>2020-10-06T20:04:59Z</time>
      </trkpt>
      <trkpt lat="38.811054" lon="-0.556492">
        <ele>598.086</ele>
        <time>2020-10-06T20:05:04Z</time>
      </trkpt>
      <trkpt lat="38.811004" lon="-0.556511">
        <ele>599.020</ele>
        <time>2020-10-06T20:05:08Z</time>
      </trkpt>
      <trkpt lat="38.810865" lon="-0.556542">
        <ele>599.294</ele>
        <time>2020-10-06T20:05:13Z</time>
      </trkpt>
      <trkpt lat="38.810649" lon="-0.556540">
        <ele>598.274</ele>
        <time>2020-10-06T20:05:18Z</time>
      </trkpt>
      <trkpt lat="38.810577" lon="-0.556530">
        <ele>598.456</ele>
        <time>2020-10-06T20:05:22Z</time>
      </trkpt>
      <trkpt lat="38.810491" lon="-0.556520">
        <ele>599.421</ele>
        <time>2020-10-06T20:05:28Z</time>
      </trkpt>
      <trkpt lat="38.810418" lon="-0.556503">
        <ele>600.008</ele>
        <time>2020-10-06T20:05:33Z</time>
      </trkpt>
      <trkpt lat="38.810404" lon="-0.556500">
        <ele>600.222</ele>
        <time>2020-10-06T20:05:34Z</time>
      </trkpt>
      <trkpt lat="38.810312" lon="-0.556493">
        <ele>600.815</ele>
        <time>2020-10-06T20:05:40Z</time>
      </trkpt>
      <trkpt lat="38.810251" lon="-0.556490">
        <ele>601.267</ele>
        <time>2020-10-06T20:05:44Z</time>
      </trkpt>
      <trkpt lat="38.810237" lon="-0.556487">
        <ele>601.285</ele>
        <time>2020-10-06T20:05:45Z</time>
      </trkpt>
      <trkpt lat="38.810117" lon="-0.556495">
        <ele>602.292</ele>
        <time>2020-10-06T20:05:54Z</time>
      </trkpt>
      <trkpt lat="38.810076" lon="-0.556497">
        <ele>602.698</ele>
        <time>2020-10-06T20:05:57Z</time>
      </trkpt>
      <trkpt lat="38.810064" lon="-0.556501">
        <ele>602.892</ele>
        <time>2020-10-06T20:05:58Z</time>
      </trkpt>
      <trkpt lat="38.810002" lon="-0.556503">
        <ele>603.486</ele>
        <time>2020-10-06T20:06:03Z</time>
      </trkpt>
      <trkpt lat="38.809938" lon="-0.556517">
        <ele>604.272</ele>
        <time>2020-10-06T20:06:08Z</time>
      </trkpt>
      <trkpt lat="38.809927" lon="-0.556520">
        <ele>604.413</ele>
        <time>2020-10-06T20:06:09Z</time>
      </trkpt>
      <trkpt lat="38.809832" lon="-0.556528">
        <ele>605.414</ele>
        <time>2020-10-06T20:06:16Z</time>
      </trkpt>
      <trkpt lat="38.809804" lon="-0.556529">
        <ele>605.808</ele>
        <time>2020-10-06T20:06:18Z</time>
      </trkpt>
      <trkpt lat="38.809736" lon="-0.556554">
        <ele>606.462</ele>
        <time>2020-10-06T20:06:24Z</time>
      </trkpt>
      <trkpt lat="38.809721" lon="-0.556556">
        <ele>606.655</ele>
        <time>2020-10-06T20:06:25Z</time>
      </trkpt>
      <trkpt lat="38.809672" lon="-0.556583">
        <ele>607.077</ele>
        <time>2020-10-06T20:06:29Z</time>
      </trkpt>
      <trkpt lat="38.809631" lon="-0.556610">
        <ele>607.655</ele>
        <time>2020-10-06T20:06:33Z</time>
      </trkpt>
      <trkpt lat="38.809595" lon="-0.556641">
        <ele>608.262</ele>
        <time>2020-10-06T20:06:37Z</time>
      </trkpt>
      <trkpt lat="38.809570" lon="-0.556656">
        <ele>608.898</ele>
        <time>2020-10-06T20:06:39Z</time>
      </trkpt>
      <trkpt lat="38.809457" lon="-0.556742">
        <ele>609.642</ele>
        <time>2020-10-06T20:06:48Z</time>
      </trkpt>
      <trkpt lat="38.809449" lon="-0.556750">
        <ele>609.846</ele>
        <time>2020-10-06T20:06:49Z</time>
      </trkpt>
      <trkpt lat="38.809427" lon="-0.556769">
        <ele>609.861</ele>
        <time>2020-10-06T20:06:51Z</time>
      </trkpt>
      <trkpt lat="38.809320" lon="-0.556846">
        <ele>610.621</ele>
        <time>2020-10-06T20:07:00Z</time>
      </trkpt>
      <trkpt lat="38.809307" lon="-0.556856">
        <ele>610.813</ele>
        <time>2020-10-06T20:07:01Z</time>
      </trkpt>
      <trkpt lat="38.809199" lon="-0.556914">
        <ele>611.808</ele>
        <time>2020-10-06T20:07:09Z</time>
      </trkpt>
      <trkpt lat="38.809107" lon="-0.556941">
        <ele>612.851</ele>
        <time>2020-10-06T20:07:16Z</time>
      </trkpt>
      <trkpt lat="38.809068" lon="-0.556945">
        <ele>613.424</ele>
        <time>2020-10-06T20:07:19Z</time>
      </trkpt>
      <trkpt lat="38.809018" lon="-0.556956">
        <ele>613.846</ele>
        <time>2020-10-06T20:07:23Z</time>
      </trkpt>
      <trkpt lat="38.808969" lon="-0.556955">
        <ele>614.694</ele>
        <time>2020-10-06T20:07:27Z</time>
      </trkpt>
      <trkpt lat="38.808947" lon="-0.556959">
        <ele>615.021</ele>
        <time>2020-10-06T20:07:29Z</time>
      </trkpt>
      <trkpt lat="38.808861" lon="-0.556971">
        <ele>615.847</ele>
        <time>2020-10-06T20:07:36Z</time>
      </trkpt>
      <trkpt lat="38.808851" lon="-0.556974">
        <ele>616.061</ele>
        <time>2020-10-06T20:07:37Z</time>
      </trkpt>
      <trkpt lat="38.808761" lon="-0.556989">
        <ele>617.285</ele>
        <time>2020-10-06T20:07:44Z</time>
      </trkpt>
      <trkpt lat="38.808713" lon="-0.556994">
        <ele>617.675</ele>
        <time>2020-10-06T20:07:48Z</time>
      </trkpt>
      <trkpt lat="38.808678" lon="-0.557002">
        <ele>618.228</ele>
        <time>2020-10-06T20:07:51Z</time>
      </trkpt>
      <trkpt lat="38.808579" lon="-0.557013">
        <ele>619.220</ele>
        <time>2020-10-06T20:07:58Z</time>
      </trkpt>
      <trkpt lat="38.808516" lon="-0.557039">
        <ele>620.208</ele>
        <time>2020-10-06T20:08:04Z</time>
      </trkpt>
      <trkpt lat="38.808466" lon="-0.557041">
        <ele>620.842</ele>
        <time>2020-10-06T20:08:08Z</time>
      </trkpt>
      <trkpt lat="38.808421" lon="-0.557044">
        <ele>621.425</ele>
        <time>2020-10-06T20:08:12Z</time>
      </trkpt>
      <trkpt lat="38.808364" lon="-0.557056">
        <ele>622.297</ele>
        <time>2020-10-06T20:08:17Z</time>
      </trkpt>
      <trkpt lat="38.808337" lon="-0.557062">
        <ele>622.435</ele>
        <time>2020-10-06T20:08:20Z</time>
      </trkpt>
      <trkpt lat="38.808277" lon="-0.557092">
        <ele>623.452</ele>
        <time>2020-10-06T20:08:26Z</time>
      </trkpt>
      <trkpt lat="38.808264" lon="-0.557091">
        <ele>623.698</ele>
        <time>2020-10-06T20:08:27Z</time>
      </trkpt>
      <trkpt lat="38.808174" lon="-0.557088">
        <ele>624.892</ele>
        <time>2020-10-06T20:08:34Z</time>
      </trkpt>
      <trkpt lat="38.808129" lon="-0.557088">
        <ele>625.266</ele>
        <time>2020-10-06T20:08:37Z</time>
      </trkpt>
      <trkpt lat="38.808006" lon="-0.557100">
        <ele>625.223</ele>
        <time>2020-10-06T20:08:43Z</time>
      </trkpt>
      <trkpt lat="38.807839" lon="-0.557149">
        <ele>625.283</ele>
        <time>2020-10-06T20:08:51Z</time>
      </trkpt>
      <trkpt lat="38.807690" lon="-0.557228">
        <ele>625.411</ele>
        <time>2020-10-06T20:08:59Z</time>
      </trkpt>
      <trkpt lat="38.807608" lon="-0.557279">
        <ele>625.608</ele>
        <time>2020-10-06T20:09:03Z</time>
      </trkpt>
      <trkpt lat="38.807555" lon="-0.557318">
        <ele>625.877</ele>
        <time>2020-10-06T20:09:06Z</time>
      </trkpt>
      <trkpt lat="38.807539" lon="-0.557329">
        <ele>625.870</ele>
        <time>2020-10-06T20:09:07Z</time>
      </trkpt>
      <trkpt lat="38.807525" lon="-0.557339">
        <ele>626.022</ele>
        <time>2020-10-06T20:09:08Z</time>
      </trkpt>
      <trkpt lat="38.807487" lon="-0.557367">
        <ele>626.210</ele>
        <time>2020-10-06T20:09:11Z</time>
      </trkpt>
      <trkpt lat="38.807410" lon="-0.557421">
        <ele>627.067</ele>
        <time>2020-10-06T20:09:17Z</time>
      </trkpt>
      <trkpt lat="38.807398" lon="-0.557424">
        <ele>627.293</ele>
        <time>2020-10-06T20:09:18Z</time>
      </trkpt>
      <trkpt lat="38.807316" lon="-0.557457">
        <ele>628.217</ele>
        <time>2020-10-06T20:09:24Z</time>
      </trkpt>
      <trkpt lat="38.807268" lon="-0.557455">
        <ele>628.841</ele>
        <time>2020-10-06T20:09:28Z</time>
      </trkpt>
      <trkpt lat="38.807228" lon="-0.557454">
        <ele>629.423</ele>
        <time>2020-10-06T20:09:31Z</time>
      </trkpt>
      <trkpt lat="38.807145" lon="-0.557433">
        <ele>630.483</ele>
        <time>2020-10-06T20:09:38Z</time>
      </trkpt>
      <trkpt lat="38.807114" lon="-0.557419">
        <ele>631.011</ele>
        <time>2020-10-06T20:09:41Z</time>
      </trkpt>
      <trkpt lat="38.807080" lon="-0.557394">
        <ele>631.608</ele>
        <time>2020-10-06T20:09:44Z</time>
      </trkpt>
      <trkpt lat="38.807003" lon="-0.557338">
        <ele>632.677</ele>
        <time>2020-10-06T20:09:51Z</time>
      </trkpt>
      <trkpt lat="38.806993" lon="-0.557333">
        <ele>632.830</ele>
        <time>2020-10-06T20:09:52Z</time>
      </trkpt>
      <trkpt lat="38.806954" lon="-0.557297">
        <ele>633.652</ele>
        <time>2020-10-06T20:09:56Z</time>
      </trkpt>
      <trkpt lat="38.806913" lon="-0.557252">
        <ele>634.250</ele>
        <time>2020-10-06T20:10:00Z</time>
      </trkpt>
      <trkpt lat="38.806860" lon="-0.557194">
        <ele>634.827</ele>
        <time>2020-10-06T20:10:05Z</time>
      </trkpt>
      <trkpt lat="38.806823" lon="-0.557149">
        <ele>635.683</ele>
        <time>2020-10-06T20:10:09Z</time>
      </trkpt>
      <trkpt lat="38.806816" lon="-0.557139">
        <ele>635.887</ele>
        <time>2020-10-06T20:10:10Z</time>
      </trkpt>
      <trkpt lat="38.806749" lon="-0.557090">
        <ele>637.061</ele>
        <time>2020-10-06T20:10:16Z</time>
      </trkpt>
      <trkpt lat="38.806727" lon="-0.557067">
        <ele>637.615</ele>
        <time>2020-10-06T20:10:19Z</time>
      </trkpt>
      <trkpt lat="38.806685" lon="-0.557017">
        <ele>638.065</ele>
        <time>2020-10-06T20:10:24Z</time>
      </trkpt>
      <trkpt lat="38.806632" lon="-0.556960">
        <ele>638.611</ele>
        <time>2020-10-06T20:10:29Z</time>
      </trkpt>
      <trkpt lat="38.806603" lon="-0.556920">
        <ele>639.008</ele>
        <time>2020-10-06T20:10:32Z</time>
      </trkpt>
      <trkpt lat="38.806532" lon="-0.556875">
        <ele>639.856</ele>
        <time>2020-10-06T20:10:38Z</time>
      </trkpt>
      <trkpt lat="38.806487" lon="-0.556878">
        <ele>640.229</ele>
        <time>2020-10-06T20:10:41Z</time>
      </trkpt>
      <trkpt lat="38.806435" lon="-0.556907">
        <ele>640.831</ele>
        <time>2020-10-06T20:10:45Z</time>
      </trkpt>
      <trkpt lat="38.806398" lon="-0.556922">
        <ele>641.469</ele>
        <time>2020-10-06T20:10:48Z</time>
      </trkpt>
      <trkpt lat="38.806349" lon="-0.556955">
        <ele>641.846</ele>
        <time>2020-10-06T20:10:53Z</time>
      </trkpt>
      <trkpt lat="38.806307" lon="-0.556979">
        <ele>642.422</ele>
        <time>2020-10-06T20:10:57Z</time>
      </trkpt>
      <trkpt lat="38.806277" lon="-0.556997">
        <ele>643.056</ele>
        <time>2020-10-06T20:11:01Z</time>
      </trkpt>
      <trkpt lat="38.806253" lon="-0.557019">
        <ele>643.430</ele>
        <time>2020-10-06T20:11:04Z</time>
      </trkpt>
      <trkpt lat="38.806197" lon="-0.557062">
        <ele>644.616</ele>
        <time>2020-10-06T20:11:11Z</time>
      </trkpt>
      <trkpt lat="38.806190" lon="-0.557066">
        <ele>644.676</ele>
        <time>2020-10-06T20:11:12Z</time>
      </trkpt>
      <trkpt lat="38.806135" lon="-0.557107">
        <ele>645.613</ele>
        <time>2020-10-06T20:11:19Z</time>
      </trkpt>
      <trkpt lat="38.806129" lon="-0.557112">
        <ele>645.808</ele>
        <time>2020-10-06T20:11:20Z</time>
      </trkpt>
      <trkpt lat="38.806073" lon="-0.557158">
        <ele>646.896</ele>
        <time>2020-10-06T20:11:26Z</time>
      </trkpt>
      <trkpt lat="38.806052" lon="-0.557163">
        <ele>647.259</ele>
        <time>2020-10-06T20:11:28Z</time>
      </trkpt>
      <trkpt lat="38.806008" lon="-0.557167">
        <ele>647.851</ele>
        <time>2020-10-06T20:11:32Z</time>
      </trkpt>
      <trkpt lat="38.805941" lon="-0.557157">
        <ele>649.069</ele>
        <time>2020-10-06T20:11:38Z</time>
      </trkpt>
      <trkpt lat="38.805891" lon="-0.557135">
        <ele>650.066</ele>
        <time>2020-10-06T20:11:43Z</time>
      </trkpt>
      <trkpt lat="38.805848" lon="-0.557113">
        <ele>650.842</ele>
        <time>2020-10-06T20:11:47Z</time>
      </trkpt>
      <trkpt lat="38.805832" lon="-0.557105">
        <ele>651.286</ele>
        <time>2020-10-06T20:11:49Z</time>
      </trkpt>
      <trkpt lat="38.805778" lon="-0.557057">
        <ele>652.030</ele>
        <time>2020-10-06T20:11:55Z</time>
      </trkpt>
      <trkpt lat="38.805769" lon="-0.557055">
        <ele>652.214</ele>
        <time>2020-10-06T20:11:56Z</time>
      </trkpt>
      <trkpt lat="38.805705" lon="-0.557055">
        <ele>653.054</ele>
        <time>2020-10-06T20:12:02Z</time>
      </trkpt>
      <trkpt lat="38.805695" lon="-0.557060">
        <ele>653.209</ele>
        <time>2020-10-06T20:12:03Z</time>
      </trkpt>
      <trkpt lat="38.805638" lon="-0.557102">
        <ele>654.208</ele>
        <time>2020-10-06T20:12:08Z</time>
      </trkpt>
      <trkpt lat="38.805620" lon="-0.557129">
        <ele>654.666</ele>
        <time>2020-10-06T20:12:11Z</time>
      </trkpt>
      <trkpt lat="38.805601" lon="-0.557165">
        <ele>655.049</ele>
        <time>2020-10-06T20:12:14Z</time>
      </trkpt>
      <trkpt lat="38.805585" lon="-0.557217">
        <ele>655.471</ele>
        <time>2020-10-06T20:12:18Z</time>
      </trkpt>
      <trkpt lat="38.805566" lon="-0.557256">
        <ele>656.029</ele>
        <time>2020-10-06T20:12:21Z</time>
      </trkpt>
      <trkpt lat="38.805557" lon="-0.557306">
        <ele>656.616</ele>
        <time>2020-10-06T20:12:24Z</time>
      </trkpt>
      <trkpt lat="38.805544" lon="-0.557456">
        <ele>657.662</ele>
        <time>2020-10-06T20:12:32Z</time>
      </trkpt>
      <trkpt lat="38.805539" lon="-0.557488">
        <ele>658.066</ele>
        <time>2020-10-06T20:12:34Z</time>
      </trkpt>
      <trkpt lat="38.805538" lon="-0.557570">
        <ele>658.880</ele>
        <time>2020-10-06T20:12:39Z</time>
      </trkpt>
      <trkpt lat="38.805532" lon="-0.557652">
        <ele>659.271</ele>
        <time>2020-10-06T20:12:43Z</time>
      </trkpt>
      <trkpt lat="38.805522" lon="-0.557739">
        <ele>659.841</ele>
        <time>2020-10-06T20:12:48Z</time>
      </trkpt>
      <trkpt lat="38.805511" lon="-0.557835">
        <ele>660.215</ele>
        <time>2020-10-06T20:12:53Z</time>
      </trkpt>
      <trkpt lat="38.805472" lon="-0.557983">
        <ele>661.008</ele>
        <time>2020-10-06T20:13:01Z</time>
      </trkpt>
      <trkpt lat="38.805450" lon="-0.558038">
        <ele>661.472</ele>
        <time>2020-10-06T20:13:04Z</time>
      </trkpt>
      <trkpt lat="38.805419" lon="-0.558127">
        <ele>662.075</ele>
        <time>2020-10-06T20:13:09Z</time>
      </trkpt>
      <trkpt lat="38.805405" lon="-0.558171">
        <ele>662.647</ele>
        <time>2020-10-06T20:13:12Z</time>
      </trkpt>
      <trkpt lat="38.805393" lon="-0.558205">
        <ele>662.895</ele>
        <time>2020-10-06T20:13:14Z</time>
      </trkpt>
      <trkpt lat="38.805374" lon="-0.558250">
        <ele>663.292</ele>
        <time>2020-10-06T20:13:17Z</time>
      </trkpt>
      <trkpt lat="38.805345" lon="-0.558312">
        <ele>664.058</ele>
        <time>2020-10-06T20:13:21Z</time>
      </trkpt>
      <trkpt lat="38.805326" lon="-0.558345">
        <ele>664.222</ele>
        <time>2020-10-06T20:13:23Z</time>
      </trkpt>
      <trkpt lat="38.805281" lon="-0.558460">
        <ele>665.266</ele>
        <time>2020-10-06T20:13:30Z</time>
      </trkpt>
      <trkpt lat="38.805219" lon="-0.558585">
        <ele>666.444</ele>
        <time>2020-10-06T20:13:38Z</time>
      </trkpt>
      <trkpt lat="38.805213" lon="-0.558605">
        <ele>666.605</ele>
        <time>2020-10-06T20:13:39Z</time>
      </trkpt>
      <trkpt lat="38.805158" lon="-0.558731">
        <ele>667.415</ele>
        <time>2020-10-06T20:13:47Z</time>
      </trkpt>
      <trkpt lat="38.805143" lon="-0.558749">
        <ele>667.408</ele>
        <time>2020-10-06T20:13:48Z</time>
      </trkpt>
      <trkpt lat="38.805080" lon="-0.558882">
        <ele>668.619</ele>
        <time>2020-10-06T20:13:56Z</time>
      </trkpt>
      <trkpt lat="38.805067" lon="-0.558918">
        <ele>668.862</ele>
        <time>2020-10-06T20:13:58Z</time>
      </trkpt>
      <trkpt lat="38.804994" lon="-0.559097">
        <ele>669.644</ele>
        <time>2020-10-06T20:14:08Z</time>
      </trkpt>
      <trkpt lat="38.804969" lon="-0.559159">
        <ele>669.822</ele>
        <time>2020-10-06T20:14:12Z</time>
      </trkpt>
      <trkpt lat="38.804917" lon="-0.559243">
        <ele>670.489</ele>
        <time>2020-10-06T20:14:17Z</time>
      </trkpt>
      <trkpt lat="38.804898" lon="-0.559280">
        <ele>670.875</ele>
        <time>2020-10-06T20:14:19Z</time>
      </trkpt>
      <trkpt lat="38.804825" lon="-0.559403">
        <ele>671.669</ele>
        <time>2020-10-06T20:14:26Z</time>
      </trkpt>
      <trkpt lat="38.804799" lon="-0.559436">
        <ele>671.823</ele>
        <time>2020-10-06T20:14:28Z</time>
      </trkpt>
      <trkpt lat="38.804784" lon="-0.559453">
        <ele>672.069</ele>
        <time>2020-10-06T20:14:29Z</time>
      </trkpt>
      <trkpt lat="38.804657" lon="-0.559596">
        <ele>673.004</ele>
        <time>2020-10-06T20:14:38Z</time>
      </trkpt>
      <trkpt lat="38.804626" lon="-0.559622">
        <ele>673.224</ele>
        <time>2020-10-06T20:14:40Z</time>
      </trkpt>
      <trkpt lat="38.804514" lon="-0.559715">
        <ele>673.808</ele>
        <time>2020-10-06T20:14:47Z</time>
      </trkpt>
      <trkpt lat="38.804476" lon="-0.559741">
        <ele>674.081</ele>
        <time>2020-10-06T20:14:49Z</time>
      </trkpt>
      <trkpt lat="38.804445" lon="-0.559769">
        <ele>674.294</ele>
        <time>2020-10-06T20:14:51Z</time>
      </trkpt>
      <trkpt lat="38.804303" lon="-0.559857">
        <ele>674.876</ele>
        <time>2020-10-06T20:14:59Z</time>
      </trkpt>
      <trkpt lat="38.804266" lon="-0.559882">
        <ele>675.054</ele>
        <time>2020-10-06T20:15:01Z</time>
      </trkpt>
      <trkpt lat="38.804249" lon="-0.559895">
        <ele>675.271</ele>
        <time>2020-10-06T20:15:02Z</time>
      </trkpt>
      <trkpt lat="38.804161" lon="-0.559945">
        <ele>675.667</ele>
        <time>2020-10-06T20:15:07Z</time>
      </trkpt>
      <trkpt lat="38.804044" lon="-0.559921">
        <ele>675.851</ele>
        <time>2020-10-06T20:15:13Z</time>
      </trkpt>
      <trkpt lat="38.804024" lon="-0.559912">
        <ele>676.015</ele>
        <time>2020-10-06T20:15:14Z</time>
      </trkpt>
      <trkpt lat="38.803971" lon="-0.559795">
        <ele>675.831</ele>
        <time>2020-10-06T20:15:19Z</time>
      </trkpt>
      <trkpt lat="38.803947" lon="-0.559592">
        <ele>675.861</ele>
        <time>2020-10-06T20:15:25Z</time>
      </trkpt>
      <trkpt lat="38.803942" lon="-0.559551">
        <ele>675.807</ele>
        <time>2020-10-06T20:15:26Z</time>
      </trkpt>
      <trkpt lat="38.803842" lon="-0.559278">
        <ele>675.808</ele>
        <time>2020-10-06T20:15:33Z</time>
      </trkpt>
      <trkpt lat="38.803819" lon="-0.559213">
        <ele>675.698</ele>
        <time>2020-10-06T20:15:34Z</time>
      </trkpt>
      <trkpt lat="38.803792" lon="-0.559087">
        <ele>675.211</ele>
        <time>2020-10-06T20:15:36Z</time>
      </trkpt>
      <trkpt lat="38.803779" lon="-0.558993">
        <ele>674.623</ele>
        <time>2020-10-06T20:15:37Z</time>
      </trkpt>
      <trkpt lat="38.803772" lon="-0.558824">
        <ele>673.881</ele>
        <time>2020-10-06T20:15:39Z</time>
      </trkpt>
      <trkpt lat="38.803778" lon="-0.558560">
        <ele>673.068</ele>
        <time>2020-10-06T20:15:42Z</time>
      </trkpt>
      <trkpt lat="38.803773" lon="-0.558487">
        <ele>672.814</ele>
        <time>2020-10-06T20:15:43Z</time>
      </trkpt>
      <trkpt lat="38.803752" lon="-0.558183">
        <ele>671.898</ele>
        <time>2020-10-06T20:15:46Z</time>
      </trkpt>
      <trkpt lat="38.803744" lon="-0.558088">
        <ele>671.472</ele>
        <time>2020-10-06T20:15:47Z</time>
      </trkpt>
      <trkpt lat="38.803697" lon="-0.557695">
        <ele>671.448</ele>
        <time>2020-10-06T20:15:52Z</time>
      </trkpt>
      <trkpt lat="38.803645" lon="-0.557506">
        <ele>672.061</ele>
        <time>2020-10-06T20:15:56Z</time>
      </trkpt>
      <trkpt lat="38.803551" lon="-0.557261">
        <ele>672.417</ele>
        <time>2020-10-06T20:16:02Z</time>
      </trkpt>
      <trkpt lat="38.803534" lon="-0.557184">
        <ele>672.408</ele>
        <time>2020-10-06T20:16:04Z</time>
      </trkpt>
      <trkpt lat="38.803486" lon="-0.556961">
        <ele>672.889</ele>
        <time>2020-10-06T20:16:09Z</time>
      </trkpt>
      <trkpt lat="38.803475" lon="-0.556784">
        <ele>672.652</ele>
        <time>2020-10-06T20:16:13Z</time>
      </trkpt>
      <trkpt lat="38.803502" lon="-0.556665">
        <ele>672.464</ele>
        <time>2020-10-06T20:16:15Z</time>
      </trkpt>
      <trkpt lat="38.803579" lon="-0.556483">
        <ele>671.682</ele>
        <time>2020-10-06T20:16:18Z</time>
      </trkpt>
      <trkpt lat="38.803730" lon="-0.556100">
        <ele>671.069</ele>
        <time>2020-10-06T20:16:25Z</time>
      </trkpt>
      <trkpt lat="38.803869" lon="-0.555889">
        <ele>670.455</ele>
        <time>2020-10-06T20:16:29Z</time>
      </trkpt>
      <trkpt lat="38.803962" lon="-0.555761">
        <ele>669.819</ele>
        <time>2020-10-06T20:16:31Z</time>
      </trkpt>
      <trkpt lat="38.804068" lon="-0.555608">
        <ele>669.243</ele>
        <time>2020-10-06T20:16:33Z</time>
      </trkpt>
      <trkpt lat="38.804352" lon="-0.555204">
        <ele>668.273</ele>
        <time>2020-10-06T20:16:39Z</time>
      </trkpt>
      <trkpt lat="38.804499" lon="-0.554930">
        <ele>668.285</ele>
        <time>2020-10-06T20:16:43Z</time>
      </trkpt>
      <trkpt lat="38.804522" lon="-0.554860">
        <ele>668.413</ele>
        <time>2020-10-06T20:16:44Z</time>
      </trkpt>
      <trkpt lat="38.804601" lon="-0.554472">
        <ele>668.808</ele>
        <time>2020-10-06T20:16:50Z</time>
      </trkpt>
      <trkpt lat="38.804639" lon="-0.554146">
        <ele>669.432</ele>
        <time>2020-10-06T20:16:55Z</time>
      </trkpt>
      <trkpt lat="38.804666" lon="-0.553885">
        <ele>669.655</ele>
        <time>2020-10-06T20:16:59Z</time>
      </trkpt>
      <trkpt lat="38.804776" lon="-0.553383">
        <ele>669.687</ele>
        <time>2020-10-06T20:17:07Z</time>
      </trkpt>
      <trkpt lat="38.804838" lon="-0.553164">
        <ele>670.055</ele>
        <time>2020-10-06T20:17:11Z</time>
      </trkpt>
      <trkpt lat="38.804858" lon="-0.553084">
        <ele>670.452</ele>
        <time>2020-10-06T20:17:13Z</time>
      </trkpt>
      <trkpt lat="38.804874" lon="-0.553033">
        <ele>670.668</ele>
        <time>2020-10-06T20:17:14Z</time>
      </trkpt>
      <trkpt lat="38.804943" lon="-0.552744">
        <ele>671.042</ele>
        <time>2020-10-06T20:17:21Z</time>
      </trkpt>
      <trkpt lat="38.804955" lon="-0.552665">
        <ele>671.286</ele>
        <time>2020-10-06T20:17:23Z</time>
      </trkpt>
      <trkpt lat="38.804971" lon="-0.552588">
        <ele>671.453</ele>
        <time>2020-10-06T20:17:25Z</time>
      </trkpt>
      <trkpt lat="38.804992" lon="-0.552434">
        <ele>671.604</ele>
        <time>2020-10-06T20:17:29Z</time>
      </trkpt>
      <trkpt lat="38.804991" lon="-0.552300">
        <ele>671.614</ele>
        <time>2020-10-06T20:17:32Z</time>
      </trkpt>
      <trkpt lat="38.805012" lon="-0.551955">
        <ele>671.608</ele>
        <time>2020-10-06T20:17:39Z</time>
      </trkpt>
      <trkpt lat="38.805019" lon="-0.551840">
        <ele>671.070</ele>
        <time>2020-10-06T20:17:41Z</time>
      </trkpt>
      <trkpt lat="38.805037" lon="-0.551722">
        <ele>671.023</ele>
        <time>2020-10-06T20:17:43Z</time>
      </trkpt>
      <trkpt lat="38.805065" lon="-0.551593">
        <ele>671.035</ele>
        <time>2020-10-06T20:17:45Z</time>
      </trkpt>
      <trkpt lat="38.805083" lon="-0.551527">
        <ele>671.093</ele>
        <time>2020-10-06T20:17:46Z</time>
      </trkpt>
      <trkpt lat="38.805123" lon="-0.551405">
        <ele>671.030</ele>
        <time>2020-10-06T20:17:48Z</time>
      </trkpt>
      <trkpt lat="38.805217" lon="-0.551211">
        <ele>671.436</ele>
        <time>2020-10-06T20:17:52Z</time>
      </trkpt>
      <trkpt lat="38.805340" lon="-0.551023">
        <ele>672.080</ele>
        <time>2020-10-06T20:17:58Z</time>
      </trkpt>
      <trkpt lat="38.805371" lon="-0.550910">
        <ele>672.664</ele>
        <time>2020-10-06T20:18:01Z</time>
      </trkpt>
      <trkpt lat="38.805386" lon="-0.550837">
        <ele>673.036</ele>
        <time>2020-10-06T20:18:03Z</time>
      </trkpt>
      <trkpt lat="38.805402" lon="-0.550654">
        <ele>673.617</ele>
        <time>2020-10-06T20:18:08Z</time>
      </trkpt>
      <trkpt lat="38.805416" lon="-0.550457">
        <ele>673.618</ele>
        <time>2020-10-06T20:18:13Z</time>
      </trkpt>
      <trkpt lat="38.805513" lon="-0.550190">
        <ele>673.808</ele>
        <time>2020-10-06T20:18:20Z</time>
      </trkpt>
      <trkpt lat="38.805596" lon="-0.550020">
        <ele>674.488</ele>
        <time>2020-10-06T20:18:25Z</time>
      </trkpt>
      <trkpt lat="38.805670" lon="-0.549898">
        <ele>674.651</ele>
        <time>2020-10-06T20:18:29Z</time>
      </trkpt>
      <trkpt lat="38.805795" lon="-0.549593">
        <ele>675.033</ele>
        <time>2020-10-06T20:18:38Z</time>
      </trkpt>
      <trkpt lat="38.805886" lon="-0.549271">
        <ele>675.441</ele>
        <time>2020-10-06T20:18:47Z</time>
      </trkpt>
      <trkpt lat="38.805907" lon="-0.548965">
        <ele>675.618</ele>
        <time>2020-10-06T20:18:54Z</time>
      </trkpt>
      <trkpt lat="38.805875" lon="-0.548765">
        <ele>675.614</ele>
        <time>2020-10-06T20:18:59Z</time>
      </trkpt>
      <trkpt lat="38.805849" lon="-0.548646">
        <ele>676.018</ele>
        <time>2020-10-06T20:19:02Z</time>
      </trkpt>
      <trkpt lat="38.805791" lon="-0.548278">
        <ele>676.062</ele>
        <time>2020-10-06T20:19:11Z</time>
      </trkpt>
      <trkpt lat="38.805774" lon="-0.548123">
        <ele>676.279</ele>
        <time>2020-10-06T20:19:15Z</time>
      </trkpt>
      <trkpt lat="38.805748" lon="-0.547995">
        <ele>676.805</ele>
        <time>2020-10-06T20:19:19Z</time>
      </trkpt>
      <trkpt lat="38.805741" lon="-0.547965">
        <ele>676.825</ele>
        <time>2020-10-06T20:19:20Z</time>
      </trkpt>
      <trkpt lat="38.805697" lon="-0.547776">
        <ele>678.008</ele>
        <time>2020-10-06T20:19:26Z</time>
      </trkpt>
      <trkpt lat="38.805682" lon="-0.547717">
        <ele>678.482</ele>
        <time>2020-10-06T20:19:28Z</time>
      </trkpt>
      <trkpt lat="38.805640" lon="-0.547569">
        <ele>679.055</ele>
        <time>2020-10-06T20:19:34Z</time>
      </trkpt>
      <trkpt lat="38.805627" lon="-0.547485">
        <ele>679.277</ele>
        <time>2020-10-06T20:19:37Z</time>
      </trkpt>
      <trkpt lat="38.805630" lon="-0.547392">
        <ele>679.225</ele>
        <time>2020-10-06T20:19:40Z</time>
      </trkpt>
      <trkpt lat="38.805659" lon="-0.547163">
        <ele>679.682</ele>
        <time>2020-10-06T20:19:47Z</time>
      </trkpt>
      <trkpt lat="38.805678" lon="-0.546956">
        <ele>679.888</ele>
        <time>2020-10-06T20:19:53Z</time>
      </trkpt>
      <trkpt lat="38.805685" lon="-0.546821">
        <ele>680.062</ele>
        <time>2020-10-06T20:19:57Z</time>
      </trkpt>
      <trkpt lat="38.805721" lon="-0.546559">
        <ele>680.876</ele>
        <time>2020-10-06T20:20:05Z</time>
      </trkpt>
      <trkpt lat="38.805733" lon="-0.546498">
        <ele>681.049</ele>
        <time>2020-10-06T20:20:07Z</time>
      </trkpt>
      <trkpt lat="38.805756" lon="-0.546292">
        <ele>681.202</ele>
        <time>2020-10-06T20:20:13Z</time>
      </trkpt>
      <trkpt lat="38.805755" lon="-0.545906">
        <ele>681.222</ele>
        <time>2020-10-06T20:20:22Z</time>
      </trkpt>
      <trkpt lat="38.805741" lon="-0.545524">
        <ele>681.208</ele>
        <time>2020-10-06T20:20:31Z</time>
      </trkpt>
      <trkpt lat="38.805733" lon="-0.545336">
        <ele>681.249</ele>
        <time>2020-10-06T20:20:35Z</time>
      </trkpt>
      <trkpt lat="38.805729" lon="-0.545195">
        <ele>681.272</ele>
        <time>2020-10-06T20:20:38Z</time>
      </trkpt>
      <trkpt lat="38.805733" lon="-0.545150">
        <ele>681.254</ele>
        <time>2020-10-06T20:20:39Z</time>
      </trkpt>
      <trkpt lat="38.805749" lon="-0.545024">
        <ele>681.232</ele>
        <time>2020-10-06T20:20:42Z</time>
      </trkpt>
      <trkpt lat="38.805776" lon="-0.544869">
        <ele>681.629</ele>
        <time>2020-10-06T20:20:46Z</time>
      </trkpt>
      <trkpt lat="38.805804" lon="-0.544655">
        <ele>682.045</ele>
        <time>2020-10-06T20:20:52Z</time>
      </trkpt>
      <trkpt lat="38.805849" lon="-0.544416">
        <ele>682.689</ele>
        <time>2020-10-06T20:20:59Z</time>
      </trkpt>
      <trkpt lat="38.805872" lon="-0.544307">
        <ele>682.683</ele>
        <time>2020-10-06T20:21:02Z</time>
      </trkpt>
      <trkpt lat="38.805885" lon="-0.544237">
        <ele>682.831</ele>
        <time>2020-10-06T20:21:04Z</time>
      </trkpt>
      <trkpt lat="38.805891" lon="-0.544163">
        <ele>683.061</ele>
        <time>2020-10-06T20:21:06Z</time>
      </trkpt>
      <trkpt lat="38.805902" lon="-0.544089">
        <ele>683.207</ele>
        <time>2020-10-06T20:21:08Z</time>
      </trkpt>
      <trkpt lat="38.805967" lon="-0.543799">
        <ele>683.608</ele>
        <time>2020-10-06T20:21:16Z</time>
      </trkpt>
      <trkpt lat="38.806085" lon="-0.543543">
        <ele>684.038</ele>
        <time>2020-10-06T20:21:24Z</time>
      </trkpt>
      <trkpt lat="38.806113" lon="-0.543484">
        <ele>684.221</ele>
        <time>2020-10-06T20:21:26Z</time>
      </trkpt>
      <trkpt lat="38.806214" lon="-0.543275">
        <ele>684.063</ele>
        <time>2020-10-06T20:21:32Z</time>
      </trkpt>
      <trkpt lat="38.806369" lon="-0.542991">
        <ele>684.281</ele>
        <time>2020-10-06T20:21:40Z</time>
      </trkpt>
      <trkpt lat="38.806466" lon="-0.542741">
        <ele>684.468</ele>
        <time>2020-10-06T20:21:47Z</time>
      </trkpt>
      <trkpt lat="38.806629" lon="-0.542430">
        <ele>684.434</ele>
        <time>2020-10-06T20:21:56Z</time>
      </trkpt>
      <trkpt lat="38.806787" lon="-0.542122">
        <ele>685.048</ele>
        <time>2020-10-06T20:22:05Z</time>
      </trkpt>
      <trkpt lat="38.806818" lon="-0.542047">
        <ele>685.272</ele>
        <time>2020-10-06T20:22:07Z</time>
      </trkpt>
      <trkpt lat="38.806868" lon="-0.541948">
        <ele>685.466</ele>
        <time>2020-10-06T20:22:11Z</time>
      </trkpt>
      <trkpt lat="38.806959" lon="-0.541789">
        <ele>685.829</ele>
        <time>2020-10-06T20:22:16Z</time>
      </trkpt>
      <trkpt lat="38.806992" lon="-0.541725">
        <ele>686.021</ele>
        <time>2020-10-06T20:22:18Z</time>
      </trkpt>
      <trkpt lat="38.807023" lon="-0.541669">
        <ele>686.208</ele>
        <time>2020-10-06T20:22:20Z</time>
      </trkpt>
      <trkpt lat="38.807101" lon="-0.541511">
        <ele>687.481</ele>
        <time>2020-10-06T20:22:26Z</time>
      </trkpt>
      <trkpt lat="38.807131" lon="-0.541457">
        <ele>687.694</ele>
        <time>2020-10-06T20:22:28Z</time>
      </trkpt>
      <trkpt lat="38.807178" lon="-0.541353">
        <ele>688.436</ele>
        <time>2020-10-06T20:22:32Z</time>
      </trkpt>
      <trkpt lat="38.807227" lon="-0.541261">
        <ele>689.224</ele>
        <time>2020-10-06T20:22:36Z</time>
      </trkpt>
      <trkpt lat="38.807249" lon="-0.541220">
        <ele>689.671</ele>
        <time>2020-10-06T20:22:38Z</time>
      </trkpt>
      <trkpt lat="38.807298" lon="-0.541097">
        <ele>690.677</ele>
        <time>2020-10-06T20:22:44Z</time>
      </trkpt>
      <trkpt lat="38.807317" lon="-0.541053">
        <ele>691.031</ele>
        <time>2020-10-06T20:22:46Z</time>
      </trkpt>
      <trkpt lat="38.807359" lon="-0.540949">
        <ele>691.685</ele>
        <time>2020-10-06T20:22:50Z</time>
      </trkpt>
      <trkpt lat="38.807428" lon="-0.540821">
        <ele>691.875</ele>
        <time>2020-10-06T20:22:55Z</time>
      </trkpt>
      <trkpt lat="38.807513" lon="-0.540616">
        <ele>691.628</ele>
        <time>2020-10-06T20:23:01Z</time>
      </trkpt>
      <trkpt lat="38.807628" lon="-0.540330">
        <ele>691.420</ele>
        <time>2020-10-06T20:23:09Z</time>
      </trkpt>
      <trkpt lat="38.807749" lon="-0.540028">
        <ele>692.008</ele>
        <time>2020-10-06T20:23:18Z</time>
      </trkpt>
      <trkpt lat="38.807767" lon="-0.539895">
        <ele>692.022</ele>
        <time>2020-10-06T20:23:22Z</time>
      </trkpt>
      <trkpt lat="38.807790" lon="-0.539827">
        <ele>692.055</ele>
        <time>2020-10-06T20:23:24Z</time>
      </trkpt>
      <trkpt lat="38.807887" lon="-0.539538">
        <ele>692.637</ele>
        <time>2020-10-06T20:23:32Z</time>
      </trkpt>
      <trkpt lat="38.807899" lon="-0.539506">
        <ele>692.845</ele>
        <time>2020-10-06T20:23:33Z</time>
      </trkpt>
      <trkpt lat="38.807909" lon="-0.539476">
        <ele>693.062</ele>
        <time>2020-10-06T20:23:34Z</time>
      </trkpt>
      <trkpt lat="38.807989" lon="-0.539264">
        <ele>693.218</ele>
        <time>2020-10-06T20:23:41Z</time>
      </trkpt>
      <trkpt lat="38.808079" lon="-0.539010">
        <ele>693.812</ele>
        <time>2020-10-06T20:23:49Z</time>
      </trkpt>
      <trkpt lat="38.808128" lon="-0.538901">
        <ele>693.886</ele>
        <time>2020-10-06T20:23:52Z</time>
      </trkpt>
      <trkpt lat="38.808196" lon="-0.538759">
        <ele>694.018</ele>
        <time>2020-10-06T20:23:56Z</time>
      </trkpt>
      <trkpt lat="38.808265" lon="-0.538597">
        <ele>694.698</ele>
        <time>2020-10-06T20:24:01Z</time>
      </trkpt>
      <trkpt lat="38.808273" lon="-0.538538">
        <ele>694.817</ele>
        <time>2020-10-06T20:24:03Z</time>
      </trkpt>
      <trkpt lat="38.808281" lon="-0.538506">
        <ele>695.008</ele>
        <time>2020-10-06T20:24:04Z</time>
      </trkpt>
      <trkpt lat="38.808279" lon="-0.538462">
        <ele>695.246</ele>
        <time>2020-10-06T20:24:06Z</time>
      </trkpt>
      <trkpt lat="38.808300" lon="-0.538367">
        <ele>695.629</ele>
        <time>2020-10-06T20:24:09Z</time>
      </trkpt>
      <trkpt lat="38.808305" lon="-0.538336">
        <ele>695.871</ele>
        <time>2020-10-06T20:24:10Z</time>
      </trkpt>
      <trkpt lat="38.808312" lon="-0.538306">
        <ele>696.069</ele>
        <time>2020-10-06T20:24:11Z</time>
      </trkpt>
      <trkpt lat="38.808359" lon="-0.538157">
        <ele>696.826</ele>
        <time>2020-10-06T20:24:17Z</time>
      </trkpt>
      <trkpt lat="38.808368" lon="-0.538111">
        <ele>697.052</ele>
        <time>2020-10-06T20:24:19Z</time>
      </trkpt>
      <trkpt lat="38.808387" lon="-0.538010">
        <ele>697.816</ele>
        <time>2020-10-06T20:24:24Z</time>
      </trkpt>
      <trkpt lat="38.808393" lon="-0.537929">
        <ele>698.070</ele>
        <time>2020-10-06T20:24:27Z</time>
      </trkpt>
      <trkpt lat="38.808426" lon="-0.537818">
        <ele>698.878</ele>
        <time>2020-10-06T20:24:31Z</time>
      </trkpt>
      <trkpt lat="38.808438" lon="-0.537790">
        <ele>699.033</ele>
        <time>2020-10-06T20:24:32Z</time>
      </trkpt>
      <trkpt lat="38.808490" lon="-0.537677">
        <ele>700.026</ele>
        <time>2020-10-06T20:24:37Z</time>
      </trkpt>
      <trkpt lat="38.808505" lon="-0.537662">
        <ele>700.208</ele>
        <time>2020-10-06T20:24:38Z</time>
      </trkpt>
      <trkpt lat="38.808521" lon="-0.537646">
        <ele>700.412</ele>
        <time>2020-10-06T20:24:39Z</time>
      </trkpt>
      <trkpt lat="38.808586" lon="-0.537593">
        <ele>701.045</ele>
        <time>2020-10-06T20:24:43Z</time>
      </trkpt>
      <trkpt lat="38.808617" lon="-0.537571">
        <ele>701.267</ele>
        <time>2020-10-06T20:24:45Z</time>
      </trkpt>
      <trkpt lat="38.808657" lon="-0.537545">
        <ele>701.885</ele>
        <time>2020-10-06T20:24:47Z</time>
      </trkpt>
      <trkpt lat="38.808710" lon="-0.537529">
        <ele>702.452</ele>
        <time>2020-10-06T20:24:50Z</time>
      </trkpt>
      <trkpt lat="38.808814" lon="-0.537521">
        <ele>703.238</ele>
        <time>2020-10-06T20:24:55Z</time>
      </trkpt>
      <trkpt lat="38.808861" lon="-0.537505">
        <ele>703.452</ele>
        <time>2020-10-06T20:24:57Z</time>
      </trkpt>
      <trkpt lat="38.808976" lon="-0.537455">
        <ele>704.426</ele>
        <time>2020-10-06T20:25:03Z</time>
      </trkpt>
      <trkpt lat="38.808994" lon="-0.537444">
        <ele>704.663</ele>
        <time>2020-10-06T20:25:04Z</time>
      </trkpt>
      <trkpt lat="38.809036" lon="-0.537425">
        <ele>704.844</ele>
        <time>2020-10-06T20:25:06Z</time>
      </trkpt>
      <trkpt lat="38.809187" lon="-0.537344">
        <ele>705.618</ele>
        <time>2020-10-06T20:25:13Z</time>
      </trkpt>
      <trkpt lat="38.809207" lon="-0.537328">
        <ele>705.608</ele>
        <time>2020-10-06T20:25:14Z</time>
      </trkpt>
      <trkpt lat="38.809352" lon="-0.537159">
        <ele>705.881</ele>
        <time>2020-10-06T20:25:22Z</time>
      </trkpt>
      <trkpt lat="38.809440" lon="-0.536943">
        <ele>706.464</ele>
        <time>2020-10-06T20:25:29Z</time>
      </trkpt>
      <trkpt lat="38.809477" lon="-0.536785">
        <ele>706.696</ele>
        <time>2020-10-06T20:25:34Z</time>
      </trkpt>
      <trkpt lat="38.809495" lon="-0.536724">
        <ele>706.624</ele>
        <time>2020-10-06T20:25:36Z</time>
      </trkpt>
      <trkpt lat="38.809512" lon="-0.536662">
        <ele>706.811</ele>
        <time>2020-10-06T20:25:38Z</time>
      </trkpt>
      <trkpt lat="38.809554" lon="-0.536465">
        <ele>707.027</ele>
        <time>2020-10-06T20:25:44Z</time>
      </trkpt>
      <trkpt lat="38.809567" lon="-0.536395">
        <ele>707.061</ele>
        <time>2020-10-06T20:25:46Z</time>
      </trkpt>
      <trkpt lat="38.809589" lon="-0.536282">
        <ele>707.055</ele>
        <time>2020-10-06T20:25:49Z</time>
      </trkpt>
      <trkpt lat="38.809599" lon="-0.536209">
        <ele>706.858</ele>
        <time>2020-10-06T20:25:51Z</time>
      </trkpt>
      <trkpt lat="38.809619" lon="-0.536109">
        <ele>706.852</ele>
        <time>2020-10-06T20:25:54Z</time>
      </trkpt>
      <trkpt lat="38.809631" lon="-0.536076">
        <ele>706.817</ele>
        <time>2020-10-06T20:25:55Z</time>
      </trkpt>
      <trkpt lat="38.809658" lon="-0.536012">
        <ele>706.808</ele>
        <time>2020-10-06T20:25:57Z</time>
      </trkpt>
      <trkpt lat="38.809701" lon="-0.535949">
        <ele>706.870</ele>
        <time>2020-10-06T20:25:59Z</time>
      </trkpt>
      <trkpt lat="38.809754" lon="-0.535892">
        <ele>706.653</ele>
        <time>2020-10-06T20:26:01Z</time>
      </trkpt>
      <trkpt lat="38.809782" lon="-0.535864">
        <ele>706.675</ele>
        <time>2020-10-06T20:26:02Z</time>
      </trkpt>
      <trkpt lat="38.809901" lon="-0.535758">
        <ele>706.433</ele>
        <time>2020-10-06T20:26:06Z</time>
      </trkpt>
      <trkpt lat="38.810016" lon="-0.535649">
        <ele>706.480</ele>
        <time>2020-10-06T20:26:10Z</time>
      </trkpt>
      <trkpt lat="38.810142" lon="-0.535499">
        <ele>707.036</ele>
        <time>2020-10-06T20:26:16Z</time>
      </trkpt>
      <trkpt lat="38.810163" lon="-0.535469">
        <ele>707.260</ele>
        <time>2020-10-06T20:26:17Z</time>
      </trkpt>
      <trkpt lat="38.810209" lon="-0.535403">
        <ele>707.894</ele>
        <time>2020-10-06T20:26:20Z</time>
      </trkpt>
      <trkpt lat="38.810249" lon="-0.535274">
        <ele>708.649</ele>
        <time>2020-10-06T20:26:25Z</time>
      </trkpt>
      <trkpt lat="38.810265" lon="-0.535183">
        <ele>708.802</ele>
        <time>2020-10-06T20:26:28Z</time>
      </trkpt>
      <trkpt lat="38.810293" lon="-0.535062">
        <ele>709.022</ele>
        <time>2020-10-06T20:26:32Z</time>
      </trkpt>
      <trkpt lat="38.810342" lon="-0.534824">
        <ele>708.808</ele>
        <time>2020-10-06T20:26:38Z</time>
      </trkpt>
      <trkpt lat="38.810409" lon="-0.534523">
        <ele>708.669</ele>
        <time>2020-10-06T20:26:45Z</time>
      </trkpt>
      <trkpt lat="38.810396" lon="-0.534203">
        <ele>708.282</ele>
        <time>2020-10-06T20:26:51Z</time>
      </trkpt>
      <trkpt lat="38.810384" lon="-0.534064">
        <ele>707.814</ele>
        <time>2020-10-06T20:26:53Z</time>
      </trkpt>
      <trkpt lat="38.810370" lon="-0.533882">
        <ele>707.692</ele>
        <time>2020-10-06T20:26:57Z</time>
      </trkpt>
      <trkpt lat="38.810364" lon="-0.533742">
        <ele>707.889</ele>
        <time>2020-10-06T20:27:00Z</time>
      </trkpt>
      <trkpt lat="38.810364" lon="-0.533604">
        <ele>708.015</ele>
        <time>2020-10-06T20:27:03Z</time>
      </trkpt>
      <trkpt lat="38.810379" lon="-0.533235">
        <ele>708.449</ele>
        <time>2020-10-06T20:27:12Z</time>
      </trkpt>
      <trkpt lat="38.810404" lon="-0.533062">
        <ele>708.813</ele>
        <time>2020-10-06T20:27:17Z</time>
      </trkpt>
      <trkpt lat="38.810415" lon="-0.532960">
        <ele>709.096</ele>
        <time>2020-10-06T20:27:20Z</time>
      </trkpt>
      <trkpt lat="38.810429" lon="-0.532715">
        <ele>710.031</ele>
        <time>2020-10-06T20:27:27Z</time>
      </trkpt>
      <trkpt lat="38.810419" lon="-0.532613">
        <ele>710.224</ele>
        <time>2020-10-06T20:27:30Z</time>
      </trkpt>
      <trkpt lat="38.810408" lon="-0.532477">
        <ele>710.608</ele>
        <time>2020-10-06T20:27:34Z</time>
      </trkpt>
      <trkpt lat="38.810393" lon="-0.532374">
        <ele>710.894</ele>
        <time>2020-10-06T20:27:37Z</time>
      </trkpt>
      <trkpt lat="38.810390" lon="-0.532262">
        <ele>711.067</ele>
        <time>2020-10-06T20:27:40Z</time>
      </trkpt>
      <trkpt lat="38.810394" lon="-0.532191">
        <ele>711.059</ele>
        <time>2020-10-06T20:27:42Z</time>
      </trkpt>
      <trkpt lat="38.810414" lon="-0.531823">
        <ele>711.277</ele>
        <time>2020-10-06T20:27:52Z</time>
      </trkpt>
      <trkpt lat="38.810409" lon="-0.531393">
        <ele>711.894</ele>
        <time>2020-10-06T20:28:03Z</time>
      </trkpt>
      <trkpt lat="38.810406" lon="-0.531087">
        <ele>711.680</ele>
        <time>2020-10-06T20:28:09Z</time>
      </trkpt>
      <trkpt lat="38.810405" lon="-0.530558">
        <ele>710.664</ele>
        <time>2020-10-06T20:28:16Z</time>
      </trkpt>
      <trkpt lat="38.810405" lon="-0.530257">
        <ele>709.818</ele>
        <time>2020-10-06T20:28:20Z</time>
      </trkpt>
      <trkpt lat="38.810412" lon="-0.529925">
        <ele>708.828</ele>
        <time>2020-10-06T20:28:24Z</time>
      </trkpt>
      <trkpt lat="38.810426" lon="-0.529648">
        <ele>708.489</ele>
        <time>2020-10-06T20:28:27Z</time>
      </trkpt>
      <trkpt lat="38.810458" lon="-0.529382">
        <ele>707.617</ele>
        <time>2020-10-06T20:28:30Z</time>
      </trkpt>
      <trkpt lat="38.810483" lon="-0.529073">
        <ele>706.608</ele>
        <time>2020-10-06T20:28:34Z</time>
      </trkpt>
      <trkpt lat="38.810500" lon="-0.528675">
        <ele>706.067</ele>
        <time>2020-10-06T20:28:40Z</time>
      </trkpt>
      <trkpt lat="38.810506" lon="-0.528235">
        <ele>706.230</ele>
        <time>2020-10-06T20:28:49Z</time>
      </trkpt>
      <trkpt lat="38.810479" lon="-0.527766">
        <ele>707.452</ele>
        <time>2020-10-06T20:29:00Z</time>
      </trkpt>
      <trkpt lat="38.810479" lon="-0.527736">
        <ele>707.640</ele>
        <time>2020-10-06T20:29:01Z</time>
      </trkpt>
      <trkpt lat="38.810469" lon="-0.527650">
        <ele>707.647</ele>
        <time>2020-10-06T20:29:03Z</time>
      </trkpt>
      <trkpt lat="38.810417" lon="-0.527329">
        <ele>708.233</ele>
        <time>2020-10-06T20:29:11Z</time>
      </trkpt>
      <trkpt lat="38.810361" lon="-0.526976">
        <ele>708.617</ele>
        <time>2020-10-06T20:29:20Z</time>
      </trkpt>
      <trkpt lat="38.810358" lon="-0.526847">
        <ele>708.891</ele>
        <time>2020-10-06T20:29:23Z</time>
      </trkpt>
      <trkpt lat="38.810360" lon="-0.526744">
        <ele>709.213</ele>
        <time>2020-10-06T20:29:26Z</time>
      </trkpt>
      <trkpt lat="38.810360" lon="-0.526709">
        <ele>709.243</ele>
        <time>2020-10-06T20:29:28Z</time>
      </trkpt>
      <trkpt lat="38.810360" lon="-0.526606">
        <ele>709.407</ele>
        <time>2020-10-06T20:29:30Z</time>
      </trkpt>
      <trkpt lat="38.810356" lon="-0.526571">
        <ele>709.608</ele>
        <time>2020-10-06T20:29:31Z</time>
      </trkpt>
      <trkpt lat="38.810344" lon="-0.526510">
        <ele>709.856</ele>
        <time>2020-10-06T20:29:33Z</time>
      </trkpt>
      <trkpt lat="38.810316" lon="-0.526288">
        <ele>710.619</ele>
        <time>2020-10-06T20:29:40Z</time>
      </trkpt>
      <trkpt lat="38.810317" lon="-0.526257">
        <ele>710.871</ele>
        <time>2020-10-06T20:29:41Z</time>
      </trkpt>
      <trkpt lat="38.810344" lon="-0.526095">
        <ele>711.829</ele>
        <time>2020-10-06T20:29:47Z</time>
      </trkpt>
      <trkpt lat="38.810352" lon="-0.526070">
        <ele>711.866</ele>
        <time>2020-10-06T20:29:48Z</time>
      </trkpt>
      <trkpt lat="38.810384" lon="-0.525972">
        <ele>712.662</ele>
        <time>2020-10-06T20:29:52Z</time>
      </trkpt>
      <trkpt lat="38.810390" lon="-0.525947">
        <ele>713.066</ele>
        <time>2020-10-06T20:29:53Z</time>
      </trkpt>
      <trkpt lat="38.810387" lon="-0.525859">
        <ele>713.890</ele>
        <time>2020-10-06T20:29:57Z</time>
      </trkpt>
      <trkpt lat="38.810373" lon="-0.525830">
        <ele>714.044</ele>
        <time>2020-10-06T20:29:58Z</time>
      </trkpt>
      <trkpt lat="38.810343" lon="-0.525682">
        <ele>715.205</ele>
        <time>2020-10-06T20:30:04Z</time>
      </trkpt>
      <trkpt lat="38.810259" lon="-0.525542">
        <ele>716.215</ele>
        <time>2020-10-06T20:30:11Z</time>
      </trkpt>
      <trkpt lat="38.810247" lon="-0.525523">
        <ele>716.408</ele>
        <time>2020-10-06T20:30:12Z</time>
      </trkpt>
      <trkpt lat="38.810191" lon="-0.525407">
        <ele>717.019</ele>
        <time>2020-10-06T20:30:17Z</time>
      </trkpt>
      <trkpt lat="38.810155" lon="-0.525309">
        <ele>717.442</ele>
        <time>2020-10-06T20:30:21Z</time>
      </trkpt>
      <trkpt lat="38.810142" lon="-0.525276">
        <ele>717.444</ele>
        <time>2020-10-06T20:30:22Z</time>
      </trkpt>
      <trkpt lat="38.810120" lon="-0.525152">
        <ele>717.832</ele>
        <time>2020-10-06T20:30:26Z</time>
      </trkpt>
      <trkpt lat="38.810104" lon="-0.525011">
        <ele>718.469</ele>
        <time>2020-10-06T20:30:31Z</time>
      </trkpt>
      <trkpt lat="38.810100" lon="-0.524988">
        <ele>718.465</ele>
        <time>2020-10-06T20:30:32Z</time>
      </trkpt>
      <trkpt lat="38.810051" lon="-0.524820">
        <ele>719.029</ele>
        <time>2020-10-06T20:30:39Z</time>
      </trkpt>
      <trkpt lat="38.810037" lon="-0.524783">
        <ele>719.473</ele>
        <time>2020-10-06T20:30:41Z</time>
      </trkpt>
      <trkpt lat="38.809970" lon="-0.524643">
        <ele>720.646</ele>
        <time>2020-10-06T20:30:48Z</time>
      </trkpt>
      <trkpt lat="38.809963" lon="-0.524625">
        <ele>720.888</ele>
        <time>2020-10-06T20:30:49Z</time>
      </trkpt>
      <trkpt lat="38.809935" lon="-0.524510">
        <ele>721.616</ele>
        <time>2020-10-06T20:30:54Z</time>
      </trkpt>
      <trkpt lat="38.809923" lon="-0.524442">
        <ele>722.208</ele>
        <time>2020-10-06T20:30:57Z</time>
      </trkpt>
      <trkpt lat="38.809923" lon="-0.524350">
        <ele>722.889</ele>
        <time>2020-10-06T20:31:01Z</time>
      </trkpt>
      <trkpt lat="38.809914" lon="-0.524245">
        <ele>723.252</ele>
        <time>2020-10-06T20:31:05Z</time>
      </trkpt>
      <trkpt lat="38.809897" lon="-0.524151">
        <ele>724.054</ele>
        <time>2020-10-06T20:31:09Z</time>
      </trkpt>
      <trkpt lat="38.809894" lon="-0.524107">
        <ele>724.232</ele>
        <time>2020-10-06T20:31:11Z</time>
      </trkpt>
      <trkpt lat="38.809864" lon="-0.523850">
        <ele>724.849</ele>
        <time>2020-10-06T20:31:21Z</time>
      </trkpt>
      <trkpt lat="38.809859" lon="-0.523823">
        <ele>725.015</ele>
        <time>2020-10-06T20:31:22Z</time>
      </trkpt>
      <trkpt lat="38.809830" lon="-0.523650">
        <ele>725.479</ele>
        <time>2020-10-06T20:31:29Z</time>
      </trkpt>
      <trkpt lat="38.809771" lon="-0.523491">
        <ele>726.043</ele>
        <time>2020-10-06T20:31:36Z</time>
      </trkpt>
      <trkpt lat="38.809750" lon="-0.523477">
        <ele>726.013</ele>
        <time>2020-10-06T20:31:37Z</time>
      </trkpt>
      <trkpt lat="38.809689" lon="-0.523423">
        <ele>726.643</ele>
        <time>2020-10-06T20:31:41Z</time>
      </trkpt>
      <trkpt lat="38.809649" lon="-0.523384">
        <ele>727.007</ele>
        <time>2020-10-06T20:31:44Z</time>
      </trkpt>
      <trkpt lat="38.809642" lon="-0.523374">
        <ele>727.208</ele>
        <time>2020-10-06T20:31:45Z</time>
      </trkpt>
      <trkpt lat="38.809529" lon="-0.523244">
        <ele>728.276</ele>
        <time>2020-10-06T20:31:53Z</time>
      </trkpt>
      <trkpt lat="38.809408" lon="-0.523117">
        <ele>729.259</ele>
        <time>2020-10-06T20:32:02Z</time>
      </trkpt>
      <trkpt lat="38.809395" lon="-0.523102">
        <ele>729.421</ele>
        <time>2020-10-06T20:32:03Z</time>
      </trkpt>
      <trkpt lat="38.809273" lon="-0.522973">
        <ele>730.299</ele>
        <time>2020-10-06T20:32:12Z</time>
      </trkpt>
      <trkpt lat="38.809247" lon="-0.522943">
        <ele>730.686</ele>
        <time>2020-10-06T20:32:14Z</time>
      </trkpt>
      <trkpt lat="38.809179" lon="-0.522885">
        <ele>731.462</ele>
        <time>2020-10-06T20:32:19Z</time>
      </trkpt>
      <trkpt lat="38.809147" lon="-0.522817">
        <ele>731.836</ele>
        <time>2020-10-06T20:32:23Z</time>
      </trkpt>
      <trkpt lat="38.809123" lon="-0.522769">
        <ele>732.490</ele>
        <time>2020-10-06T20:32:26Z</time>
      </trkpt>
      <trkpt lat="38.809041" lon="-0.522672">
        <ele>733.435</ele>
        <time>2020-10-06T20:32:33Z</time>
      </trkpt>
      <trkpt lat="38.808930" lon="-0.522662">
        <ele>734.686</ele>
        <time>2020-10-06T20:32:40Z</time>
      </trkpt>
      <trkpt lat="38.808917" lon="-0.522666">
        <ele>734.814</ele>
        <time>2020-10-06T20:32:41Z</time>
      </trkpt>
      <trkpt lat="38.808837" lon="-0.522675">
        <ele>735.608</ele>
        <time>2020-10-06T20:32:46Z</time>
      </trkpt>
      <trkpt lat="38.808757" lon="-0.522687">
        <ele>736.818</ele>
        <time>2020-10-06T20:32:51Z</time>
      </trkpt>
      <trkpt lat="38.808743" lon="-0.522685">
        <ele>737.071</ele>
        <time>2020-10-06T20:32:52Z</time>
      </trkpt>
      <trkpt lat="38.808688" lon="-0.522700">
        <ele>737.853</ele>
        <time>2020-10-06T20:32:56Z</time>
      </trkpt>
      <trkpt lat="38.808603" lon="-0.522711">
        <ele>738.811</ele>
        <time>2020-10-06T20:33:02Z</time>
      </trkpt>
      <trkpt lat="38.808589" lon="-0.522715">
        <ele>739.078</ele>
        <time>2020-10-06T20:33:03Z</time>
      </trkpt>
      <trkpt lat="38.808489" lon="-0.522725">
        <ele>740.024</ele>
        <time>2020-10-06T20:33:10Z</time>
      </trkpt>
      <trkpt lat="38.808470" lon="-0.522730">
        <ele>740.228</ele>
        <time>2020-10-06T20:33:12Z</time>
      </trkpt>
      <trkpt lat="38.808414" lon="-0.522735">
        <ele>741.042</ele>
        <time>2020-10-06T20:33:16Z</time>
      </trkpt>
      <trkpt lat="38.808361" lon="-0.522739">
        <ele>741.884</ele>
        <time>2020-10-06T20:33:20Z</time>
      </trkpt>
      <trkpt lat="38.808341" lon="-0.522745">
        <ele>742.207</ele>
        <time>2020-10-06T20:33:22Z</time>
      </trkpt>
      <trkpt lat="38.808281" lon="-0.522753">
        <ele>743.217</ele>
        <time>2020-10-06T20:33:27Z</time>
      </trkpt>
      <trkpt lat="38.808268" lon="-0.522755">
        <ele>743.408</ele>
        <time>2020-10-06T20:33:28Z</time>
      </trkpt>
      <trkpt lat="38.808210" lon="-0.522761">
        <ele>744.263</ele>
        <time>2020-10-06T20:33:32Z</time>
      </trkpt>
      <trkpt lat="38.808111" lon="-0.522766">
        <ele>745.246</ele>
        <time>2020-10-06T20:33:38Z</time>
      </trkpt>
      <trkpt lat="38.808097" lon="-0.522763">
        <ele>745.488</ele>
        <time>2020-10-06T20:33:39Z</time>
      </trkpt>
      <trkpt lat="38.808037" lon="-0.522774">
        <ele>745.826</ele>
        <time>2020-10-06T20:33:43Z</time>
      </trkpt>
      <trkpt lat="38.807988" lon="-0.522778">
        <ele>746.443</ele>
        <time>2020-10-06T20:33:46Z</time>
      </trkpt>
      <trkpt lat="38.807973" lon="-0.522779">
        <ele>746.639</ele>
        <time>2020-10-06T20:33:47Z</time>
      </trkpt>
      <trkpt lat="38.807889" lon="-0.522785">
        <ele>747.443</ele>
        <time>2020-10-06T20:33:53Z</time>
      </trkpt>
      <trkpt lat="38.807840" lon="-0.522788">
        <ele>747.817</ele>
        <time>2020-10-06T20:33:56Z</time>
      </trkpt>
      <trkpt lat="38.807754" lon="-0.522777">
        <ele>748.444</ele>
        <time>2020-10-06T20:34:01Z</time>
      </trkpt>
      <trkpt lat="38.807674" lon="-0.522779">
        <ele>749.405</ele>
        <time>2020-10-06T20:34:06Z</time>
      </trkpt>
      <trkpt lat="38.807583" lon="-0.522780">
        <ele>750.415</ele>
        <time>2020-10-06T20:34:12Z</time>
      </trkpt>
      <trkpt lat="38.807568" lon="-0.522779">
        <ele>750.608</ele>
        <time>2020-10-06T20:34:13Z</time>
      </trkpt>
      <trkpt lat="38.807516" lon="-0.522772">
        <ele>751.049</ele>
        <time>2020-10-06T20:34:16Z</time>
      </trkpt>
      <trkpt lat="38.807430" lon="-0.522758">
        <ele>751.612</ele>
        <time>2020-10-06T20:34:21Z</time>
      </trkpt>
      <trkpt lat="38.807366" lon="-0.522740">
        <ele>752.274</ele>
        <time>2020-10-06T20:34:25Z</time>
      </trkpt>
      <trkpt lat="38.807346" lon="-0.522737">
        <ele>752.212</ele>
        <time>2020-10-06T20:34:26Z</time>
      </trkpt>
      <trkpt lat="38.807291" lon="-0.522722">
        <ele>752.459</ele>
        <time>2020-10-06T20:34:29Z</time>
      </trkpt>
      <trkpt lat="38.807240" lon="-0.522708">
        <ele>752.825</ele>
        <time>2020-10-06T20:34:32Z</time>
      </trkpt>
      <trkpt lat="38.807205" lon="-0.522696">
        <ele>752.839</ele>
        <time>2020-10-06T20:34:34Z</time>
      </trkpt>
      <trkpt lat="38.807024" lon="-0.522603">
        <ele>753.283</ele>
        <time>2020-10-06T20:34:43Z</time>
      </trkpt>
      <trkpt lat="38.807000" lon="-0.522578">
        <ele>753.426</ele>
        <time>2020-10-06T20:34:44Z</time>
      </trkpt>
      <trkpt lat="38.806927" lon="-0.522486">
        <ele>753.647</ele>
        <time>2020-10-06T20:34:48Z</time>
      </trkpt>
      <trkpt lat="38.806867" lon="-0.522386">
        <ele>753.811</ele>
        <time>2020-10-06T20:34:52Z</time>
      </trkpt>
      <trkpt lat="38.806852" lon="-0.522362">
        <ele>753.808</ele>
        <time>2020-10-06T20:34:53Z</time>
      </trkpt>
      <trkpt lat="38.806796" lon="-0.522278">
        <ele>754.227</ele>
        <time>2020-10-06T20:34:57Z</time>
      </trkpt>
      <trkpt lat="38.806757" lon="-0.522212">
        <ele>754.890</ele>
        <time>2020-10-06T20:35:00Z</time>
      </trkpt>
      <trkpt lat="38.806745" lon="-0.522192">
        <ele>755.052</ele>
        <time>2020-10-06T20:35:01Z</time>
      </trkpt>
      <trkpt lat="38.806706" lon="-0.522108">
        <ele>756.070</ele>
        <time>2020-10-06T20:35:05Z</time>
      </trkpt>
      <trkpt lat="38.806667" lon="-0.522032">
        <ele>756.667</ele>
        <time>2020-10-06T20:35:09Z</time>
      </trkpt>
      <trkpt lat="38.806640" lon="-0.521973">
        <ele>757.293</ele>
        <time>2020-10-06T20:35:12Z</time>
      </trkpt>
      <trkpt lat="38.806587" lon="-0.521850">
        <ele>758.257</ele>
        <time>2020-10-06T20:35:18Z</time>
      </trkpt>
      <trkpt lat="38.806581" lon="-0.521836">
        <ele>758.421</ele>
        <time>2020-10-06T20:35:19Z</time>
      </trkpt>
      <trkpt lat="38.806570" lon="-0.521750">
        <ele>759.487</ele>
        <time>2020-10-06T20:35:23Z</time>
      </trkpt>
      <trkpt lat="38.806575" lon="-0.521697">
        <ele>760.242</ele>
        <time>2020-10-06T20:35:26Z</time>
      </trkpt>
      <trkpt lat="38.806587" lon="-0.521655">
        <ele>760.626</ele>
        <time>2020-10-06T20:35:28Z</time>
      </trkpt>
      <trkpt lat="38.806596" lon="-0.521640">
        <ele>761.008</ele>
        <time>2020-10-06T20:35:29Z</time>
      </trkpt>
      <trkpt lat="38.806626" lon="-0.521622">
        <ele>761.643</ele>
        <time>2020-10-06T20:35:31Z</time>
      </trkpt>
      <trkpt lat="38.806655" lon="-0.521617">
        <ele>761.856</ele>
        <time>2020-10-06T20:35:33Z</time>
      </trkpt>
      <trkpt lat="38.806710" lon="-0.521617">
        <ele>763.088</ele>
        <time>2020-10-06T20:35:37Z</time>
      </trkpt>
      <trkpt lat="38.806728" lon="-0.521617">
        <ele>763.256</ele>
        <time>2020-10-06T20:35:38Z</time>
      </trkpt>
      <trkpt lat="38.806803" lon="-0.521613">
        <ele>764.023</ele>
        <time>2020-10-06T20:35:42Z</time>
      </trkpt>
      <trkpt lat="38.806927" lon="-0.521617">
        <ele>765.229</ele>
        <time>2020-10-06T20:35:49Z</time>
      </trkpt>
      <trkpt lat="38.807006" lon="-0.521630">
        <ele>765.813</ele>
        <time>2020-10-06T20:35:54Z</time>
      </trkpt>
      <trkpt lat="38.807056" lon="-0.521641">
        <ele>766.287</ele>
        <time>2020-10-06T20:35:57Z</time>
      </trkpt>
      <trkpt lat="38.807107" lon="-0.521642">
        <ele>766.865</ele>
        <time>2020-10-06T20:36:00Z</time>
      </trkpt>
      <trkpt lat="38.807176" lon="-0.521643">
        <ele>767.468</ele>
        <time>2020-10-06T20:36:04Z</time>
      </trkpt>
      <trkpt lat="38.807260" lon="-0.521605">
        <ele>768.214</ele>
        <time>2020-10-06T20:36:09Z</time>
      </trkpt>
      <trkpt lat="38.807296" lon="-0.521578">
        <ele>768.608</ele>
        <time>2020-10-06T20:36:11Z</time>
      </trkpt>
      <trkpt lat="38.807330" lon="-0.521499">
        <ele>769.291</ele>
        <time>2020-10-06T20:36:15Z</time>
      </trkpt>
      <trkpt lat="38.807337" lon="-0.521450">
        <ele>769.684</ele>
        <time>2020-10-06T20:36:17Z</time>
      </trkpt>
      <trkpt lat="38.807347" lon="-0.521352">
        <ele>770.646</ele>
        <time>2020-10-06T20:36:21Z</time>
      </trkpt>
      <trkpt lat="38.807348" lon="-0.521327">
        <ele>770.884</ele>
        <time>2020-10-06T20:36:22Z</time>
      </trkpt>
      <trkpt lat="38.807346" lon="-0.521206">
        <ele>771.691</ele>
        <time>2020-10-06T20:36:27Z</time>
      </trkpt>
      <trkpt lat="38.807350" lon="-0.521158">
        <ele>771.897</ele>
        <time>2020-10-06T20:36:29Z</time>
      </trkpt>
      <trkpt lat="38.807348" lon="-0.521112">
        <ele>772.011</ele>
        <time>2020-10-06T20:36:31Z</time>
      </trkpt>
      <trkpt lat="38.807336" lon="-0.521016">
        <ele>772.665</ele>
        <time>2020-10-06T20:36:35Z</time>
      </trkpt>
      <trkpt lat="38.807325" lon="-0.520970">
        <ele>772.821</ele>
        <time>2020-10-06T20:36:37Z</time>
      </trkpt>
      <trkpt lat="38.807317" lon="-0.520944">
        <ele>773.041</ele>
        <time>2020-10-06T20:36:38Z</time>
      </trkpt>
      <trkpt lat="38.807269" lon="-0.520866">
        <ele>773.805</ele>
        <time>2020-10-06T20:36:43Z</time>
      </trkpt>
      <trkpt lat="38.807227" lon="-0.520806">
        <ele>774.808</ele>
        <time>2020-10-06T20:36:47Z</time>
      </trkpt>
      <trkpt lat="38.807218" lon="-0.520792">
        <ele>775.057</ele>
        <time>2020-10-06T20:36:48Z</time>
      </trkpt>
      <trkpt lat="38.807150" lon="-0.520705">
        <ele>776.280</ele>
        <time>2020-10-06T20:36:54Z</time>
      </trkpt>
      <trkpt lat="38.807138" lon="-0.520678">
        <ele>776.672</ele>
        <time>2020-10-06T20:36:56Z</time>
      </trkpt>
      <trkpt lat="38.807130" lon="-0.520662">
        <ele>776.860</ele>
        <time>2020-10-06T20:36:57Z</time>
      </trkpt>
      <trkpt lat="38.807109" lon="-0.520631">
        <ele>777.217</ele>
        <time>2020-10-06T20:36:59Z</time>
      </trkpt>
      <trkpt lat="38.807073" lon="-0.520597">
        <ele>777.643</ele>
        <time>2020-10-06T20:37:02Z</time>
      </trkpt>
      <trkpt lat="38.807037" lon="-0.520552">
        <ele>778.257</ele>
        <time>2020-10-06T20:37:05Z</time>
      </trkpt>
      <trkpt lat="38.806972" lon="-0.520483">
        <ele>779.041</ele>
        <time>2020-10-06T20:37:10Z</time>
      </trkpt>
      <trkpt lat="38.806951" lon="-0.520453">
        <ele>779.428</ele>
        <time>2020-10-06T20:37:12Z</time>
      </trkpt>
      <trkpt lat="38.806919" lon="-0.520406">
        <ele>780.089</ele>
        <time>2020-10-06T20:37:17Z</time>
      </trkpt>
      <trkpt lat="38.806936" lon="-0.520360">
        <ele>752.481</ele>
        <time>2020-10-06T20:39:19Z</time>
      </trkpt>
      <trkpt lat="38.806936" lon="-0.520360">
        <ele>752.461</ele>
        <time>2020-10-06T20:39:20Z</time>
      </trkpt>
      <trkpt lat="38.806942" lon="-0.520348">
        <ele>752.417</ele>
        <time>2020-10-06T20:39:25Z</time>
      </trkpt>
      <trkpt lat="38.806960" lon="-0.520313">
        <ele>752.408</ele>
        <time>2020-10-06T20:39:27Z</time>
      </trkpt>
      <trkpt lat="38.807030" lon="-0.520162">
        <ele>751.663</ele>
        <time>2020-10-06T20:39:33Z</time>
      </trkpt>
      <trkpt lat="38.807042" lon="-0.520140">
        <ele>751.436</ele>
        <time>2020-10-06T20:39:34Z</time>
      </trkpt>
      <trkpt lat="38.807133" lon="-0.520015">
        <ele>750.838</ele>
        <time>2020-10-06T20:39:41Z</time>
      </trkpt>
      <trkpt lat="38.807196" lon="-0.519879">
        <ele>750.266</ele>
        <time>2020-10-06T20:39:45Z</time>
      </trkpt>
      <trkpt lat="38.807209" lon="-0.519829">
        <ele>750.073</ele>
        <time>2020-10-06T20:39:46Z</time>
      </trkpt>
      <trkpt lat="38.807233" lon="-0.519717">
        <ele>749.299</ele>
        <time>2020-10-06T20:39:48Z</time>
      </trkpt>
      <trkpt lat="38.807256" lon="-0.519606">
        <ele>748.237</ele>
        <time>2020-10-06T20:39:50Z</time>
      </trkpt>
      <trkpt lat="38.807266" lon="-0.519554">
        <ele>747.659</ele>
        <time>2020-10-06T20:39:51Z</time>
      </trkpt>
      <trkpt lat="38.807277" lon="-0.519504">
        <ele>746.823</ele>
        <time>2020-10-06T20:39:52Z</time>
      </trkpt>
      <trkpt lat="38.807301" lon="-0.519412">
        <ele>745.483</ele>
        <time>2020-10-06T20:39:54Z</time>
      </trkpt>
      <trkpt lat="38.807326" lon="-0.519327">
        <ele>744.011</ele>
        <time>2020-10-06T20:39:56Z</time>
      </trkpt>
      <trkpt lat="38.807353" lon="-0.519248">
        <ele>742.808</ele>
        <time>2020-10-06T20:39:58Z</time>
      </trkpt>
      <trkpt lat="38.807374" lon="-0.519154">
        <ele>741.867</ele>
        <time>2020-10-06T20:40:00Z</time>
      </trkpt>
      <trkpt lat="38.807381" lon="-0.519053">
        <ele>740.070</ele>
        <time>2020-10-06T20:40:02Z</time>
      </trkpt>
      <trkpt lat="38.807396" lon="-0.518954">
        <ele>738.622</ele>
        <time>2020-10-06T20:40:04Z</time>
      </trkpt>
      <trkpt lat="38.807403" lon="-0.518877">
        <ele>737.250</ele>
        <time>2020-10-06T20:40:06Z</time>
      </trkpt>
      <trkpt lat="38.807398" lon="-0.518804">
        <ele>736.077</ele>
        <time>2020-10-06T20:40:08Z</time>
      </trkpt>
      <trkpt lat="38.807400" lon="-0.518723">
        <ele>734.893</ele>
        <time>2020-10-06T20:40:10Z</time>
      </trkpt>
      <trkpt lat="38.807406" lon="-0.518652">
        <ele>733.681</ele>
        <time>2020-10-06T20:40:12Z</time>
      </trkpt>
      <trkpt lat="38.807407" lon="-0.518635">
        <ele>733.083</ele>
        <time>2020-10-06T20:40:13Z</time>
      </trkpt>
      <trkpt lat="38.807413" lon="-0.518591">
        <ele>732.084</ele>
        <time>2020-10-06T20:40:19Z</time>
      </trkpt>
      <trkpt lat="38.807422" lon="-0.518510">
        <ele>731.607</ele>
        <time>2020-10-06T20:40:21Z</time>
      </trkpt>
      <trkpt lat="38.807442" lon="-0.518395">
        <ele>731.217</ele>
        <time>2020-10-06T20:40:23Z</time>
      </trkpt>
      <trkpt lat="38.807447" lon="-0.518248">
        <ele>730.808</ele>
        <time>2020-10-06T20:40:25Z</time>
      </trkpt>
      <trkpt lat="38.807418" lon="-0.518070">
        <ele>729.413</ele>
        <time>2020-10-06T20:40:27Z</time>
      </trkpt>
      <trkpt lat="38.807395" lon="-0.517873">
        <ele>727.616</ele>
        <time>2020-10-06T20:40:29Z</time>
      </trkpt>
      <trkpt lat="38.807382" lon="-0.517661">
        <ele>726.458</ele>
        <time>2020-10-06T20:40:31Z</time>
      </trkpt>
      <trkpt lat="38.807362" lon="-0.517351">
        <ele>725.246</ele>
        <time>2020-10-06T20:40:34Z</time>
      </trkpt>
      <trkpt lat="38.807360" lon="-0.517255">
        <ele>724.693</ele>
        <time>2020-10-06T20:40:35Z</time>
      </trkpt>
      <trkpt lat="38.807376" lon="-0.517086">
        <ele>724.049</ele>
        <time>2020-10-06T20:40:37Z</time>
      </trkpt>
      <trkpt lat="38.807394" lon="-0.516923">
        <ele>723.657</ele>
        <time>2020-10-06T20:40:39Z</time>
      </trkpt>
      <trkpt lat="38.807373" lon="-0.516684">
        <ele>722.699</ele>
        <time>2020-10-06T20:40:42Z</time>
      </trkpt>
      <trkpt lat="38.807360" lon="-0.516605">
        <ele>721.473</ele>
        <time>2020-10-06T20:40:43Z</time>
      </trkpt>
      <trkpt lat="38.807343" lon="-0.516530">
        <ele>720.285</ele>
        <time>2020-10-06T20:40:44Z</time>
      </trkpt>
      <trkpt lat="38.807322" lon="-0.516462">
        <ele>719.613</ele>
        <time>2020-10-06T20:40:45Z</time>
      </trkpt>
      <trkpt lat="38.807295" lon="-0.516396">
        <ele>719.008</ele>
        <time>2020-10-06T20:40:46Z</time>
      </trkpt>
      <trkpt lat="38.807251" lon="-0.516280">
        <ele>718.062</ele>
        <time>2020-10-06T20:40:48Z</time>
      </trkpt>
      <trkpt lat="38.807240" lon="-0.516236">
        <ele>717.295</ele>
        <time>2020-10-06T20:40:49Z</time>
      </trkpt>
      <trkpt lat="38.807239" lon="-0.516209">
        <ele>716.417</ele>
        <time>2020-10-06T20:40:50Z</time>
      </trkpt>
      <trkpt lat="38.807247" lon="-0.516191">
        <ele>715.835</ele>
        <time>2020-10-06T20:40:51Z</time>
      </trkpt>
      <trkpt lat="38.807288" lon="-0.516192">
        <ele>715.472</ele>
        <time>2020-10-06T20:40:53Z</time>
      </trkpt>
      <trkpt lat="38.807315" lon="-0.516206">
        <ele>715.248</ele>
        <time>2020-10-06T20:40:54Z</time>
      </trkpt>
      <trkpt lat="38.807557" lon="-0.516365">
        <ele>715.456</ele>
        <time>2020-10-06T20:41:02Z</time>
      </trkpt>
      <trkpt lat="38.807661" lon="-0.516453">
        <ele>716.038</ele>
        <time>2020-10-06T20:41:06Z</time>
      </trkpt>
      <trkpt lat="38.807690" lon="-0.516479">
        <ele>716.473</ele>
        <time>2020-10-06T20:41:07Z</time>
      </trkpt>
      <trkpt lat="38.807773" lon="-0.516562">
        <ele>717.085</ele>
        <time>2020-10-06T20:41:10Z</time>
      </trkpt>
      <trkpt lat="38.807861" lon="-0.516660">
        <ele>717.413</ele>
        <time>2020-10-06T20:41:13Z</time>
      </trkpt>
      <trkpt lat="38.808058" lon="-0.516841">
        <ele>718.208</ele>
        <time>2020-10-06T20:41:19Z</time>
      </trkpt>
      <trkpt lat="38.808095" lon="-0.516878">
        <ele>718.412</ele>
        <time>2020-10-06T20:41:20Z</time>
      </trkpt>
      <trkpt lat="38.808128" lon="-0.516925">
        <ele>718.485</ele>
        <time>2020-10-06T20:41:21Z</time>
      </trkpt>
      <trkpt lat="38.808158" lon="-0.516975">
        <ele>718.427</ele>
        <time>2020-10-06T20:41:22Z</time>
      </trkpt>
      <trkpt lat="38.808205" lon="-0.517091">
        <ele>718.645</ele>
        <time>2020-10-06T20:41:24Z</time>
      </trkpt>
      <trkpt lat="38.808234" lon="-0.517425">
        <ele>719.272</ele>
        <time>2020-10-06T20:41:29Z</time>
      </trkpt>
      <trkpt lat="38.808255" lon="-0.517761">
        <ele>719.088</ele>
        <time>2020-10-06T20:41:34Z</time>
      </trkpt>
      <trkpt lat="38.808288" lon="-0.517889">
        <ele>719.096</ele>
        <time>2020-10-06T20:41:36Z</time>
      </trkpt>
      <trkpt lat="38.808398" lon="-0.518232">
        <ele>718.668</ele>
        <time>2020-10-06T20:41:41Z</time>
      </trkpt>
      <trkpt lat="38.808438" lon="-0.518378">
        <ele>718.414</ele>
        <time>2020-10-06T20:41:43Z</time>
      </trkpt>
      <trkpt lat="38.808491" lon="-0.518523">
        <ele>718.454</ele>
        <time>2020-10-06T20:41:45Z</time>
      </trkpt>
      <trkpt lat="38.808562" lon="-0.518664">
        <ele>718.209</ele>
        <time>2020-10-06T20:41:47Z</time>
      </trkpt>
      <trkpt lat="38.808603" lon="-0.518736">
        <ele>718.008</ele>
        <time>2020-10-06T20:41:48Z</time>
      </trkpt>
      <trkpt lat="38.808714" lon="-0.518956">
        <ele>717.496</ele>
        <time>2020-10-06T20:41:51Z</time>
      </trkpt>
      <trkpt lat="38.808743" lon="-0.519035">
        <ele>717.239</ele>
        <time>2020-10-06T20:41:52Z</time>
      </trkpt>
      <trkpt lat="38.808796" lon="-0.519185">
        <ele>717.031</ele>
        <time>2020-10-06T20:41:54Z</time>
      </trkpt>
      <trkpt lat="38.808855" lon="-0.519328">
        <ele>717.019</ele>
        <time>2020-10-06T20:41:56Z</time>
      </trkpt>
      <trkpt lat="38.808996" lon="-0.519631">
        <ele>716.066</ele>
        <time>2020-10-06T20:42:00Z</time>
      </trkpt>
      <trkpt lat="38.809028" lon="-0.519719">
        <ele>715.622</ele>
        <time>2020-10-06T20:42:01Z</time>
      </trkpt>
      <trkpt lat="38.809080" lon="-0.519928">
        <ele>714.810</ele>
        <time>2020-10-06T20:42:03Z</time>
      </trkpt>
      <trkpt lat="38.809107" lon="-0.520033">
        <ele>714.492</ele>
        <time>2020-10-06T20:42:04Z</time>
      </trkpt>
      <trkpt lat="38.809211" lon="-0.520324">
        <ele>713.679</ele>
        <time>2020-10-06T20:42:07Z</time>
      </trkpt>
      <trkpt lat="38.809290" lon="-0.520502">
        <ele>712.405</ele>
        <time>2020-10-06T20:42:09Z</time>
      </trkpt>
      <trkpt lat="38.809383" lon="-0.520773">
        <ele>711.025</ele>
        <time>2020-10-06T20:42:12Z</time>
      </trkpt>
      <trkpt lat="38.809404" lon="-0.520868">
        <ele>710.608</ele>
        <time>2020-10-06T20:42:13Z</time>
      </trkpt>
      <trkpt lat="38.809417" lon="-0.520969">
        <ele>710.292</ele>
        <time>2020-10-06T20:42:14Z</time>
      </trkpt>
      <trkpt lat="38.809446" lon="-0.521172">
        <ele>709.845</ele>
        <time>2020-10-06T20:42:16Z</time>
      </trkpt>
      <trkpt lat="38.809500" lon="-0.521473">
        <ele>708.657</ele>
        <time>2020-10-06T20:42:19Z</time>
      </trkpt>
      <trkpt lat="38.809513" lon="-0.521576">
        <ele>708.265</ele>
        <time>2020-10-06T20:42:20Z</time>
      </trkpt>
      <trkpt lat="38.809544" lon="-0.521790">
        <ele>707.412</ele>
        <time>2020-10-06T20:42:22Z</time>
      </trkpt>
      <trkpt lat="38.809606" lon="-0.522103">
        <ele>706.218</ele>
        <time>2020-10-06T20:42:25Z</time>
      </trkpt>
      <trkpt lat="38.809643" lon="-0.522322">
        <ele>704.846</ele>
        <time>2020-10-06T20:42:27Z</time>
      </trkpt>
      <trkpt lat="38.809702" lon="-0.522651">
        <ele>703.648</ele>
        <time>2020-10-06T20:42:30Z</time>
      </trkpt>
      <trkpt lat="38.809754" lon="-0.522964">
        <ele>702.254</ele>
        <time>2020-10-06T20:42:33Z</time>
      </trkpt>
      <trkpt lat="38.809768" lon="-0.523065">
        <ele>701.656</ele>
        <time>2020-10-06T20:42:34Z</time>
      </trkpt>
      <trkpt lat="38.809785" lon="-0.523167">
        <ele>701.011</ele>
        <time>2020-10-06T20:42:35Z</time>
      </trkpt>
      <trkpt lat="38.809828" lon="-0.523484">
        <ele>699.808</ele>
        <time>2020-10-06T20:42:38Z</time>
      </trkpt>
      <trkpt lat="38.809871" lon="-0.523809">
        <ele>698.440</ele>
        <time>2020-10-06T20:42:41Z</time>
      </trkpt>
      <trkpt lat="38.809916" lon="-0.524144">
        <ele>697.423</ele>
        <time>2020-10-06T20:42:44Z</time>
      </trkpt>
      <trkpt lat="38.809932" lon="-0.524370">
        <ele>696.235</ele>
        <time>2020-10-06T20:42:46Z</time>
      </trkpt>
      <trkpt lat="38.809938" lon="-0.524487">
        <ele>695.653</ele>
        <time>2020-10-06T20:42:47Z</time>
      </trkpt>
      <trkpt lat="38.809951" lon="-0.524609">
        <ele>695.020</ele>
        <time>2020-10-06T20:42:48Z</time>
      </trkpt>
      <trkpt lat="38.810006" lon="-0.524831">
        <ele>693.846</ele>
        <time>2020-10-06T20:42:50Z</time>
      </trkpt>
      <trkpt lat="38.810044" lon="-0.524935">
        <ele>693.054</ele>
        <time>2020-10-06T20:42:51Z</time>
      </trkpt>
      <trkpt lat="38.810083" lon="-0.525044">
        <ele>692.446</ele>
        <time>2020-10-06T20:42:52Z</time>
      </trkpt>
      <trkpt lat="38.810116" lon="-0.525158">
        <ele>691.865</ele>
        <time>2020-10-06T20:42:53Z</time>
      </trkpt>
      <trkpt lat="38.810145" lon="-0.525273">
        <ele>691.268</ele>
        <time>2020-10-06T20:42:54Z</time>
      </trkpt>
      <trkpt lat="38.810179" lon="-0.525390">
        <ele>690.614</ele>
        <time>2020-10-06T20:42:55Z</time>
      </trkpt>
      <trkpt lat="38.810218" lon="-0.525502">
        <ele>690.208</ele>
        <time>2020-10-06T20:42:56Z</time>
      </trkpt>
      <trkpt lat="38.810318" lon="-0.525692">
        <ele>688.481</ele>
        <time>2020-10-06T20:42:58Z</time>
      </trkpt>
      <trkpt lat="38.810359" lon="-0.525771">
        <ele>687.824</ele>
        <time>2020-10-06T20:42:59Z</time>
      </trkpt>
      <trkpt lat="38.810388" lon="-0.525847">
        <ele>687.266</ele>
        <time>2020-10-06T20:43:00Z</time>
      </trkpt>
      <trkpt lat="38.810402" lon="-0.525931">
        <ele>686.834</ele>
        <time>2020-10-06T20:43:01Z</time>
      </trkpt>
      <trkpt lat="38.810399" lon="-0.526024">
        <ele>686.291</ele>
        <time>2020-10-06T20:43:02Z</time>
      </trkpt>
      <trkpt lat="38.810386" lon="-0.526121">
        <ele>685.877</ele>
        <time>2020-10-06T20:43:03Z</time>
      </trkpt>
      <trkpt lat="38.810371" lon="-0.526224">
        <ele>685.285</ele>
        <time>2020-10-06T20:43:04Z</time>
      </trkpt>
      <trkpt lat="38.810361" lon="-0.526342">
        <ele>684.477</ele>
        <time>2020-10-06T20:43:05Z</time>
      </trkpt>
      <trkpt lat="38.810357" lon="-0.526465">
        <ele>683.641</ele>
        <time>2020-10-06T20:43:06Z</time>
      </trkpt>
      <trkpt lat="38.810360" lon="-0.526591">
        <ele>682.881</ele>
        <time>2020-10-06T20:43:07Z</time>
      </trkpt>
      <trkpt lat="38.810362" lon="-0.526718">
        <ele>682.209</ele>
        <time>2020-10-06T20:43:08Z</time>
      </trkpt>
      <trkpt lat="38.810406" lon="-0.527350">
        <ele>681.208</ele>
        <time>2020-10-06T20:43:13Z</time>
      </trkpt>
      <trkpt lat="38.810471" lon="-0.527827">
        <ele>680.049</ele>
        <time>2020-10-06T20:43:17Z</time>
      </trkpt>
      <trkpt lat="38.810486" lon="-0.528056">
        <ele>679.422</ele>
        <time>2020-10-06T20:43:19Z</time>
      </trkpt>
      <trkpt lat="38.810499" lon="-0.528286">
        <ele>679.044</ele>
        <time>2020-10-06T20:43:21Z</time>
      </trkpt>
      <trkpt lat="38.810505" lon="-0.528727">
        <ele>678.262</ele>
        <time>2020-10-06T20:43:25Z</time>
      </trkpt>
      <trkpt lat="38.810499" lon="-0.528938">
        <ele>677.859</ele>
        <time>2020-10-06T20:43:27Z</time>
      </trkpt>
      <trkpt lat="38.810472" lon="-0.529349">
        <ele>677.295</ele>
        <time>2020-10-06T20:43:31Z</time>
      </trkpt>
      <trkpt lat="38.810458" lon="-0.529446">
        <ele>677.243</ele>
        <time>2020-10-06T20:43:32Z</time>
      </trkpt>
      <trkpt lat="38.810430" lon="-0.529637">
        <ele>676.895</ele>
        <time>2020-10-06T20:43:34Z</time>
      </trkpt>
      <trkpt lat="38.810415" lon="-0.529902">
        <ele>677.033</ele>
        <time>2020-10-06T20:43:37Z</time>
      </trkpt>
      <trkpt lat="38.810397" lon="-0.530130">
        <ele>677.623</ele>
        <time>2020-10-06T20:43:40Z</time>
      </trkpt>
      <trkpt lat="38.810391" lon="-0.530267">
        <ele>678.215</ele>
        <time>2020-10-06T20:43:42Z</time>
      </trkpt>
      <trkpt lat="38.810389" lon="-0.530335">
        <ele>678.608</ele>
        <time>2020-10-06T20:43:43Z</time>
      </trkpt>
      <trkpt lat="38.810388" lon="-0.530463">
        <ele>679.268</ele>
        <time>2020-10-06T20:43:45Z</time>
      </trkpt>
      <trkpt lat="38.810374" lon="-0.530750">
        <ele>679.861</ele>
        <time>2020-10-06T20:43:50Z</time>
      </trkpt>
      <trkpt lat="38.810382" lon="-0.530974">
        <ele>680.223</ele>
        <time>2020-10-06T20:43:54Z</time>
      </trkpt>
      <trkpt lat="38.810386" lon="-0.531186">
        <ele>680.821</ele>
        <time>2020-10-06T20:43:58Z</time>
      </trkpt>
      <trkpt lat="38.810383" lon="-0.531279">
        <ele>681.298</ele>
        <time>2020-10-06T20:44:00Z</time>
      </trkpt>
      <trkpt lat="38.810383" lon="-0.531517">
        <ele>682.244</ele>
        <time>2020-10-06T20:44:05Z</time>
      </trkpt>
      <trkpt lat="38.810391" lon="-0.531670">
        <ele>682.442</ele>
        <time>2020-10-06T20:44:08Z</time>
      </trkpt>
      <trkpt lat="38.810392" lon="-0.531785">
        <ele>682.484</ele>
        <time>2020-10-06T20:44:10Z</time>
      </trkpt>
      <trkpt lat="38.810393" lon="-0.531901">
        <ele>682.458</ele>
        <time>2020-10-06T20:44:12Z</time>
      </trkpt>
      <trkpt lat="38.810395" lon="-0.532016">
        <ele>682.252</ele>
        <time>2020-10-06T20:44:14Z</time>
      </trkpt>
      <trkpt lat="38.810393" lon="-0.532075">
        <ele>682.217</ele>
        <time>2020-10-06T20:44:15Z</time>
      </trkpt>
      <trkpt lat="38.810403" lon="-0.532518">
        <ele>681.608</ele>
        <time>2020-10-06T20:44:22Z</time>
      </trkpt>
      <trkpt lat="38.810406" lon="-0.532583">
        <ele>681.650</ele>
        <time>2020-10-06T20:44:23Z</time>
      </trkpt>
      <trkpt lat="38.810412" lon="-0.532864">
        <ele>681.233</ele>
        <time>2020-10-06T20:44:27Z</time>
      </trkpt>
      <trkpt lat="38.810409" lon="-0.532939">
        <ele>681.215</ele>
        <time>2020-10-06T20:44:28Z</time>
      </trkpt>
      <trkpt lat="38.810390" lon="-0.533102">
        <ele>681.063</ele>
        <time>2020-10-06T20:44:30Z</time>
      </trkpt>
      <trkpt lat="38.810366" lon="-0.533377">
        <ele>680.280</ele>
        <time>2020-10-06T20:44:33Z</time>
      </trkpt>
      <trkpt lat="38.810353" lon="-0.533660">
        <ele>679.236</ele>
        <time>2020-10-06T20:44:36Z</time>
      </trkpt>
      <trkpt lat="38.810353" lon="-0.533755">
        <ele>679.054</ele>
        <time>2020-10-06T20:44:37Z</time>
      </trkpt>
      <trkpt lat="38.810375" lon="-0.534203">
        <ele>678.676</ele>
        <time>2020-10-06T20:44:42Z</time>
      </trkpt>
      <trkpt lat="38.810387" lon="-0.534571">
        <ele>678.621</ele>
        <time>2020-10-06T20:44:46Z</time>
      </trkpt>
      <trkpt lat="38.810372" lon="-0.534732">
        <ele>679.041</ele>
        <time>2020-10-06T20:44:48Z</time>
      </trkpt>
      <trkpt lat="38.810274" lon="-0.535145">
        <ele>679.805</ele>
        <time>2020-10-06T20:44:54Z</time>
      </trkpt>
      <trkpt lat="38.810146" lon="-0.535518">
        <ele>679.608</ele>
        <time>2020-10-06T20:45:00Z</time>
      </trkpt>
      <trkpt lat="38.810110" lon="-0.535577">
        <ele>679.617</ele>
        <time>2020-10-06T20:45:01Z</time>
      </trkpt>
      <trkpt lat="38.809940" lon="-0.535743">
        <ele>678.630</ele>
        <time>2020-10-06T20:45:04Z</time>
      </trkpt>
      <trkpt lat="38.809719" lon="-0.535956">
        <ele>677.882</ele>
        <time>2020-10-06T20:45:08Z</time>
      </trkpt>
      <trkpt lat="38.809673" lon="-0.536011">
        <ele>678.020</ele>
        <time>2020-10-06T20:45:09Z</time>
      </trkpt>
      <trkpt lat="38.809608" lon="-0.536132">
        <ele>678.097</ele>
        <time>2020-10-06T20:45:11Z</time>
      </trkpt>
      <trkpt lat="38.809555" lon="-0.536391">
        <ele>678.243</ele>
        <time>2020-10-06T20:45:15Z</time>
      </trkpt>
      <trkpt lat="38.809506" lon="-0.536642">
        <ele>678.291</ele>
        <time>2020-10-06T20:45:19Z</time>
      </trkpt>
      <trkpt lat="38.809456" lon="-0.536822">
        <ele>678.223</ele>
        <time>2020-10-06T20:45:22Z</time>
      </trkpt>
      <trkpt lat="38.809337" lon="-0.537192">
        <ele>677.674</ele>
        <time>2020-10-06T20:45:28Z</time>
      </trkpt>
      <trkpt lat="38.809304" lon="-0.537257">
        <ele>677.456</ele>
        <time>2020-10-06T20:45:30Z</time>
      </trkpt>
      <trkpt lat="38.809301" lon="-0.537338">
        <ele>677.421</ele>
        <time>2020-10-06T20:45:34Z</time>
      </trkpt>
      <trkpt lat="38.809293" lon="-0.537366">
        <ele>677.208</ele>
        <time>2020-10-06T20:45:36Z</time>
      </trkpt>
      <trkpt lat="38.809293" lon="-0.537366">
        <ele>676.822</ele>
        <time>2020-10-06T20:46:01Z</time>
      </trkpt>
      <trkpt lat="38.809293" lon="-0.537366">
        <ele>676.845</ele>
        <time>2020-10-06T20:46:02Z</time>
      </trkpt>
      <trkpt lat="38.809293" lon="-0.537366">
        <ele>676.897</ele>
        <time>2020-10-06T20:46:03Z</time>
      </trkpt>
      <trkpt lat="38.809293" lon="-0.537368">
        <ele>676.825</ele>
        <time>2020-10-06T20:46:05Z</time>
      </trkpt>
      <trkpt lat="38.809280" lon="-0.537444">
        <ele>676.612</ele>
        <time>2020-10-06T20:46:08Z</time>
      </trkpt>
      <trkpt lat="38.809234" lon="-0.537642">
        <ele>675.658</ele>
        <time>2020-10-06T20:46:14Z</time>
      </trkpt>
      <trkpt lat="38.809211" lon="-0.537787">
        <ele>674.676</ele>
        <time>2020-10-06T20:46:18Z</time>
      </trkpt>
      <trkpt lat="38.809162" lon="-0.537916">
        <ele>674.068</ele>
        <time>2020-10-06T20:46:21Z</time>
      </trkpt>
      <trkpt lat="38.809096" lon="-0.538095">
        <ele>673.656</ele>
        <time>2020-10-06T20:46:25Z</time>
      </trkpt>
      <trkpt lat="38.809036" lon="-0.538190">
        <ele>673.259</ele>
        <time>2020-10-06T20:46:28Z</time>
      </trkpt>
      <trkpt lat="38.808951" lon="-0.538321">
        <ele>672.214</ele>
        <time>2020-10-06T20:46:32Z</time>
      </trkpt>
      <trkpt lat="38.808915" lon="-0.538402">
        <ele>671.208</ele>
        <time>2020-10-06T20:46:34Z</time>
      </trkpt>
      <trkpt lat="38.808875" lon="-0.538547">
        <ele>669.830</ele>
        <time>2020-10-06T20:46:37Z</time>
      </trkpt>
      <trkpt lat="38.808855" lon="-0.538664">
        <ele>669.013</ele>
        <time>2020-10-06T20:46:39Z</time>
      </trkpt>
      <trkpt lat="38.808846" lon="-0.538723">
        <ele>668.685</ele>
        <time>2020-10-06T20:46:40Z</time>
      </trkpt>
      <trkpt lat="38.808825" lon="-0.538842">
        <ele>667.643</ele>
        <time>2020-10-06T20:46:42Z</time>
      </trkpt>
      <trkpt lat="38.808813" lon="-0.538896">
        <ele>667.240</ele>
        <time>2020-10-06T20:46:43Z</time>
      </trkpt>
      <trkpt lat="38.808780" lon="-0.538991">
        <ele>666.676</ele>
        <time>2020-10-06T20:46:45Z</time>
      </trkpt>
      <trkpt lat="38.808739" lon="-0.539175">
        <ele>665.854</ele>
        <time>2020-10-06T20:46:50Z</time>
      </trkpt>
      <trkpt lat="38.808792" lon="-0.539236">
        <ele>665.436</ele>
        <time>2020-10-06T20:46:53Z</time>
      </trkpt>
      <trkpt lat="38.808822" lon="-0.539248">
        <ele>665.261</ele>
        <time>2020-10-06T20:46:54Z</time>
      </trkpt>
      <trkpt lat="38.808877" lon="-0.539272">
        <ele>664.421</ele>
        <time>2020-10-06T20:46:56Z</time>
      </trkpt>
      <trkpt lat="38.808907" lon="-0.539314">
        <ele>663.613</ele>
        <time>2020-10-06T20:46:58Z</time>
      </trkpt>
      <trkpt lat="38.808918" lon="-0.539340">
        <ele>663.408</ele>
        <time>2020-10-06T20:46:59Z</time>
      </trkpt>
      <trkpt lat="38.808979" lon="-0.539465">
        <ele>662.231</ele>
        <time>2020-10-06T20:47:04Z</time>
      </trkpt>
      <trkpt lat="38.809001" lon="-0.539512">
        <ele>661.674</ele>
        <time>2020-10-06T20:47:06Z</time>
      </trkpt>
      <trkpt lat="38.809022" lon="-0.539555">
        <ele>661.036</ele>
        <time>2020-10-06T20:47:08Z</time>
      </trkpt>
      <trkpt lat="38.809062" lon="-0.539617">
        <ele>660.094</ele>
        <time>2020-10-06T20:47:11Z</time>
      </trkpt>
      <trkpt lat="38.809078" lon="-0.539680">
        <ele>659.421</ele>
        <time>2020-10-06T20:47:13Z</time>
      </trkpt>
      <trkpt lat="38.809081" lon="-0.539743">
        <ele>658.637</ele>
        <time>2020-10-06T20:47:15Z</time>
      </trkpt>
      <trkpt lat="38.809089" lon="-0.539826">
        <ele>657.685</ele>
        <time>2020-10-06T20:47:18Z</time>
      </trkpt>
      <trkpt lat="38.809099" lon="-0.539885">
        <ele>657.017</ele>
        <time>2020-10-06T20:47:20Z</time>
      </trkpt>
      <trkpt lat="38.809103" lon="-0.539950">
        <ele>656.489</ele>
        <time>2020-10-06T20:47:22Z</time>
      </trkpt>
      <trkpt lat="38.809099" lon="-0.540028">
        <ele>655.406</ele>
        <time>2020-10-06T20:47:25Z</time>
      </trkpt>
      <trkpt lat="38.809094" lon="-0.540075">
        <ele>654.626</ele>
        <time>2020-10-06T20:47:27Z</time>
      </trkpt>
      <trkpt lat="38.809092" lon="-0.540098">
        <ele>654.208</ele>
        <time>2020-10-06T20:47:28Z</time>
      </trkpt>
      <trkpt lat="38.809081" lon="-0.540171">
        <ele>653.613</ele>
        <time>2020-10-06T20:47:31Z</time>
      </trkpt>
      <trkpt lat="38.809092" lon="-0.540228">
        <ele>652.836</ele>
        <time>2020-10-06T20:47:33Z</time>
      </trkpt>
      <trkpt lat="38.809121" lon="-0.540321">
        <ele>651.698</ele>
        <time>2020-10-06T20:47:36Z</time>
      </trkpt>
      <trkpt lat="38.809138" lon="-0.540393">
        <ele>650.646</ele>
        <time>2020-10-06T20:47:38Z</time>
      </trkpt>
      <trkpt lat="38.809152" lon="-0.540459">
        <ele>649.853</ele>
        <time>2020-10-06T20:47:40Z</time>
      </trkpt>
      <trkpt lat="38.809158" lon="-0.540498">
        <ele>649.219</ele>
        <time>2020-10-06T20:47:41Z</time>
      </trkpt>
      <trkpt lat="38.809172" lon="-0.540569">
        <ele>648.267</ele>
        <time>2020-10-06T20:47:43Z</time>
      </trkpt>
      <trkpt lat="38.809171" lon="-0.540651">
        <ele>646.849</ele>
        <time>2020-10-06T20:47:46Z</time>
      </trkpt>
      <trkpt lat="38.809168" lon="-0.540680">
        <ele>646.261</ele>
        <time>2020-10-06T20:47:47Z</time>
      </trkpt>
      <trkpt lat="38.809162" lon="-0.540745">
        <ele>645.621</ele>
        <time>2020-10-06T20:47:49Z</time>
      </trkpt>
      <trkpt lat="38.809163" lon="-0.540838">
        <ele>644.613</ele>
        <time>2020-10-06T20:47:52Z</time>
      </trkpt>
      <trkpt lat="38.809164" lon="-0.540871">
        <ele>644.408</ele>
        <time>2020-10-06T20:47:53Z</time>
      </trkpt>
      <trkpt lat="38.809191" lon="-0.541030">
        <ele>643.091</ele>
        <time>2020-10-06T20:47:57Z</time>
      </trkpt>
      <trkpt lat="38.809199" lon="-0.541078">
        <ele>642.254</ele>
        <time>2020-10-06T20:47:58Z</time>
      </trkpt>
      <trkpt lat="38.809205" lon="-0.541131">
        <ele>641.666</ele>
        <time>2020-10-06T20:47:59Z</time>
      </trkpt>
      <trkpt lat="38.809212" lon="-0.541346">
        <ele>640.464</ele>
        <time>2020-10-06T20:48:03Z</time>
      </trkpt>
      <trkpt lat="38.809214" lon="-0.541425">
        <ele>639.841</ele>
        <time>2020-10-06T20:48:04Z</time>
      </trkpt>
      <trkpt lat="38.809206" lon="-0.541578">
        <ele>639.057</ele>
        <time>2020-10-06T20:48:06Z</time>
      </trkpt>
      <trkpt lat="38.809208" lon="-0.541639">
        <ele>638.825</ele>
        <time>2020-10-06T20:48:07Z</time>
      </trkpt>
      <trkpt lat="38.809218" lon="-0.541745">
        <ele>638.467</ele>
        <time>2020-10-06T20:48:09Z</time>
      </trkpt>
      <trkpt lat="38.809229" lon="-0.541798">
        <ele>638.013</ele>
        <time>2020-10-06T20:48:10Z</time>
      </trkpt>
      <trkpt lat="38.809237" lon="-0.541847">
        <ele>637.843</ele>
        <time>2020-10-06T20:48:11Z</time>
      </trkpt>
      <trkpt lat="38.809252" lon="-0.542008">
        <ele>637.007</ele>
        <time>2020-10-06T20:48:14Z</time>
      </trkpt>
      <trkpt lat="38.809269" lon="-0.542107">
        <ele>636.808</ele>
        <time>2020-10-06T20:48:16Z</time>
      </trkpt>
      <trkpt lat="38.809305" lon="-0.542270">
        <ele>635.836</ele>
        <time>2020-10-06T20:48:20Z</time>
      </trkpt>
      <trkpt lat="38.809317" lon="-0.542315">
        <ele>635.649</ele>
        <time>2020-10-06T20:48:21Z</time>
      </trkpt>
      <trkpt lat="38.809332" lon="-0.542458">
        <ele>634.661</ele>
        <time>2020-10-06T20:48:24Z</time>
      </trkpt>
      <trkpt lat="38.809337" lon="-0.542505">
        <ele>634.089</ele>
        <time>2020-10-06T20:48:25Z</time>
      </trkpt>
      <trkpt lat="38.809343" lon="-0.542593">
        <ele>633.296</ele>
        <time>2020-10-06T20:48:27Z</time>
      </trkpt>
      <trkpt lat="38.809340" lon="-0.542710">
        <ele>631.822</ele>
        <time>2020-10-06T20:48:30Z</time>
      </trkpt>
      <trkpt lat="38.809329" lon="-0.542834">
        <ele>630.810</ele>
        <time>2020-10-06T20:48:34Z</time>
      </trkpt>
      <trkpt lat="38.809332" lon="-0.542897">
        <ele>630.462</ele>
        <time>2020-10-06T20:48:36Z</time>
      </trkpt>
      <trkpt lat="38.809372" lon="-0.542927">
        <ele>630.076</ele>
        <time>2020-10-06T20:48:38Z</time>
      </trkpt>
      <trkpt lat="38.809392" lon="-0.542913">
        <ele>629.890</ele>
        <time>2020-10-06T20:48:39Z</time>
      </trkpt>
      <trkpt lat="38.809420" lon="-0.542860">
        <ele>629.619</ele>
        <time>2020-10-06T20:48:41Z</time>
      </trkpt>
      <trkpt lat="38.809470" lon="-0.542731">
        <ele>629.608</ele>
        <time>2020-10-06T20:48:46Z</time>
      </trkpt>
      <trkpt lat="38.809486" lon="-0.542700">
        <ele>629.642</ele>
        <time>2020-10-06T20:48:47Z</time>
      </trkpt>
      <trkpt lat="38.809560" lon="-0.542491">
        <ele>629.455</ele>
        <time>2020-10-06T20:48:52Z</time>
      </trkpt>
      <trkpt lat="38.809621" lon="-0.542247">
        <ele>628.687</ele>
        <time>2020-10-06T20:48:57Z</time>
      </trkpt>
      <trkpt lat="38.809623" lon="-0.542195">
        <ele>628.475</ele>
        <time>2020-10-06T20:48:58Z</time>
      </trkpt>
      <trkpt lat="38.809622" lon="-0.542082">
        <ele>628.092</ele>
        <time>2020-10-06T20:49:00Z</time>
      </trkpt>
      <trkpt lat="38.809588" lon="-0.541874">
        <ele>627.678</ele>
        <time>2020-10-06T20:49:03Z</time>
      </trkpt>
      <trkpt lat="38.809565" lon="-0.541720">
        <ele>627.086</ele>
        <time>2020-10-06T20:49:05Z</time>
      </trkpt>
      <trkpt lat="38.809573" lon="-0.541638">
        <ele>626.638</ele>
        <time>2020-10-06T20:49:06Z</time>
      </trkpt>
      <trkpt lat="38.809598" lon="-0.541557">
        <ele>626.225</ele>
        <time>2020-10-06T20:49:07Z</time>
      </trkpt>
      <trkpt lat="38.809689" lon="-0.541436">
        <ele>626.026</ele>
        <time>2020-10-06T20:49:09Z</time>
      </trkpt>
      <trkpt lat="38.809741" lon="-0.541401">
        <ele>626.008</ele>
        <time>2020-10-06T20:49:10Z</time>
      </trkpt>
      <trkpt lat="38.809796" lon="-0.541384">
        <ele>626.008</ele>
        <time>2020-10-06T20:49:11Z</time>
      </trkpt>
      <trkpt lat="38.810001" lon="-0.541334">
        <ele>626.087</ele>
        <time>2020-10-06T20:49:15Z</time>
      </trkpt>
      <trkpt lat="38.810049" lon="-0.541313">
        <ele>626.010</ele>
        <time>2020-10-06T20:49:16Z</time>
      </trkpt>
      <trkpt lat="38.810155" lon="-0.541195">
        <ele>626.272</ele>
        <time>2020-10-06T20:49:19Z</time>
      </trkpt>
      <trkpt lat="38.810203" lon="-0.541091">
        <ele>626.450</ele>
        <time>2020-10-06T20:49:21Z</time>
      </trkpt>
      <trkpt lat="38.810268" lon="-0.540914">
        <ele>626.267</ele>
        <time>2020-10-06T20:49:24Z</time>
      </trkpt>
      <trkpt lat="38.810364" lon="-0.540572">
        <ele>625.463</ele>
        <time>2020-10-06T20:49:29Z</time>
      </trkpt>
      <trkpt lat="38.810501" lon="-0.540144">
        <ele>624.831</ele>
        <time>2020-10-06T20:49:35Z</time>
      </trkpt>
      <trkpt lat="38.810581" lon="-0.540061">
        <ele>624.233</ele>
        <time>2020-10-06T20:49:37Z</time>
      </trkpt>
      <trkpt lat="38.810627" lon="-0.540056">
        <ele>623.837</ele>
        <time>2020-10-06T20:49:38Z</time>
      </trkpt>
      <trkpt lat="38.810670" lon="-0.540074">
        <ele>623.849</ele>
        <time>2020-10-06T20:49:39Z</time>
      </trkpt>
      <trkpt lat="38.810750" lon="-0.540135">
        <ele>623.613</ele>
        <time>2020-10-06T20:49:41Z</time>
      </trkpt>
      <trkpt lat="38.810877" lon="-0.540278">
        <ele>624.008</ele>
        <time>2020-10-06T20:49:44Z</time>
      </trkpt>
      <trkpt lat="38.810927" lon="-0.540302">
        <ele>624.478</ele>
        <time>2020-10-06T20:49:45Z</time>
      </trkpt>
      <trkpt lat="38.810982" lon="-0.540304">
        <ele>624.861</ele>
        <time>2020-10-06T20:49:46Z</time>
      </trkpt>
      <trkpt lat="38.811080" lon="-0.540254">
        <ele>625.433</ele>
        <time>2020-10-06T20:49:48Z</time>
      </trkpt>
      <trkpt lat="38.811218" lon="-0.540122">
        <ele>625.621</ele>
        <time>2020-10-06T20:49:51Z</time>
      </trkpt>
      <trkpt lat="38.811370" lon="-0.539946">
        <ele>625.298</ele>
        <time>2020-10-06T20:49:54Z</time>
      </trkpt>
      <trkpt lat="38.811418" lon="-0.539871">
        <ele>625.044</ele>
        <time>2020-10-06T20:49:55Z</time>
      </trkpt>
      <trkpt lat="38.811548" lon="-0.539656">
        <ele>624.212</ele>
        <time>2020-10-06T20:49:58Z</time>
      </trkpt>
      <trkpt lat="38.811639" lon="-0.539513">
        <ele>623.854</ele>
        <time>2020-10-06T20:50:00Z</time>
      </trkpt>
      <trkpt lat="38.811785" lon="-0.539298">
        <ele>623.022</ele>
        <time>2020-10-06T20:50:03Z</time>
      </trkpt>
      <trkpt lat="38.811933" lon="-0.539067">
        <ele>622.062</ele>
        <time>2020-10-06T20:50:06Z</time>
      </trkpt>
      <trkpt lat="38.812033" lon="-0.538905">
        <ele>621.408</ele>
        <time>2020-10-06T20:50:08Z</time>
      </trkpt>
      <trkpt lat="38.812083" lon="-0.538822">
        <ele>621.008</ele>
        <time>2020-10-06T20:50:09Z</time>
      </trkpt>
      <trkpt lat="38.812184" lon="-0.538658">
        <ele>620.067</ele>
        <time>2020-10-06T20:50:11Z</time>
      </trkpt>
      <trkpt lat="38.812352" lon="-0.538402">
        <ele>618.810</ele>
        <time>2020-10-06T20:50:14Z</time>
      </trkpt>
      <trkpt lat="38.812462" lon="-0.538227">
        <ele>618.492</ele>
        <time>2020-10-06T20:50:16Z</time>
      </trkpt>
      <trkpt lat="38.812571" lon="-0.538046">
        <ele>617.690</ele>
        <time>2020-10-06T20:50:18Z</time>
      </trkpt>
      <trkpt lat="38.812677" lon="-0.537862">
        <ele>616.667</ele>
        <time>2020-10-06T20:50:20Z</time>
      </trkpt>
      <trkpt lat="38.812718" lon="-0.537762">
        <ele>616.223</ele>
        <time>2020-10-06T20:50:21Z</time>
      </trkpt>
      <trkpt lat="38.812767" lon="-0.537545">
        <ele>615.641</ele>
        <time>2020-10-06T20:50:23Z</time>
      </trkpt>
      <trkpt lat="38.812783" lon="-0.537321">
        <ele>614.643</ele>
        <time>2020-10-06T20:50:25Z</time>
      </trkpt>
      <trkpt lat="38.812789" lon="-0.537209">
        <ele>614.262</ele>
        <time>2020-10-06T20:50:26Z</time>
      </trkpt>
      <trkpt lat="38.812812" lon="-0.536784">
        <ele>613.283</ele>
        <time>2020-10-06T20:50:30Z</time>
      </trkpt>
      <trkpt lat="38.812834" lon="-0.536687">
        <ele>613.011</ele>
        <time>2020-10-06T20:50:31Z</time>
      </trkpt>
      <trkpt lat="38.812866" lon="-0.536596">
        <ele>612.808</ele>
        <time>2020-10-06T20:50:32Z</time>
      </trkpt>
      <trkpt lat="38.812956" lon="-0.536447">
        <ele>612.491</ele>
        <time>2020-10-06T20:50:34Z</time>
      </trkpt>
      <trkpt lat="38.813210" lon="-0.536148">
        <ele>611.864</ele>
        <time>2020-10-06T20:50:39Z</time>
      </trkpt>
      <trkpt lat="38.813256" lon="-0.536077">
        <ele>611.456</ele>
        <time>2020-10-06T20:50:40Z</time>
      </trkpt>
      <trkpt lat="38.813445" lon="-0.535687">
        <ele>610.824</ele>
        <time>2020-10-06T20:50:45Z</time>
      </trkpt>
      <trkpt lat="38.813473" lon="-0.535604">
        <ele>610.691</ele>
        <time>2020-10-06T20:50:46Z</time>
      </trkpt>
      <trkpt lat="38.813502" lon="-0.535517">
        <ele>610.257</ele>
        <time>2020-10-06T20:50:47Z</time>
      </trkpt>
      <trkpt lat="38.813575" lon="-0.535161">
        <ele>609.895</ele>
        <time>2020-10-06T20:50:51Z</time>
      </trkpt>
      <trkpt lat="38.813573" lon="-0.535070">
        <ele>609.697</ele>
        <time>2020-10-06T20:50:52Z</time>
      </trkpt>
      <trkpt lat="38.813562" lon="-0.534980">
        <ele>609.494</ele>
        <time>2020-10-06T20:50:53Z</time>
      </trkpt>
      <trkpt lat="38.813486" lon="-0.534731">
        <ele>608.657</ele>
        <time>2020-10-06T20:50:56Z</time>
      </trkpt>
      <trkpt lat="38.813405" lon="-0.534453">
        <ele>607.022</ele>
        <time>2020-10-06T20:50:59Z</time>
      </trkpt>
      <trkpt lat="38.813353" lon="-0.534238">
        <ele>605.608</ele>
        <time>2020-10-06T20:51:01Z</time>
      </trkpt>
      <trkpt lat="38.813335" lon="-0.534141">
        <ele>605.024</ele>
        <time>2020-10-06T20:51:02Z</time>
      </trkpt>
      <trkpt lat="38.813321" lon="-0.534053">
        <ele>604.257</ele>
        <time>2020-10-06T20:51:03Z</time>
      </trkpt>
      <trkpt lat="38.813315" lon="-0.533973">
        <ele>603.279</ele>
        <time>2020-10-06T20:51:04Z</time>
      </trkpt>
      <trkpt lat="38.813319" lon="-0.533905">
        <ele>602.677</ele>
        <time>2020-10-06T20:51:05Z</time>
      </trkpt>
      <trkpt lat="38.813339" lon="-0.533845">
        <ele>602.094</ele>
        <time>2020-10-06T20:51:06Z</time>
      </trkpt>
      <trkpt lat="38.813377" lon="-0.533797">
        <ele>601.470</ele>
        <time>2020-10-06T20:51:07Z</time>
      </trkpt>
      <trkpt lat="38.813426" lon="-0.533761">
        <ele>601.048</ele>
        <time>2020-10-06T20:51:08Z</time>
      </trkpt>
      <trkpt lat="38.813481" lon="-0.533734">
        <ele>600.470</ele>
        <time>2020-10-06T20:51:09Z</time>
      </trkpt>
      <trkpt lat="38.813544" lon="-0.533711">
        <ele>599.815</ele>
        <time>2020-10-06T20:51:10Z</time>
      </trkpt>
      <trkpt lat="38.813615" lon="-0.533692">
        <ele>599.465</ele>
        <time>2020-10-06T20:51:11Z</time>
      </trkpt>
      <trkpt lat="38.813687" lon="-0.533671">
        <ele>598.811</ele>
        <time>2020-10-06T20:51:12Z</time>
      </trkpt>
      <trkpt lat="38.813838" lon="-0.533614">
        <ele>598.008</ele>
        <time>2020-10-06T20:51:14Z</time>
      </trkpt>
      <trkpt lat="38.813918" lon="-0.533572">
        <ele>597.656</ele>
        <time>2020-10-06T20:51:15Z</time>
      </trkpt>
      <trkpt lat="38.813998" lon="-0.533518">
        <ele>597.239</ele>
        <time>2020-10-06T20:51:16Z</time>
      </trkpt>
      <trkpt lat="38.814073" lon="-0.533456">
        <ele>596.871</ele>
        <time>2020-10-06T20:51:17Z</time>
      </trkpt>
      <trkpt lat="38.814178" lon="-0.533317">
        <ele>595.499</ele>
        <time>2020-10-06T20:51:19Z</time>
      </trkpt>
      <trkpt lat="38.814202" lon="-0.533153">
        <ele>594.466</ele>
        <time>2020-10-06T20:51:21Z</time>
      </trkpt>
      <trkpt lat="38.814195" lon="-0.533068">
        <ele>594.292</ele>
        <time>2020-10-06T20:51:22Z</time>
      </trkpt>
      <trkpt lat="38.814167" lon="-0.532985">
        <ele>594.020</ele>
        <time>2020-10-06T20:51:23Z</time>
      </trkpt>
      <trkpt lat="38.814089" lon="-0.532831">
        <ele>593.252</ele>
        <time>2020-10-06T20:51:25Z</time>
      </trkpt>
      <trkpt lat="38.814041" lon="-0.532759">
        <ele>592.456</ele>
        <time>2020-10-06T20:51:26Z</time>
      </trkpt>
      <trkpt lat="38.813991" lon="-0.532691">
        <ele>591.459</ele>
        <time>2020-10-06T20:51:27Z</time>
      </trkpt>
      <trkpt lat="38.813908" lon="-0.532575">
        <ele>590.614</ele>
        <time>2020-10-06T20:51:29Z</time>
      </trkpt>
      <trkpt lat="38.813894" lon="-0.532519">
        <ele>590.408</ele>
        <time>2020-10-06T20:51:30Z</time>
      </trkpt>
      <trkpt lat="38.813904" lon="-0.532460">
        <ele>590.210</ele>
        <time>2020-10-06T20:51:31Z</time>
      </trkpt>
      <trkpt lat="38.813935" lon="-0.532405">
        <ele>590.043</ele>
        <time>2020-10-06T20:51:32Z</time>
      </trkpt>
      <trkpt lat="38.813981" lon="-0.532357">
        <ele>589.625</ele>
        <time>2020-10-06T20:51:33Z</time>
      </trkpt>
      <trkpt lat="38.814040" lon="-0.532310">
        <ele>589.263</ele>
        <time>2020-10-06T20:51:34Z</time>
      </trkpt>
      <trkpt lat="38.814105" lon="-0.532263">
        <ele>588.840</ele>
        <time>2020-10-06T20:51:35Z</time>
      </trkpt>
      <trkpt lat="38.814246" lon="-0.532154">
        <ele>588.036</ele>
        <time>2020-10-06T20:51:37Z</time>
      </trkpt>
      <trkpt lat="38.814314" lon="-0.532085">
        <ele>587.294</ele>
        <time>2020-10-06T20:51:38Z</time>
      </trkpt>
      <trkpt lat="38.814378" lon="-0.532003">
        <ele>586.456</ele>
        <time>2020-10-06T20:51:39Z</time>
      </trkpt>
      <trkpt lat="38.814510" lon="-0.531821">
        <ele>585.063</ele>
        <time>2020-10-06T20:51:41Z</time>
      </trkpt>
      <trkpt lat="38.814631" lon="-0.531650">
        <ele>583.444</ele>
        <time>2020-10-06T20:51:43Z</time>
      </trkpt>
      <trkpt lat="38.814681" lon="-0.531568">
        <ele>582.818</ele>
        <time>2020-10-06T20:51:44Z</time>
      </trkpt>
      <trkpt lat="38.814729" lon="-0.531480">
        <ele>581.808</ele>
        <time>2020-10-06T20:51:45Z</time>
      </trkpt>
      <trkpt lat="38.814766" lon="-0.531391">
        <ele>580.671</ele>
        <time>2020-10-06T20:51:46Z</time>
      </trkpt>
      <trkpt lat="38.814787" lon="-0.531292">
        <ele>580.044</ele>
        <time>2020-10-06T20:51:47Z</time>
      </trkpt>
      <trkpt lat="38.814804" lon="-0.531188">
        <ele>579.286</ele>
        <time>2020-10-06T20:51:48Z</time>
      </trkpt>
      <trkpt lat="38.814817" lon="-0.531090">
        <ele>578.294</ele>
        <time>2020-10-06T20:51:49Z</time>
      </trkpt>
      <trkpt lat="38.814834" lon="-0.530999">
        <ele>576.891</ele>
        <time>2020-10-06T20:51:50Z</time>
      </trkpt>
      <trkpt lat="38.814855" lon="-0.530924">
        <ele>575.847</ele>
        <time>2020-10-06T20:51:51Z</time>
      </trkpt>
      <trkpt lat="38.814883" lon="-0.530866">
        <ele>575.055</ele>
        <time>2020-10-06T20:51:52Z</time>
      </trkpt>
      <trkpt lat="38.814924" lon="-0.530827">
        <ele>574.237</ele>
        <time>2020-10-06T20:51:53Z</time>
      </trkpt>
      <trkpt lat="38.814978" lon="-0.530814">
        <ele>573.644</ele>
        <time>2020-10-06T20:51:54Z</time>
      </trkpt>
      <trkpt lat="38.815039" lon="-0.530822">
        <ele>573.205</ele>
        <time>2020-10-06T20:51:55Z</time>
      </trkpt>
      <trkpt lat="38.815106" lon="-0.530845">
        <ele>572.815</ele>
        <time>2020-10-06T20:51:56Z</time>
      </trkpt>
      <trkpt lat="38.815250" lon="-0.530906">
        <ele>571.608</ele>
        <time>2020-10-06T20:51:58Z</time>
      </trkpt>
      <trkpt lat="38.815398" lon="-0.530918">
        <ele>570.259</ele>
        <time>2020-10-06T20:52:00Z</time>
      </trkpt>
      <trkpt lat="38.815535" lon="-0.530867">
        <ele>568.812</ele>
        <time>2020-10-06T20:52:02Z</time>
      </trkpt>
      <trkpt lat="38.815587" lon="-0.530833">
        <ele>568.224</ele>
        <time>2020-10-06T20:52:03Z</time>
      </trkpt>
      <trkpt lat="38.815631" lon="-0.530792">
        <ele>567.632</ele>
        <time>2020-10-06T20:52:04Z</time>
      </trkpt>
      <trkpt lat="38.815704" lon="-0.530683">
        <ele>566.059</ele>
        <time>2020-10-06T20:52:06Z</time>
      </trkpt>
      <trkpt lat="38.815713" lon="-0.530516">
        <ele>564.885</ele>
        <time>2020-10-06T20:52:08Z</time>
      </trkpt>
      <trkpt lat="38.815704" lon="-0.530415">
        <ele>564.093</ele>
        <time>2020-10-06T20:52:09Z</time>
      </trkpt>
      <trkpt lat="38.815678" lon="-0.530310">
        <ele>563.075</ele>
        <time>2020-10-06T20:52:10Z</time>
      </trkpt>
      <trkpt lat="38.815627" lon="-0.530100">
        <ele>561.691</ele>
        <time>2020-10-06T20:52:12Z</time>
      </trkpt>
      <trkpt lat="38.815589" lon="-0.529883">
        <ele>560.881</ele>
        <time>2020-10-06T20:52:14Z</time>
      </trkpt>
      <trkpt lat="38.815574" lon="-0.529770">
        <ele>560.619</ele>
        <time>2020-10-06T20:52:15Z</time>
      </trkpt>
      <trkpt lat="38.815539" lon="-0.529436">
        <ele>560.008</ele>
        <time>2020-10-06T20:52:18Z</time>
      </trkpt>
      <trkpt lat="38.815532" lon="-0.529328">
        <ele>559.854</ele>
        <time>2020-10-06T20:52:19Z</time>
      </trkpt>
      <trkpt lat="38.815529" lon="-0.529222">
        <ele>559.447</ele>
        <time>2020-10-06T20:52:20Z</time>
      </trkpt>
      <trkpt lat="38.815515" lon="-0.529008">
        <ele>558.049</ele>
        <time>2020-10-06T20:52:22Z</time>
      </trkpt>
      <trkpt lat="38.815485" lon="-0.528807">
        <ele>556.667</ele>
        <time>2020-10-06T20:52:24Z</time>
      </trkpt>
      <trkpt lat="38.815464" lon="-0.528729">
        <ele>556.074</ele>
        <time>2020-10-06T20:52:25Z</time>
      </trkpt>
      <trkpt lat="38.815425" lon="-0.528617">
        <ele>555.660</ele>
        <time>2020-10-06T20:52:26Z</time>
      </trkpt>
      <trkpt lat="38.815386" lon="-0.528526">
        <ele>555.218</ele>
        <time>2020-10-06T20:52:27Z</time>
      </trkpt>
      <trkpt lat="38.815292" lon="-0.528361">
        <ele>554.650</ele>
        <time>2020-10-06T20:52:29Z</time>
      </trkpt>
      <trkpt lat="38.815164" lon="-0.528221">
        <ele>554.081</ele>
        <time>2020-10-06T20:52:31Z</time>
      </trkpt>
      <trkpt lat="38.815021" lon="-0.528118">
        <ele>553.461</ele>
        <time>2020-10-06T20:52:33Z</time>
      </trkpt>
      <trkpt lat="38.814880" lon="-0.528021">
        <ele>552.617</ele>
        <time>2020-10-06T20:52:35Z</time>
      </trkpt>
      <trkpt lat="38.814620" lon="-0.527848">
        <ele>552.008</ele>
        <time>2020-10-06T20:52:39Z</time>
      </trkpt>
      <trkpt lat="38.814472" lon="-0.527800">
        <ele>551.643</ele>
        <time>2020-10-06T20:52:41Z</time>
      </trkpt>
      <trkpt lat="38.814341" lon="-0.527760">
        <ele>551.246</ele>
        <time>2020-10-06T20:52:43Z</time>
      </trkpt>
      <trkpt lat="38.814245" lon="-0.527722">
        <ele>551.098</ele>
        <time>2020-10-06T20:52:45Z</time>
      </trkpt>
      <trkpt lat="38.814142" lon="-0.527690">
        <ele>550.666</ele>
        <time>2020-10-06T20:52:47Z</time>
      </trkpt>
      <trkpt lat="38.814111" lon="-0.527672">
        <ele>550.653</ele>
        <time>2020-10-06T20:52:48Z</time>
      </trkpt>
      <trkpt lat="38.814096" lon="-0.527651">
        <ele>550.489</ele>
        <time>2020-10-06T20:52:49Z</time>
      </trkpt>
      <trkpt lat="38.814094" lon="-0.527556">
        <ele>550.247</ele>
        <time>2020-10-06T20:52:51Z</time>
      </trkpt>
      <trkpt lat="38.814108" lon="-0.527500">
        <ele>550.069</ele>
        <time>2020-10-06T20:52:52Z</time>
      </trkpt>
      <trkpt lat="38.814141" lon="-0.527358">
        <ele>549.078</ele>
        <time>2020-10-06T20:52:54Z</time>
      </trkpt>
      <trkpt lat="38.814192" lon="-0.527190">
        <ele>547.833</ele>
        <time>2020-10-06T20:52:56Z</time>
      </trkpt>
      <trkpt lat="38.814248" lon="-0.527005">
        <ele>546.226</ele>
        <time>2020-10-06T20:52:58Z</time>
      </trkpt>
      <trkpt lat="38.814270" lon="-0.526927">
        <ele>545.208</ele>
        <time>2020-10-06T20:52:59Z</time>
      </trkpt>
      <trkpt lat="38.814306" lon="-0.526806">
        <ele>544.262</ele>
        <time>2020-10-06T20:53:00Z</time>
      </trkpt>
      <trkpt lat="38.814336" lon="-0.526697">
        <ele>543.285</ele>
        <time>2020-10-06T20:53:01Z</time>
      </trkpt>
      <trkpt lat="38.814370" lon="-0.526581">
        <ele>542.657</ele>
        <time>2020-10-06T20:53:02Z</time>
      </trkpt>
      <trkpt lat="38.814460" lon="-0.526337">
        <ele>540.435</ele>
        <time>2020-10-06T20:53:04Z</time>
      </trkpt>
      <trkpt lat="38.814514" lon="-0.526215">
        <ele>539.442</ele>
        <time>2020-10-06T20:53:05Z</time>
      </trkpt>
      <trkpt lat="38.814632" lon="-0.525994">
        <ele>537.688</ele>
        <time>2020-10-06T20:53:07Z</time>
      </trkpt>
      <trkpt lat="38.814701" lon="-0.525897">
        <ele>536.656</ele>
        <time>2020-10-06T20:53:08Z</time>
      </trkpt>
      <trkpt lat="38.814775" lon="-0.525812">
        <ele>535.298</ele>
        <time>2020-10-06T20:53:09Z</time>
      </trkpt>
      <trkpt lat="38.814850" lon="-0.525738">
        <ele>533.881</ele>
        <time>2020-10-06T20:53:10Z</time>
      </trkpt>
      <trkpt lat="38.814938" lon="-0.525680">
        <ele>532.461</ele>
        <time>2020-10-06T20:53:11Z</time>
      </trkpt>
      <trkpt lat="38.815034" lon="-0.525632">
        <ele>531.417</ele>
        <time>2020-10-06T20:53:12Z</time>
      </trkpt>
      <trkpt lat="38.815193" lon="-0.525520">
        <ele>529.608</ele>
        <time>2020-10-06T20:53:14Z</time>
      </trkpt>
      <trkpt lat="38.815312" lon="-0.525417">
        <ele>528.043</ele>
        <time>2020-10-06T20:53:16Z</time>
      </trkpt>
      <trkpt lat="38.815394" lon="-0.525308">
        <ele>526.886</ele>
        <time>2020-10-06T20:53:18Z</time>
      </trkpt>
      <trkpt lat="38.815422" lon="-0.525238">
        <ele>526.268</ele>
        <time>2020-10-06T20:53:19Z</time>
      </trkpt>
      <trkpt lat="38.815443" lon="-0.525157">
        <ele>525.486</ele>
        <time>2020-10-06T20:53:20Z</time>
      </trkpt>
      <trkpt lat="38.815445" lon="-0.524995">
        <ele>524.683</ele>
        <time>2020-10-06T20:53:22Z</time>
      </trkpt>
      <trkpt lat="38.815441" lon="-0.524910">
        <ele>524.059</ele>
        <time>2020-10-06T20:53:23Z</time>
      </trkpt>
      <trkpt lat="38.815426" lon="-0.524826">
        <ele>523.447</ele>
        <time>2020-10-06T20:53:24Z</time>
      </trkpt>
      <trkpt lat="38.815372" lon="-0.524668">
        <ele>522.679</ele>
        <time>2020-10-06T20:53:26Z</time>
      </trkpt>
      <trkpt lat="38.815287" lon="-0.524561">
        <ele>522.021</ele>
        <time>2020-10-06T20:53:28Z</time>
      </trkpt>
      <trkpt lat="38.815175" lon="-0.524465">
        <ele>521.841</ele>
        <time>2020-10-06T20:53:30Z</time>
      </trkpt>
      <trkpt lat="38.815060" lon="-0.524403">
        <ele>521.605</ele>
        <time>2020-10-06T20:53:32Z</time>
      </trkpt>
      <trkpt lat="38.814999" lon="-0.524384">
        <ele>521.408</ele>
        <time>2020-10-06T20:53:33Z</time>
      </trkpt>
      <trkpt lat="38.814883" lon="-0.524365">
        <ele>520.877</ele>
        <time>2020-10-06T20:53:35Z</time>
      </trkpt>
      <trkpt lat="38.814772" lon="-0.524338">
        <ele>520.450</ele>
        <time>2020-10-06T20:53:37Z</time>
      </trkpt>
      <trkpt lat="38.814618" lon="-0.524285">
        <ele>519.252</ele>
        <time>2020-10-06T20:53:40Z</time>
      </trkpt>
      <trkpt lat="38.814517" lon="-0.524245">
        <ele>518.810</ele>
        <time>2020-10-06T20:53:42Z</time>
      </trkpt>
      <trkpt lat="38.814453" lon="-0.524183">
        <ele>518.217</ele>
        <time>2020-10-06T20:53:44Z</time>
      </trkpt>
      <trkpt lat="38.814440" lon="-0.524072">
        <ele>517.623</ele>
        <time>2020-10-06T20:53:46Z</time>
      </trkpt>
      <trkpt lat="38.814456" lon="-0.524019">
        <ele>517.481</ele>
        <time>2020-10-06T20:53:47Z</time>
      </trkpt>
      <trkpt lat="38.814481" lon="-0.523972">
        <ele>517.463</ele>
        <time>2020-10-06T20:53:48Z</time>
      </trkpt>
      <trkpt lat="38.814546" lon="-0.523895">
        <ele>517.439</ele>
        <time>2020-10-06T20:53:50Z</time>
      </trkpt>
      <trkpt lat="38.814589" lon="-0.523868">
        <ele>517.601</ele>
        <time>2020-10-06T20:53:51Z</time>
      </trkpt>
      <trkpt lat="38.814854" lon="-0.523755">
        <ele>517.421</ele>
        <time>2020-10-06T20:53:56Z</time>
      </trkpt>
      <trkpt lat="38.814913" lon="-0.523728">
        <ele>517.208</ele>
        <time>2020-10-06T20:53:57Z</time>
      </trkpt>
      <trkpt lat="38.815265" lon="-0.523614">
        <ele>516.218</ele>
        <time>2020-10-06T20:54:02Z</time>
      </trkpt>
      <trkpt lat="38.815497" lon="-0.523545">
        <ele>515.221</ele>
        <time>2020-10-06T20:54:05Z</time>
      </trkpt>
      <trkpt lat="38.815560" lon="-0.523504">
        <ele>514.843</ele>
        <time>2020-10-06T20:54:06Z</time>
      </trkpt>
      <trkpt lat="38.815615" lon="-0.523449">
        <ele>514.491</ele>
        <time>2020-10-06T20:54:07Z</time>
      </trkpt>
      <trkpt lat="38.815686" lon="-0.523305">
        <ele>514.058</ele>
        <time>2020-10-06T20:54:09Z</time>
      </trkpt>
      <trkpt lat="38.815705" lon="-0.523229">
        <ele>514.084</ele>
        <time>2020-10-06T20:54:10Z</time>
      </trkpt>
      <trkpt lat="38.815782" lon="-0.522747">
        <ele>513.822</ele>
        <time>2020-10-06T20:54:16Z</time>
      </trkpt>
      <trkpt lat="38.815814" lon="-0.522508">
        <ele>514.094</ele>
        <time>2020-10-06T20:54:19Z</time>
      </trkpt>
      <trkpt lat="38.815790" lon="-0.522340">
        <ele>514.484</ele>
        <time>2020-10-06T20:54:21Z</time>
      </trkpt>
      <trkpt lat="38.815757" lon="-0.522041">
        <ele>515.007</ele>
        <time>2020-10-06T20:54:25Z</time>
      </trkpt>
      <trkpt lat="38.815732" lon="-0.521911">
        <ele>515.217</ele>
        <time>2020-10-06T20:54:27Z</time>
      </trkpt>
      <trkpt lat="38.815645" lon="-0.521485">
        <ele>515.808</ele>
        <time>2020-10-06T20:54:34Z</time>
      </trkpt>
      <trkpt lat="38.815581" lon="-0.521245">
        <ele>516.613</ele>
        <time>2020-10-06T20:54:38Z</time>
      </trkpt>
      <trkpt lat="38.815544" lon="-0.521138">
        <ele>516.846</ele>
        <time>2020-10-06T20:54:40Z</time>
      </trkpt>
      <trkpt lat="38.815524" lon="-0.521097">
        <ele>516.858</ele>
        <time>2020-10-06T20:54:41Z</time>
      </trkpt>
      <trkpt lat="38.815447" lon="-0.520938">
        <ele>517.226</ele>
        <time>2020-10-06T20:54:44Z</time>
      </trkpt>
      <trkpt lat="38.815331" lon="-0.520773">
        <ele>517.663</ele>
        <time>2020-10-06T20:54:48Z</time>
      </trkpt>
      <trkpt lat="38.815274" lon="-0.520690">
        <ele>517.619</ele>
        <time>2020-10-06T20:54:50Z</time>
      </trkpt>
      <trkpt lat="38.815074" lon="-0.520424">
        <ele>516.817</ele>
        <time>2020-10-06T20:54:55Z</time>
      </trkpt>
      <trkpt lat="38.815038" lon="-0.520367">
        <ele>516.619</ele>
        <time>2020-10-06T20:54:56Z</time>
      </trkpt>
      <trkpt lat="38.814988" lon="-0.520199">
        <ele>516.051</ele>
        <time>2020-10-06T20:54:58Z</time>
      </trkpt>
      <trkpt lat="38.814995" lon="-0.520115">
        <ele>515.601</ele>
        <time>2020-10-06T20:54:59Z</time>
      </trkpt>
      <trkpt lat="38.815043" lon="-0.519894">
        <ele>515.411</ele>
        <time>2020-10-06T20:55:02Z</time>
      </trkpt>
      <trkpt lat="38.815135" lon="-0.519530">
        <ele>516.208</ele>
        <time>2020-10-06T20:55:07Z</time>
      </trkpt>
      <trkpt lat="38.815145" lon="-0.519454">
        <ele>516.450</ele>
        <time>2020-10-06T20:55:08Z</time>
      </trkpt>
      <trkpt lat="38.815163" lon="-0.519301">
        <ele>516.433</ele>
        <time>2020-10-06T20:55:10Z</time>
      </trkpt>
      <trkpt lat="38.815165" lon="-0.519092">
        <ele>516.855</ele>
        <time>2020-10-06T20:55:13Z</time>
      </trkpt>
      <trkpt lat="38.815161" lon="-0.519025">
        <ele>517.073</ele>
        <time>2020-10-06T20:55:14Z</time>
      </trkpt>
      <trkpt lat="38.815133" lon="-0.518675">
        <ele>517.840</ele>
        <time>2020-10-06T20:55:19Z</time>
      </trkpt>
      <trkpt lat="38.815120" lon="-0.518608">
        <ele>518.016</ele>
        <time>2020-10-06T20:55:20Z</time>
      </trkpt>
      <trkpt lat="38.815105" lon="-0.518543">
        <ele>518.284</ele>
        <time>2020-10-06T20:55:21Z</time>
      </trkpt>
      <trkpt lat="38.815023" lon="-0.518261">
        <ele>518.226</ele>
        <time>2020-10-06T20:55:26Z</time>
      </trkpt>
      <trkpt lat="38.815009" lon="-0.518196">
        <ele>518.291</ele>
        <time>2020-10-06T20:55:27Z</time>
      </trkpt>
      <trkpt lat="38.814953" lon="-0.517941">
        <ele>518.881</ele>
        <time>2020-10-06T20:55:32Z</time>
      </trkpt>
      <trkpt lat="38.814945" lon="-0.517909">
        <ele>519.019</ele>
        <time>2020-10-06T20:55:33Z</time>
      </trkpt>
      <trkpt lat="38.814925" lon="-0.517762">
        <ele>520.008</ele>
        <time>2020-10-06T20:55:37Z</time>
      </trkpt>
      <trkpt lat="38.814902" lon="-0.517597">
        <ele>521.294</ele>
        <time>2020-10-06T20:55:41Z</time>
      </trkpt>
      <trkpt lat="38.814804" lon="-0.517233">
        <ele>521.287</ele>
        <time>2020-10-06T20:55:48Z</time>
      </trkpt>
      <trkpt lat="38.814636" lon="-0.516801">
        <ele>520.659</ele>
        <time>2020-10-06T20:55:55Z</time>
      </trkpt>
      <trkpt lat="38.814558" lon="-0.516592">
        <ele>520.047</ele>
        <time>2020-10-06T20:55:58Z</time>
      </trkpt>
      <trkpt lat="38.814521" lon="-0.516431">
        <ele>519.494</ele>
        <time>2020-10-06T20:56:00Z</time>
      </trkpt>
      <trkpt lat="38.814460" lon="-0.516158">
        <ele>518.850</ele>
        <time>2020-10-06T20:56:03Z</time>
      </trkpt>
      <trkpt lat="38.814390" lon="-0.516003">
        <ele>518.418</ele>
        <time>2020-10-06T20:56:05Z</time>
      </trkpt>
      <trkpt lat="38.814270" lon="-0.515874">
        <ele>518.080</ele>
        <time>2020-10-06T20:56:07Z</time>
      </trkpt>
      <trkpt lat="38.814190" lon="-0.515832">
        <ele>517.874</ele>
        <time>2020-10-06T20:56:08Z</time>
      </trkpt>
      <trkpt lat="38.814051" lon="-0.515762">
        <ele>516.856</ele>
        <time>2020-10-06T20:56:10Z</time>
      </trkpt>
      <trkpt lat="38.813996" lon="-0.515723">
        <ele>516.221</ele>
        <time>2020-10-06T20:56:11Z</time>
      </trkpt>
      <trkpt lat="38.813955" lon="-0.515672">
        <ele>515.608</ele>
        <time>2020-10-06T20:56:12Z</time>
      </trkpt>
      <trkpt lat="38.813937" lon="-0.515604">
        <ele>514.862</ele>
        <time>2020-10-06T20:56:13Z</time>
      </trkpt>
      <trkpt lat="38.813940" lon="-0.515507">
        <ele>514.015</ele>
        <time>2020-10-06T20:56:14Z</time>
      </trkpt>
      <trkpt lat="38.813963" lon="-0.515424">
        <ele>513.477</ele>
        <time>2020-10-06T20:56:15Z</time>
      </trkpt>
      <trkpt lat="38.813999" lon="-0.515338">
        <ele>512.895</ele>
        <time>2020-10-06T20:56:16Z</time>
      </trkpt>
      <trkpt lat="38.814033" lon="-0.515242">
        <ele>512.272</ele>
        <time>2020-10-06T20:56:17Z</time>
      </trkpt>
      <trkpt lat="38.814060" lon="-0.515138">
        <ele>511.428</ele>
        <time>2020-10-06T20:56:18Z</time>
      </trkpt>
      <trkpt lat="38.814073" lon="-0.515035">
        <ele>510.826</ele>
        <time>2020-10-06T20:56:19Z</time>
      </trkpt>
      <trkpt lat="38.814072" lon="-0.514938">
        <ele>510.458</ele>
        <time>2020-10-06T20:56:20Z</time>
      </trkpt>
      <trkpt lat="38.814053" lon="-0.514849">
        <ele>510.052</ele>
        <time>2020-10-06T20:56:21Z</time>
      </trkpt>
      <trkpt lat="38.813972" lon="-0.514716">
        <ele>509.053</ele>
        <time>2020-10-06T20:56:23Z</time>
      </trkpt>
      <trkpt lat="38.813916" lon="-0.514673">
        <ele>508.408</ele>
        <time>2020-10-06T20:56:24Z</time>
      </trkpt>
      <trkpt lat="38.813874" lon="-0.514634">
        <ele>507.608</ele>
        <time>2020-10-06T20:56:25Z</time>
      </trkpt>
      <trkpt lat="38.813839" lon="-0.514541">
        <ele>506.490</ele>
        <time>2020-10-06T20:56:27Z</time>
      </trkpt>
      <trkpt lat="38.813889" lon="-0.514453">
        <ele>505.033</ele>
        <time>2020-10-06T20:56:29Z</time>
      </trkpt>
      <trkpt lat="38.813937" lon="-0.514418">
        <ele>504.485</ele>
        <time>2020-10-06T20:56:30Z</time>
      </trkpt>
      <trkpt lat="38.813988" lon="-0.514379">
        <ele>503.823</ele>
        <time>2020-10-06T20:56:31Z</time>
      </trkpt>
      <trkpt lat="38.814040" lon="-0.514332">
        <ele>503.490</ele>
        <time>2020-10-06T20:56:32Z</time>
      </trkpt>
      <trkpt lat="38.814133" lon="-0.514206">
        <ele>503.276</ele>
        <time>2020-10-06T20:56:34Z</time>
      </trkpt>
      <trkpt lat="38.814200" lon="-0.514050">
        <ele>503.074</ele>
        <time>2020-10-06T20:56:36Z</time>
      </trkpt>
      <trkpt lat="38.814252" lon="-0.513871">
        <ele>503.036</ele>
        <time>2020-10-06T20:56:38Z</time>
      </trkpt>
      <trkpt lat="38.814291" lon="-0.513682">
        <ele>502.861</ele>
        <time>2020-10-06T20:56:40Z</time>
      </trkpt>
      <trkpt lat="38.814330" lon="-0.513388">
        <ele>502.021</ele>
        <time>2020-10-06T20:56:43Z</time>
      </trkpt>
      <trkpt lat="38.814383" lon="-0.513175">
        <ele>501.413</ele>
        <time>2020-10-06T20:56:45Z</time>
      </trkpt>
      <trkpt lat="38.814485" lon="-0.512859">
        <ele>500.808</ele>
        <time>2020-10-06T20:56:48Z</time>
      </trkpt>
      <trkpt lat="38.814540" lon="-0.512648">
        <ele>500.421</ele>
        <time>2020-10-06T20:56:50Z</time>
      </trkpt>
      <trkpt lat="38.814559" lon="-0.512429">
        <ele>499.894</ele>
        <time>2020-10-06T20:56:52Z</time>
      </trkpt>
      <trkpt lat="38.814497" lon="-0.511984">
        <ele>499.246</ele>
        <time>2020-10-06T20:56:56Z</time>
      </trkpt>
      <trkpt lat="38.814417" lon="-0.511639">
        <ele>498.014</ele>
        <time>2020-10-06T20:56:59Z</time>
      </trkpt>
      <trkpt lat="38.814384" lon="-0.511434">
        <ele>496.431</ele>
        <time>2020-10-06T20:57:01Z</time>
      </trkpt>
      <trkpt lat="38.814372" lon="-0.511290">
        <ele>496.047</ele>
        <time>2020-10-06T20:57:02Z</time>
      </trkpt>
      <trkpt lat="38.814401" lon="-0.510948">
        <ele>495.025</ele>
        <time>2020-10-06T20:57:05Z</time>
      </trkpt>
      <trkpt lat="38.814425" lon="-0.510831">
        <ele>494.467</ele>
        <time>2020-10-06T20:57:06Z</time>
      </trkpt>
      <trkpt lat="38.814449" lon="-0.510712">
        <ele>493.847</ele>
        <time>2020-10-06T20:57:07Z</time>
      </trkpt>
      <trkpt lat="38.814487" lon="-0.510439">
        <ele>492.629</ele>
        <time>2020-10-06T20:57:09Z</time>
      </trkpt>
      <trkpt lat="38.814491" lon="-0.510216">
        <ele>491.421</ele>
        <time>2020-10-06T20:57:11Z</time>
      </trkpt>
      <trkpt lat="38.814475" lon="-0.509939">
        <ele>490.208</ele>
        <time>2020-10-06T20:57:13Z</time>
      </trkpt>
      <trkpt lat="38.814450" lon="-0.509584">
        <ele>488.859</ele>
        <time>2020-10-06T20:57:16Z</time>
      </trkpt>
      <trkpt lat="38.814431" lon="-0.509312">
        <ele>487.842</ele>
        <time>2020-10-06T20:57:18Z</time>
      </trkpt>
      <trkpt lat="38.814415" lon="-0.509188">
        <ele>487.244</ele>
        <time>2020-10-06T20:57:19Z</time>
      </trkpt>
      <trkpt lat="38.814364" lon="-0.508969">
        <ele>486.432</ele>
        <time>2020-10-06T20:57:21Z</time>
      </trkpt>
      <trkpt lat="38.814331" lon="-0.508851">
        <ele>486.079</ele>
        <time>2020-10-06T20:57:22Z</time>
      </trkpt>
      <trkpt lat="38.814237" lon="-0.508492">
        <ele>485.085</ele>
        <time>2020-10-06T20:57:25Z</time>
      </trkpt>
      <trkpt lat="38.814171" lon="-0.508106">
        <ele>483.833</ele>
        <time>2020-10-06T20:57:28Z</time>
      </trkpt>
      <trkpt lat="38.814154" lon="-0.507988">
        <ele>483.435</ele>
        <time>2020-10-06T20:57:29Z</time>
      </trkpt>
      <trkpt lat="38.814108" lon="-0.507651">
        <ele>482.498</ele>
        <time>2020-10-06T20:57:32Z</time>
      </trkpt>
      <trkpt lat="38.814045" lon="-0.507451">
        <ele>482.015</ele>
        <time>2020-10-06T20:57:34Z</time>
      </trkpt>
      <trkpt lat="38.813978" lon="-0.507273">
        <ele>481.826</ele>
        <time>2020-10-06T20:57:36Z</time>
      </trkpt>
      <trkpt lat="38.813936" lon="-0.507047">
        <ele>481.408</ele>
        <time>2020-10-06T20:57:38Z</time>
      </trkpt>
      <trkpt lat="38.813922" lon="-0.506944">
        <ele>481.424</ele>
        <time>2020-10-06T20:57:39Z</time>
      </trkpt>
      <trkpt lat="38.813859" lon="-0.506558">
        <ele>480.227</ele>
        <time>2020-10-06T20:57:43Z</time>
      </trkpt>
      <trkpt lat="38.813824" lon="-0.506374">
        <ele>479.839</ele>
        <time>2020-10-06T20:57:45Z</time>
      </trkpt>
      <trkpt lat="38.813786" lon="-0.506099">
        <ele>479.697</ele>
        <time>2020-10-06T20:57:48Z</time>
      </trkpt>
      <trkpt lat="38.813739" lon="-0.505912">
        <ele>479.254</ele>
        <time>2020-10-06T20:57:50Z</time>
      </trkpt>
      <trkpt lat="38.813717" lon="-0.505822">
        <ele>478.820</ele>
        <time>2020-10-06T20:57:51Z</time>
      </trkpt>
      <trkpt lat="38.813719" lon="-0.505622">
        <ele>478.298</ele>
        <time>2020-10-06T20:57:53Z</time>
      </trkpt>
      <trkpt lat="38.813792" lon="-0.505333">
        <ele>477.670</ele>
        <time>2020-10-06T20:57:56Z</time>
      </trkpt>
      <trkpt lat="38.813807" lon="-0.505225">
        <ele>477.297</ele>
        <time>2020-10-06T20:57:57Z</time>
      </trkpt>
      <trkpt lat="38.813817" lon="-0.505112">
        <ele>476.223</ele>
        <time>2020-10-06T20:57:58Z</time>
      </trkpt>
      <trkpt lat="38.813830" lon="-0.504881">
        <ele>474.825</ele>
        <time>2020-10-06T20:58:00Z</time>
      </trkpt>
      <trkpt lat="38.813836" lon="-0.504710">
        <ele>473.608</ele>
        <time>2020-10-06T20:58:02Z</time>
      </trkpt>
      <trkpt lat="38.813835" lon="-0.504661">
        <ele>473.094</ele>
        <time>2020-10-06T20:58:03Z</time>
      </trkpt>
      <trkpt lat="38.813836" lon="-0.504623">
        <ele>472.697</ele>
        <time>2020-10-06T20:58:04Z</time>
      </trkpt>
      <trkpt lat="38.813843" lon="-0.504598">
        <ele>472.239</ele>
        <time>2020-10-06T20:58:05Z</time>
      </trkpt>
      <trkpt lat="38.813930" lon="-0.504518">
        <ele>471.267</ele>
        <time>2020-10-06T20:58:09Z</time>
      </trkpt>
      <trkpt lat="38.813968" lon="-0.504439">
        <ele>470.014</ele>
        <time>2020-10-06T20:58:11Z</time>
      </trkpt>
      <trkpt lat="38.813986" lon="-0.504350">
        <ele>469.040</ele>
        <time>2020-10-06T20:58:13Z</time>
      </trkpt>
      <trkpt lat="38.814005" lon="-0.504237">
        <ele>467.838</ele>
        <time>2020-10-06T20:58:16Z</time>
      </trkpt>
      <trkpt lat="38.814024" lon="-0.504221">
        <ele>467.470</ele>
        <time>2020-10-06T20:58:17Z</time>
      </trkpt>
      <trkpt lat="38.814055" lon="-0.504209">
        <ele>466.696</ele>
        <time>2020-10-06T20:58:19Z</time>
      </trkpt>
      <trkpt lat="38.814079" lon="-0.504217">
        <ele>466.431</ele>
        <time>2020-10-06T20:58:21Z</time>
      </trkpt>
      <trkpt lat="38.814129" lon="-0.504262">
        <ele>466.224</ele>
        <time>2020-10-06T20:58:24Z</time>
      </trkpt>
      <trkpt lat="38.814158" lon="-0.504323">
        <ele>466.008</ele>
        <time>2020-10-06T20:58:26Z</time>
      </trkpt>
      <trkpt lat="38.814155" lon="-0.504458">
        <ele>466.064</ele>
        <time>2020-10-06T20:58:30Z</time>
      </trkpt>
      <trkpt lat="38.814144" lon="-0.504474">
        <ele>465.837</ele>
        <time>2020-10-06T20:58:31Z</time>
      </trkpt>
      <trkpt lat="38.814136" lon="-0.504504">
        <ele>466.029</ele>
        <time>2020-10-06T20:58:33Z</time>
      </trkpt>
      <trkpt lat="38.814153" lon="-0.504527">
        <ele>466.247</ele>
        <time>2020-10-06T20:58:35Z</time>
      </trkpt>
      <trkpt lat="38.814165" lon="-0.504525">
        <ele>466.044</ele>
        <time>2020-10-06T20:58:41Z</time>
      </trkpt>
      <trkpt lat="38.814171" lon="-0.504559">
        <ele>465.680</ele>
        <time>2020-10-06T20:58:46Z</time>
      </trkpt>
      <trkpt lat="38.814172" lon="-0.504582">
        <ele>465.658</ele>
        <time>2020-10-06T20:58:47Z</time>
      </trkpt>
      <trkpt lat="38.814196" lon="-0.504748">
        <ele>466.070</ele>
        <time>2020-10-06T20:58:52Z</time>
      </trkpt>
      <trkpt lat="38.814277" lon="-0.505036">
        <ele>465.831</ele>
        <time>2020-10-06T20:58:58Z</time>
      </trkpt>
      <trkpt lat="38.814444" lon="-0.505359">
        <ele>465.061</ele>
        <time>2020-10-06T20:59:03Z</time>
      </trkpt>
      <trkpt lat="38.814534" lon="-0.505496">
        <ele>464.407</ele>
        <time>2020-10-06T20:59:05Z</time>
      </trkpt>
      <trkpt lat="38.814584" lon="-0.505570">
        <ele>464.008</ele>
        <time>2020-10-06T20:59:06Z</time>
      </trkpt>
      <trkpt lat="38.814704" lon="-0.505706">
        <ele>463.078</ele>
        <time>2020-10-06T20:59:08Z</time>
      </trkpt>
      <trkpt lat="38.814834" lon="-0.505846">
        <ele>462.061</ele>
        <time>2020-10-06T20:59:10Z</time>
      </trkpt>
      <trkpt lat="38.815031" lon="-0.506044">
        <ele>461.013</ele>
        <time>2020-10-06T20:59:13Z</time>
      </trkpt>
      <trkpt lat="38.815226" lon="-0.506240">
        <ele>459.821</ele>
        <time>2020-10-06T20:59:16Z</time>
      </trkpt>
      <trkpt lat="38.815405" lon="-0.506433">
        <ele>458.468</ele>
        <time>2020-10-06T20:59:19Z</time>
      </trkpt>
      <trkpt lat="38.815523" lon="-0.506555">
        <ele>457.684</ele>
        <time>2020-10-06T20:59:21Z</time>
      </trkpt>
      <trkpt lat="38.815581" lon="-0.506612">
        <ele>457.272</ele>
        <time>2020-10-06T20:59:22Z</time>
      </trkpt>
      <trkpt lat="38.815865" lon="-0.506841">
        <ele>456.424</ele>
        <time>2020-10-06T20:59:27Z</time>
      </trkpt>
      <trkpt lat="38.815926" lon="-0.506879">
        <ele>456.022</ele>
        <time>2020-10-06T20:59:28Z</time>
      </trkpt>
      <trkpt lat="38.816159" lon="-0.507005">
        <ele>455.062</ele>
        <time>2020-10-06T20:59:32Z</time>
      </trkpt>
      <trkpt lat="38.816219" lon="-0.507027">
        <ele>454.808</ele>
        <time>2020-10-06T20:59:33Z</time>
      </trkpt>
      <trkpt lat="38.816461" lon="-0.507088">
        <ele>454.208</ele>
        <time>2020-10-06T20:59:37Z</time>
      </trkpt>
      <trkpt lat="38.816523" lon="-0.507092">
        <ele>454.077</ele>
        <time>2020-10-06T20:59:38Z</time>
      </trkpt>
      <trkpt lat="38.816585" lon="-0.507097">
        <ele>453.870</ele>
        <time>2020-10-06T20:59:39Z</time>
      </trkpt>
      <trkpt lat="38.816778" lon="-0.507121">
        <ele>452.862</ele>
        <time>2020-10-06T20:59:42Z</time>
      </trkpt>
      <trkpt lat="38.816843" lon="-0.507120">
        <ele>452.680</ele>
        <time>2020-10-06T20:59:43Z</time>
      </trkpt>
      <trkpt lat="38.817040" lon="-0.507112">
        <ele>452.097</ele>
        <time>2020-10-06T20:59:46Z</time>
      </trkpt>
      <trkpt lat="38.817100" lon="-0.507106">
        <ele>451.843</ele>
        <time>2020-10-06T20:59:47Z</time>
      </trkpt>
      <trkpt lat="38.817466" lon="-0.507019">
        <ele>451.411</ele>
        <time>2020-10-06T20:59:53Z</time>
      </trkpt>
      <trkpt lat="38.817662" lon="-0.506988">
        <ele>450.623</ele>
        <time>2020-10-06T20:59:56Z</time>
      </trkpt>
      <trkpt lat="38.817927" lon="-0.506941">
        <ele>449.425</ele>
        <time>2020-10-06T21:00:00Z</time>
      </trkpt>
      <trkpt lat="38.817989" lon="-0.506942">
        <ele>449.026</ele>
        <time>2020-10-06T21:00:01Z</time>
      </trkpt>
      <trkpt lat="38.818264" lon="-0.507023">
        <ele>448.208</ele>
        <time>2020-10-06T21:00:05Z</time>
      </trkpt>
      <trkpt lat="38.818664" lon="-0.507216">
        <ele>447.408</ele>
        <time>2020-10-06T21:00:10Z</time>
      </trkpt>
      <trkpt lat="38.818724" lon="-0.507254">
        <ele>447.047</ele>
        <time>2020-10-06T21:00:11Z</time>
      </trkpt>
      <trkpt lat="38.818881" lon="-0.507372">
        <ele>446.080</ele>
        <time>2020-10-06T21:00:13Z</time>
      </trkpt>
      <trkpt lat="38.818998" lon="-0.507475">
        <ele>444.872</ele>
        <time>2020-10-06T21:00:15Z</time>
      </trkpt>
      <trkpt lat="38.819059" lon="-0.507540">
        <ele>444.640</ele>
        <time>2020-10-06T21:00:16Z</time>
      </trkpt>
      <trkpt lat="38.819188" lon="-0.507702">
        <ele>443.847</ele>
        <time>2020-10-06T21:00:18Z</time>
      </trkpt>
      <trkpt lat="38.819283" lon="-0.507846">
        <ele>442.813</ele>
        <time>2020-10-06T21:00:20Z</time>
      </trkpt>
      <trkpt lat="38.819329" lon="-0.507933">
        <ele>442.461</ele>
        <time>2020-10-06T21:00:21Z</time>
      </trkpt>
      <trkpt lat="38.819419" lon="-0.508129">
        <ele>441.823</ele>
        <time>2020-10-06T21:00:23Z</time>
      </trkpt>
      <trkpt lat="38.819516" lon="-0.508398">
        <ele>440.848</ele>
        <time>2020-10-06T21:00:26Z</time>
      </trkpt>
      <trkpt lat="38.819545" lon="-0.508483">
        <ele>440.461</ele>
        <time>2020-10-06T21:00:27Z</time>
      </trkpt>
      <trkpt lat="38.819640" lon="-0.508734">
        <ele>439.417</ele>
        <time>2020-10-06T21:00:30Z</time>
      </trkpt>
      <trkpt lat="38.819764" lon="-0.509069">
        <ele>438.408</ele>
        <time>2020-10-06T21:00:34Z</time>
      </trkpt>
      <trkpt lat="38.819797" lon="-0.509148">
        <ele>438.289</ele>
        <time>2020-10-06T21:00:35Z</time>
      </trkpt>
      <trkpt lat="38.819943" lon="-0.509444">
        <ele>437.292</ele>
        <time>2020-10-06T21:00:39Z</time>
      </trkpt>
      <trkpt lat="38.819989" lon="-0.509518">
        <ele>436.814</ele>
        <time>2020-10-06T21:00:40Z</time>
      </trkpt>
      <trkpt lat="38.820105" lon="-0.509668">
        <ele>436.282</ele>
        <time>2020-10-06T21:00:42Z</time>
      </trkpt>
      <trkpt lat="38.820234" lon="-0.509762">
        <ele>435.069</ele>
        <time>2020-10-06T21:00:44Z</time>
      </trkpt>
      <trkpt lat="38.820313" lon="-0.509801">
        <ele>434.425</ele>
        <time>2020-10-06T21:00:45Z</time>
      </trkpt>
      <trkpt lat="38.820409" lon="-0.509836">
        <ele>434.063</ele>
        <time>2020-10-06T21:00:46Z</time>
      </trkpt>
      <trkpt lat="38.820490" lon="-0.509855">
        <ele>433.615</ele>
        <time>2020-10-06T21:00:47Z</time>
      </trkpt>
      <trkpt lat="38.820573" lon="-0.509863">
        <ele>433.015</ele>
        <time>2020-10-06T21:00:48Z</time>
      </trkpt>
      <trkpt lat="38.820641" lon="-0.509866">
        <ele>432.465</ele>
        <time>2020-10-06T21:00:49Z</time>
      </trkpt>
      <trkpt lat="38.820819" lon="-0.509871">
        <ele>431.411</ele>
        <time>2020-10-06T21:00:51Z</time>
      </trkpt>
      <trkpt lat="38.821038" lon="-0.509879">
        <ele>430.408</ele>
        <time>2020-10-06T21:00:54Z</time>
      </trkpt>
      <trkpt lat="38.821164" lon="-0.509878">
        <ele>430.066</ele>
        <time>2020-10-06T21:00:56Z</time>
      </trkpt>
      <trkpt lat="38.821393" lon="-0.509836">
        <ele>429.069</ele>
        <time>2020-10-06T21:01:00Z</time>
      </trkpt>
      <trkpt lat="38.821574" lon="-0.509781">
        <ele>428.221</ele>
        <time>2020-10-06T21:01:03Z</time>
      </trkpt>
      <trkpt lat="38.821718" lon="-0.509733">
        <ele>427.879</ele>
        <time>2020-10-06T21:01:05Z</time>
      </trkpt>
      <trkpt lat="38.821950" lon="-0.509607">
        <ele>427.286</ele>
        <time>2020-10-06T21:01:09Z</time>
      </trkpt>
      <trkpt lat="38.822139" lon="-0.509482">
        <ele>426.862</ele>
        <time>2020-10-06T21:01:12Z</time>
      </trkpt>
      <trkpt lat="38.822297" lon="-0.509315">
        <ele>426.210</ele>
        <time>2020-10-06T21:01:15Z</time>
      </trkpt>
      <trkpt lat="38.822423" lon="-0.509275">
        <ele>425.672</ele>
        <time>2020-10-06T21:01:17Z</time>
      </trkpt>
      <trkpt lat="38.822538" lon="-0.509257">
        <ele>424.038</ele>
        <time>2020-10-06T21:01:19Z</time>
      </trkpt>
      <trkpt lat="38.822665" lon="-0.509245">
        <ele>423.070</ele>
        <time>2020-10-06T21:01:21Z</time>
      </trkpt>
      <trkpt lat="38.822840" lon="-0.509244">
        <ele>421.817</ele>
        <time>2020-10-06T21:01:24Z</time>
      </trkpt>
      <trkpt lat="38.822962" lon="-0.509262">
        <ele>421.008</ele>
        <time>2020-10-06T21:01:26Z</time>
      </trkpt>
      <trkpt lat="38.823023" lon="-0.509273">
        <ele>420.688</ele>
        <time>2020-10-06T21:01:27Z</time>
      </trkpt>
      <trkpt lat="38.823230" lon="-0.509327">
        <ele>419.261</ele>
        <time>2020-10-06T21:01:30Z</time>
      </trkpt>
      <trkpt lat="38.823371" lon="-0.509372">
        <ele>418.443</ele>
        <time>2020-10-06T21:01:32Z</time>
      </trkpt>
      <trkpt lat="38.823440" lon="-0.509386">
        <ele>417.831</ele>
        <time>2020-10-06T21:01:33Z</time>
      </trkpt>
      <trkpt lat="38.823644" lon="-0.509424">
        <ele>417.048</ele>
        <time>2020-10-06T21:01:36Z</time>
      </trkpt>
      <trkpt lat="38.823707" lon="-0.509433">
        <ele>416.874</ele>
        <time>2020-10-06T21:01:37Z</time>
      </trkpt>
      <trkpt lat="38.823753" lon="-0.509437">
        <ele>416.692</ele>
        <time>2020-10-06T21:01:38Z</time>
      </trkpt>
      <trkpt lat="38.823880" lon="-0.509442">
        <ele>415.674</ele>
        <time>2020-10-06T21:01:41Z</time>
      </trkpt>
      <trkpt lat="38.823895" lon="-0.509442">
        <ele>415.447</ele>
        <time>2020-10-06T21:01:42Z</time>
      </trkpt>
      <trkpt lat="38.823899" lon="-0.509422">
        <ele>415.029</ele>
        <time>2020-10-06T21:01:46Z</time>
      </trkpt>
      <trkpt lat="38.823899" lon="-0.509422">
        <ele>415.021</ele>
        <time>2020-10-06T21:01:54Z</time>
      </trkpt>
      <trkpt lat="38.823899" lon="-0.509422">
        <ele>415.008</ele>
        <time>2020-10-06T21:02:00Z</time>
      </trkpt>
      <trkpt lat="38.823898" lon="-0.509422">
        <ele>415.079</ele>
        <time>2020-10-06T21:02:02Z</time>
      </trkpt>
      <trkpt lat="38.824053" lon="-0.509397">
        <ele>414.644</ele>
        <time>2020-10-06T21:22:22Z</time>
      </trkpt>
      <trkpt lat="38.824035" lon="-0.509432">
        <ele>414.605</ele>
        <time>2020-10-06T21:22:23Z</time>
      </trkpt>
      <trkpt lat="38.824181" lon="-0.509426">
        <ele>413.415</ele>
        <time>2020-10-06T21:22:27Z</time>
      </trkpt>
      <trkpt lat="38.824487" lon="-0.509404">
        <ele>422.408</ele>
        <time>2020-10-06T21:22:33Z</time>
      </trkpt>
      <trkpt lat="38.824787" lon="-0.509313">
        <ele>421.479</ele>
        <time>2020-10-06T21:22:38Z</time>
      </trkpt>
      <trkpt lat="38.824838" lon="-0.509278">
        <ele>421.432</ele>
        <time>2020-10-06T21:22:39Z</time>
      </trkpt>
      <trkpt lat="38.825037" lon="-0.509147">
        <ele>421.034</ele>
        <time>2020-10-06T21:22:42Z</time>
      </trkpt>
      <trkpt lat="38.825098" lon="-0.509086">
        <ele>420.632</ele>
        <time>2020-10-06T21:22:43Z</time>
      </trkpt>
      <trkpt lat="38.825211" lon="-0.508965">
        <ele>420.019</ele>
        <time>2020-10-06T21:22:45Z</time>
      </trkpt>
      <trkpt lat="38.825407" lon="-0.508733">
        <ele>419.015</ele>
        <time>2020-10-06T21:22:48Z</time>
      </trkpt>
      <trkpt lat="38.825483" lon="-0.508650">
        <ele>418.643</ele>
        <time>2020-10-06T21:22:49Z</time>
      </trkpt>
      <trkpt lat="38.825667" lon="-0.508533">
        <ele>417.490</ele>
        <time>2020-10-06T21:22:51Z</time>
      </trkpt>
      <trkpt lat="38.825880" lon="-0.508525">
        <ele>415.641</ele>
        <time>2020-10-06T21:22:53Z</time>
      </trkpt>
      <trkpt lat="38.825982" lon="-0.508555">
        <ele>414.881</ele>
        <time>2020-10-06T21:22:54Z</time>
      </trkpt>
      <trkpt lat="38.826077" lon="-0.508612">
        <ele>413.809</ele>
        <time>2020-10-06T21:22:55Z</time>
      </trkpt>
      <trkpt lat="38.826173" lon="-0.508692">
        <ele>412.408</ele>
        <time>2020-10-06T21:22:56Z</time>
      </trkpt>
      <trkpt lat="38.826264" lon="-0.508786">
        <ele>411.029</ele>
        <time>2020-10-06T21:22:57Z</time>
      </trkpt>
      <trkpt lat="38.826351" lon="-0.508874">
        <ele>409.892</ele>
        <time>2020-10-06T21:22:58Z</time>
      </trkpt>
      <trkpt lat="38.826441" lon="-0.508951">
        <ele>409.074</ele>
        <time>2020-10-06T21:22:59Z</time>
      </trkpt>
      <trkpt lat="38.826531" lon="-0.509009">
        <ele>408.642</ele>
        <time>2020-10-06T21:23:00Z</time>
      </trkpt>
      <trkpt lat="38.826622" lon="-0.509066">
        <ele>408.089</ele>
        <time>2020-10-06T21:23:01Z</time>
      </trkpt>
      <trkpt lat="38.826712" lon="-0.509125">
        <ele>407.455</ele>
        <time>2020-10-06T21:23:02Z</time>
      </trkpt>
      <trkpt lat="38.826787" lon="-0.509191">
        <ele>406.823</ele>
        <time>2020-10-06T21:23:03Z</time>
      </trkpt>
      <trkpt lat="38.826845" lon="-0.509269">
        <ele>406.210</ele>
        <time>2020-10-06T21:23:04Z</time>
      </trkpt>
      <trkpt lat="38.826881" lon="-0.509359">
        <ele>405.654</ele>
        <time>2020-10-06T21:23:05Z</time>
      </trkpt>
      <trkpt lat="38.826911" lon="-0.509446">
        <ele>405.056</ele>
        <time>2020-10-06T21:23:06Z</time>
      </trkpt>
      <trkpt lat="38.826941" lon="-0.509525">
        <ele>404.411</ele>
        <time>2020-10-06T21:23:07Z</time>
      </trkpt>
      <trkpt lat="38.826979" lon="-0.509583">
        <ele>404.008</ele>
        <time>2020-10-06T21:23:08Z</time>
      </trkpt>
      <trkpt lat="38.827028" lon="-0.509615">
        <ele>403.620</ele>
        <time>2020-10-06T21:23:09Z</time>
      </trkpt>
      <trkpt lat="38.827100" lon="-0.509614">
        <ele>403.473</ele>
        <time>2020-10-06T21:23:11Z</time>
      </trkpt>
      <trkpt lat="38.827158" lon="-0.509593">
        <ele>403.225</ele>
        <time>2020-10-06T21:23:12Z</time>
      </trkpt>
      <trkpt lat="38.827197" lon="-0.509583">
        <ele>403.293</ele>
        <time>2020-10-06T21:23:13Z</time>
      </trkpt>
      <trkpt lat="38.827281" lon="-0.509585">
        <ele>403.030</ele>
        <time>2020-10-06T21:23:15Z</time>
      </trkpt>
      <trkpt lat="38.827336" lon="-0.509605">
        <ele>402.826</ele>
        <time>2020-10-06T21:23:16Z</time>
      </trkpt>
      <trkpt lat="38.827382" lon="-0.509632">
        <ele>402.684</ele>
        <time>2020-10-06T21:23:17Z</time>
      </trkpt>
      <trkpt lat="38.827428" lon="-0.509671">
        <ele>402.241</ele>
        <time>2020-10-06T21:23:18Z</time>
      </trkpt>
      <trkpt lat="38.827501" lon="-0.509765">
        <ele>402.237</ele>
        <time>2020-10-06T21:23:20Z</time>
      </trkpt>
      <trkpt lat="38.827533" lon="-0.509829">
        <ele>402.049</ele>
        <time>2020-10-06T21:23:21Z</time>
      </trkpt>
      <trkpt lat="38.827564" lon="-0.509894">
        <ele>402.013</ele>
        <time>2020-10-06T21:23:22Z</time>
      </trkpt>
      <trkpt lat="38.827611" lon="-0.510033">
        <ele>402.208</ele>
        <time>2020-10-06T21:23:24Z</time>
      </trkpt>
      <trkpt lat="38.827626" lon="-0.510108">
        <ele>402.298</ele>
        <time>2020-10-06T21:23:25Z</time>
      </trkpt>
      <trkpt lat="38.827634" lon="-0.510196">
        <ele>402.221</ele>
        <time>2020-10-06T21:23:26Z</time>
      </trkpt>
      <trkpt lat="38.827619" lon="-0.510395">
        <ele>402.283</ele>
        <time>2020-10-06T21:23:29Z</time>
      </trkpt>
      <trkpt lat="38.827598" lon="-0.510617">
        <ele>403.011</ele>
        <time>2020-10-06T21:23:32Z</time>
      </trkpt>
      <trkpt lat="38.827626" lon="-0.510778">
        <ele>403.098</ele>
        <time>2020-10-06T21:23:34Z</time>
      </trkpt>
      <trkpt lat="38.827701" lon="-0.510904">
        <ele>402.614</ele>
        <time>2020-10-06T21:23:36Z</time>
      </trkpt>
      <trkpt lat="38.827749" lon="-0.510958">
        <ele>402.632</ele>
        <time>2020-10-06T21:23:37Z</time>
      </trkpt>
      <trkpt lat="38.828083" lon="-0.511252">
        <ele>402.219</ele>
        <time>2020-10-06T21:23:43Z</time>
      </trkpt>
      <trkpt lat="38.828221" lon="-0.511364">
        <ele>401.845</ele>
        <time>2020-10-06T21:23:45Z</time>
      </trkpt>
      <trkpt lat="38.828371" lon="-0.511472">
        <ele>401.047</ele>
        <time>2020-10-06T21:23:47Z</time>
      </trkpt>
      <trkpt lat="38.828449" lon="-0.511519">
        <ele>400.811</ele>
        <time>2020-10-06T21:23:48Z</time>
      </trkpt>
      <trkpt lat="38.828530" lon="-0.511550">
        <ele>400.408</ele>
        <time>2020-10-06T21:23:49Z</time>
      </trkpt>
      <trkpt lat="38.828797" lon="-0.511590">
        <ele>399.269</ele>
        <time>2020-10-06T21:23:52Z</time>
      </trkpt>
      <trkpt lat="38.829074" lon="-0.511626">
        <ele>397.672</ele>
        <time>2020-10-06T21:23:55Z</time>
      </trkpt>
      <trkpt lat="38.829241" lon="-0.511664">
        <ele>396.054</ele>
        <time>2020-10-06T21:23:57Z</time>
      </trkpt>
      <trkpt lat="38.829406" lon="-0.511736">
        <ele>394.692</ele>
        <time>2020-10-06T21:23:59Z</time>
      </trkpt>
      <trkpt lat="38.829497" lon="-0.511775">
        <ele>394.039</ele>
        <time>2020-10-06T21:24:00Z</time>
      </trkpt>
      <trkpt lat="38.829581" lon="-0.511830">
        <ele>393.435</ele>
        <time>2020-10-06T21:24:01Z</time>
      </trkpt>
      <trkpt lat="38.829741" lon="-0.511954">
        <ele>392.433</ele>
        <time>2020-10-06T21:24:03Z</time>
      </trkpt>
      <trkpt lat="38.829922" lon="-0.512089">
        <ele>391.670</ele>
        <time>2020-10-06T21:24:05Z</time>
      </trkpt>
      <trkpt lat="38.830011" lon="-0.512154">
        <ele>391.067</ele>
        <time>2020-10-06T21:24:06Z</time>
      </trkpt>
      <trkpt lat="38.830170" lon="-0.512279">
        <ele>390.081</ele>
        <time>2020-10-06T21:24:08Z</time>
      </trkpt>
      <trkpt lat="38.830323" lon="-0.512363">
        <ele>389.419</ele>
        <time>2020-10-06T21:24:10Z</time>
      </trkpt>
      <trkpt lat="38.830402" lon="-0.512375">
        <ele>389.208</ele>
        <time>2020-10-06T21:24:11Z</time>
      </trkpt>
      <trkpt lat="38.830482" lon="-0.512374">
        <ele>389.011</ele>
        <time>2020-10-06T21:24:12Z</time>
      </trkpt>
      <trkpt lat="38.830565" lon="-0.512360">
        <ele>388.814</ele>
        <time>2020-10-06T21:24:13Z</time>
      </trkpt>
      <trkpt lat="38.830640" lon="-0.512338">
        <ele>388.486</ele>
        <time>2020-10-06T21:24:14Z</time>
      </trkpt>
      <trkpt lat="38.830707" lon="-0.512310">
        <ele>388.234</ele>
        <time>2020-10-06T21:24:15Z</time>
      </trkpt>
      <trkpt lat="38.830824" lon="-0.512274">
        <ele>387.611</ele>
        <time>2020-10-06T21:24:17Z</time>
      </trkpt>
      <trkpt lat="38.830925" lon="-0.512258">
        <ele>387.047</ele>
        <time>2020-10-06T21:24:19Z</time>
      </trkpt>
      <trkpt lat="38.831013" lon="-0.512303">
        <ele>386.655</ele>
        <time>2020-10-06T21:24:21Z</time>
      </trkpt>
      <trkpt lat="38.831051" lon="-0.512347">
        <ele>386.262</ele>
        <time>2020-10-06T21:24:22Z</time>
      </trkpt>
      <trkpt lat="38.831083" lon="-0.512400">
        <ele>386.022</ele>
        <time>2020-10-06T21:24:23Z</time>
      </trkpt>
      <trkpt lat="38.831157" lon="-0.512568">
        <ele>385.662</ele>
        <time>2020-10-06T21:24:26Z</time>
      </trkpt>
      <trkpt lat="38.831215" lon="-0.512672">
        <ele>385.608</ele>
        <time>2020-10-06T21:24:28Z</time>
      </trkpt>
      <trkpt lat="38.831253" lon="-0.512715">
        <ele>385.408</ele>
        <time>2020-10-06T21:24:29Z</time>
      </trkpt>
      <trkpt lat="38.831327" lon="-0.512798">
        <ele>385.227</ele>
        <time>2020-10-06T21:24:31Z</time>
      </trkpt>
      <trkpt lat="38.831447" lon="-0.512929">
        <ele>384.450</ele>
        <time>2020-10-06T21:24:34Z</time>
      </trkpt>
      <trkpt lat="38.831494" lon="-0.512970">
        <ele>384.012</ele>
        <time>2020-10-06T21:24:35Z</time>
      </trkpt>
      <trkpt lat="38.831604" lon="-0.513017">
        <ele>383.470</ele>
        <time>2020-10-06T21:24:37Z</time>
      </trkpt>
      <trkpt lat="38.831841" lon="-0.513043">
        <ele>382.267</ele>
        <time>2020-10-06T21:24:41Z</time>
      </trkpt>
      <trkpt lat="38.831964" lon="-0.513050">
        <ele>381.673</ele>
        <time>2020-10-06T21:24:43Z</time>
      </trkpt>
      <trkpt lat="38.832092" lon="-0.513050">
        <ele>381.071</ele>
        <time>2020-10-06T21:24:45Z</time>
      </trkpt>
      <trkpt lat="38.832351" lon="-0.513021">
        <ele>379.668</ele>
        <time>2020-10-06T21:24:49Z</time>
      </trkpt>
      <trkpt lat="38.832414" lon="-0.512995">
        <ele>379.484</ele>
        <time>2020-10-06T21:24:50Z</time>
      </trkpt>
      <trkpt lat="38.832544" lon="-0.512916">
        <ele>378.807</ele>
        <time>2020-10-06T21:24:52Z</time>
      </trkpt>
      <trkpt lat="38.832638" lon="-0.512817">
        <ele>378.617</ele>
        <time>2020-10-06T21:24:54Z</time>
      </trkpt>
      <trkpt lat="38.832686" lon="-0.512763">
        <ele>378.408</ele>
        <time>2020-10-06T21:24:55Z</time>
      </trkpt>
      <trkpt lat="38.832886" lon="-0.512535">
        <ele>377.833</ele>
        <time>2020-10-06T21:24:59Z</time>
      </trkpt>
      <trkpt lat="38.832936" lon="-0.512476">
        <ele>377.646</ele>
        <time>2020-10-06T21:25:00Z</time>
      </trkpt>
      <trkpt lat="38.833242" lon="-0.512131">
        <ele>377.078</ele>
        <time>2020-10-06T21:25:06Z</time>
      </trkpt>
      <trkpt lat="38.833442" lon="-0.511920">
        <ele>376.646</ele>
        <time>2020-10-06T21:25:10Z</time>
      </trkpt>
      <trkpt lat="38.833665" lon="-0.511737">
        <ele>376.033</ele>
        <time>2020-10-06T21:25:14Z</time>
      </trkpt>
      <trkpt lat="38.833841" lon="-0.511645">
        <ele>375.429</ele>
        <time>2020-10-06T21:25:17Z</time>
      </trkpt>
      <trkpt lat="38.833969" lon="-0.511607">
        <ele>375.077</ele>
        <time>2020-10-06T21:25:19Z</time>
      </trkpt>
      <trkpt lat="38.834100" lon="-0.511598">
        <ele>374.424</ele>
        <time>2020-10-06T21:25:21Z</time>
      </trkpt>
      <trkpt lat="38.834305" lon="-0.511608">
        <ele>373.418</ele>
        <time>2020-10-06T21:25:24Z</time>
      </trkpt>
      <trkpt lat="38.834374" lon="-0.511610">
        <ele>373.098</ele>
        <time>2020-10-06T21:25:25Z</time>
      </trkpt>
      <trkpt lat="38.834667" lon="-0.511561">
        <ele>372.017</ele>
        <time>2020-10-06T21:25:29Z</time>
      </trkpt>
      <trkpt lat="38.834747" lon="-0.511538">
        <ele>371.808</ele>
        <time>2020-10-06T21:25:30Z</time>
      </trkpt>
      <trkpt lat="38.834893" lon="-0.511491">
        <ele>371.076</ele>
        <time>2020-10-06T21:25:32Z</time>
      </trkpt>
      <trkpt lat="38.835105" lon="-0.511451">
        <ele>369.699</ele>
        <time>2020-10-06T21:25:35Z</time>
      </trkpt>
      <trkpt lat="38.835175" lon="-0.511460">
        <ele>369.281</ele>
        <time>2020-10-06T21:25:36Z</time>
      </trkpt>
      <trkpt lat="38.835242" lon="-0.511481">
        <ele>368.619</ele>
        <time>2020-10-06T21:25:37Z</time>
      </trkpt>
      <trkpt lat="38.835359" lon="-0.511555">
        <ele>367.456</ele>
        <time>2020-10-06T21:25:39Z</time>
      </trkpt>
      <trkpt lat="38.835451" lon="-0.511677">
        <ele>366.652</ele>
        <time>2020-10-06T21:25:41Z</time>
      </trkpt>
      <trkpt lat="38.835482" lon="-0.511747">
        <ele>366.490</ele>
        <time>2020-10-06T21:25:42Z</time>
      </trkpt>
      <trkpt lat="38.835507" lon="-0.511824">
        <ele>366.267</ele>
        <time>2020-10-06T21:25:43Z</time>
      </trkpt>
      <trkpt lat="38.835557" lon="-0.512071">
        <ele>365.219</ele>
        <time>2020-10-06T21:25:46Z</time>
      </trkpt>
      <trkpt lat="38.835568" lon="-0.512152">
        <ele>364.809</ele>
        <time>2020-10-06T21:25:47Z</time>
      </trkpt>
      <trkpt lat="38.835581" lon="-0.512386">
        <ele>364.019</ele>
        <time>2020-10-06T21:25:50Z</time>
      </trkpt>
      <trkpt lat="38.835602" lon="-0.512609">
        <ele>363.208</ele>
        <time>2020-10-06T21:25:53Z</time>
      </trkpt>
      <trkpt lat="38.835610" lon="-0.512683">
        <ele>363.076</ele>
        <time>2020-10-06T21:25:54Z</time>
      </trkpt>
      <trkpt lat="38.835635" lon="-0.512911">
        <ele>362.639</ele>
        <time>2020-10-06T21:25:57Z</time>
      </trkpt>
      <trkpt lat="38.835661" lon="-0.513154">
        <ele>362.411</ele>
        <time>2020-10-06T21:26:00Z</time>
      </trkpt>
      <trkpt lat="38.835684" lon="-0.513310">
        <ele>361.899</ele>
        <time>2020-10-06T21:26:02Z</time>
      </trkpt>
      <trkpt lat="38.835695" lon="-0.513385">
        <ele>361.676</ele>
        <time>2020-10-06T21:26:03Z</time>
      </trkpt>
      <trkpt lat="38.835702" lon="-0.513460">
        <ele>361.482</ele>
        <time>2020-10-06T21:26:04Z</time>
      </trkpt>
      <trkpt lat="38.835714" lon="-0.513685">
        <ele>360.810</ele>
        <time>2020-10-06T21:26:07Z</time>
      </trkpt>
      <trkpt lat="38.835719" lon="-0.513774">
        <ele>360.657</ele>
        <time>2020-10-06T21:26:08Z</time>
      </trkpt>
      <trkpt lat="38.835714" lon="-0.514041">
        <ele>359.451</ele>
        <time>2020-10-06T21:26:11Z</time>
      </trkpt>
      <trkpt lat="38.835718" lon="-0.514325">
        <ele>358.601</ele>
        <time>2020-10-06T21:26:14Z</time>
      </trkpt>
      <trkpt lat="38.835719" lon="-0.514421">
        <ele>358.211</ele>
        <time>2020-10-06T21:26:15Z</time>
      </trkpt>
      <trkpt lat="38.835725" lon="-0.514688">
        <ele>357.208</ele>
        <time>2020-10-06T21:26:18Z</time>
      </trkpt>
      <trkpt lat="38.835714" lon="-0.514780">
        <ele>356.870</ele>
        <time>2020-10-06T21:26:19Z</time>
      </trkpt>
      <trkpt lat="38.835704" lon="-0.514872">
        <ele>356.683</ele>
        <time>2020-10-06T21:26:20Z</time>
      </trkpt>
      <trkpt lat="38.835683" lon="-0.515050">
        <ele>355.815</ele>
        <time>2020-10-06T21:26:22Z</time>
      </trkpt>
      <trkpt lat="38.835678" lon="-0.515230">
        <ele>354.643</ele>
        <time>2020-10-06T21:26:24Z</time>
      </trkpt>
      <trkpt lat="38.835681" lon="-0.515417">
        <ele>354.060</ele>
        <time>2020-10-06T21:26:26Z</time>
      </trkpt>
      <trkpt lat="38.835691" lon="-0.515504">
        <ele>353.636</ele>
        <time>2020-10-06T21:26:27Z</time>
      </trkpt>
      <trkpt lat="38.835707" lon="-0.515733">
        <ele>352.444</ele>
        <time>2020-10-06T21:26:30Z</time>
      </trkpt>
      <trkpt lat="38.835705" lon="-0.515810">
        <ele>352.471</ele>
        <time>2020-10-06T21:26:31Z</time>
      </trkpt>
      <trkpt lat="38.835696" lon="-0.515973">
        <ele>351.493</ele>
        <time>2020-10-06T21:26:33Z</time>
      </trkpt>
      <trkpt lat="38.835699" lon="-0.516058">
        <ele>351.065</ele>
        <time>2020-10-06T21:26:34Z</time>
      </trkpt>
      <trkpt lat="38.835719" lon="-0.516210">
        <ele>350.621</ele>
        <time>2020-10-06T21:26:36Z</time>
      </trkpt>
      <trkpt lat="38.835731" lon="-0.516289">
        <ele>350.408</ele>
        <time>2020-10-06T21:26:37Z</time>
      </trkpt>
      <trkpt lat="38.835790" lon="-0.516596">
        <ele>349.264</ele>
        <time>2020-10-06T21:26:41Z</time>
      </trkpt>
      <trkpt lat="38.835865" lon="-0.516899">
        <ele>348.027</ele>
        <time>2020-10-06T21:26:45Z</time>
      </trkpt>
      <trkpt lat="38.835975" lon="-0.517196">
        <ele>346.849</ele>
        <time>2020-10-06T21:26:49Z</time>
      </trkpt>
      <trkpt lat="38.836114" lon="-0.517502">
        <ele>345.497</ele>
        <time>2020-10-06T21:26:53Z</time>
      </trkpt>
      <trkpt lat="38.836334" lon="-0.517831">
        <ele>344.234</ele>
        <time>2020-10-06T21:26:58Z</time>
      </trkpt>
      <trkpt lat="38.836430" lon="-0.517954">
        <ele>343.430</ele>
        <time>2020-10-06T21:27:00Z</time>
      </trkpt>
      <trkpt lat="38.836478" lon="-0.518013">
        <ele>343.228</ele>
        <time>2020-10-06T21:27:01Z</time>
      </trkpt>
      <trkpt lat="38.836635" lon="-0.518190">
        <ele>341.885</ele>
        <time>2020-10-06T21:27:04Z</time>
      </trkpt>
      <trkpt lat="38.836800" lon="-0.518362">
        <ele>340.854</ele>
        <time>2020-10-06T21:27:07Z</time>
      </trkpt>
      <trkpt lat="38.836856" lon="-0.518412">
        <ele>340.456</ele>
        <time>2020-10-06T21:27:08Z</time>
      </trkpt>
      <trkpt lat="38.836969" lon="-0.518497">
        <ele>339.611</ele>
        <time>2020-10-06T21:27:10Z</time>
      </trkpt>
      <trkpt lat="38.837087" lon="-0.518569">
        <ele>338.808</ele>
        <time>2020-10-06T21:27:12Z</time>
      </trkpt>
      <trkpt lat="38.837146" lon="-0.518596">
        <ele>338.440</ele>
        <time>2020-10-06T21:27:13Z</time>
      </trkpt>
      <trkpt lat="38.837316" lon="-0.518650">
        <ele>337.643</ele>
        <time>2020-10-06T21:27:16Z</time>
      </trkpt>
      <trkpt lat="38.837378" lon="-0.518651">
        <ele>337.445</ele>
        <time>2020-10-06T21:27:17Z</time>
      </trkpt>
      <trkpt lat="38.837439" lon="-0.518650">
        <ele>337.023</ele>
        <time>2020-10-06T21:27:18Z</time>
      </trkpt>
      <trkpt lat="38.837512" lon="-0.518630">
        <ele>336.810</ele>
        <time>2020-10-06T21:27:19Z</time>
      </trkpt>
      <trkpt lat="38.837649" lon="-0.518564">
        <ele>336.266</ele>
        <time>2020-10-06T21:27:21Z</time>
      </trkpt>
      <trkpt lat="38.837772" lon="-0.518476">
        <ele>335.674</ele>
        <time>2020-10-06T21:27:23Z</time>
      </trkpt>
      <trkpt lat="38.837893" lon="-0.518468">
        <ele>335.461</ele>
        <time>2020-10-06T21:27:25Z</time>
      </trkpt>
      <trkpt lat="38.838111" lon="-0.518568">
        <ele>335.225</ele>
        <time>2020-10-06T21:27:29Z</time>
      </trkpt>
      <trkpt lat="38.838153" lon="-0.518614">
        <ele>335.226</ele>
        <time>2020-10-06T21:27:30Z</time>
      </trkpt>
      <trkpt lat="38.838223" lon="-0.518709">
        <ele>334.808</ele>
        <time>2020-10-06T21:27:32Z</time>
      </trkpt>
      <trkpt lat="38.838305" lon="-0.518779">
        <ele>334.608</ele>
        <time>2020-10-06T21:27:34Z</time>
      </trkpt>
      <trkpt lat="38.838417" lon="-0.518869">
        <ele>334.427</ele>
        <time>2020-10-06T21:27:37Z</time>
      </trkpt>
      <trkpt lat="38.838500" lon="-0.518911">
        <ele>334.450</ele>
        <time>2020-10-06T21:27:39Z</time>
      </trkpt>
      <trkpt lat="38.838533" lon="-0.518950">
        <ele>334.432</ele>
        <time>2020-10-06T21:27:40Z</time>
      </trkpt>
      <trkpt lat="38.838606" lon="-0.519020">
        <ele>334.440</ele>
        <time>2020-10-06T21:27:42Z</time>
      </trkpt>
      <trkpt lat="38.838686" lon="-0.519085">
        <ele>334.297</ele>
        <time>2020-10-06T21:27:44Z</time>
      </trkpt>
      <trkpt lat="38.838770" lon="-0.519162">
        <ele>334.093</ele>
        <time>2020-10-06T21:27:46Z</time>
      </trkpt>
      <trkpt lat="38.838811" lon="-0.519187">
        <ele>334.031</ele>
        <time>2020-10-06T21:27:47Z</time>
      </trkpt>
      <trkpt lat="38.838864" lon="-0.519221">
        <ele>333.868</ele>
        <time>2020-10-06T21:27:48Z</time>
      </trkpt>
      <trkpt lat="38.839003" lon="-0.519368">
        <ele>332.844</ele>
        <time>2020-10-06T21:27:51Z</time>
      </trkpt>
      <trkpt lat="38.839086" lon="-0.519477">
        <ele>332.005</ele>
        <time>2020-10-06T21:27:53Z</time>
      </trkpt>
      <trkpt lat="38.839130" lon="-0.519533">
        <ele>331.615</ele>
        <time>2020-10-06T21:27:54Z</time>
      </trkpt>
      <trkpt lat="38.839291" lon="-0.519600">
        <ele>330.408</ele>
        <time>2020-10-06T21:27:57Z</time>
      </trkpt>
      <trkpt lat="38.839388" lon="-0.519665">
        <ele>330.059</ele>
        <time>2020-10-06T21:27:59Z</time>
      </trkpt>
      <trkpt lat="38.839444" lon="-0.519705">
        <ele>329.862</ele>
        <time>2020-10-06T21:28:00Z</time>
      </trkpt>
      <trkpt lat="38.839534" lon="-0.519785">
        <ele>329.034</ele>
        <time>2020-10-06T21:28:02Z</time>
      </trkpt>
      <trkpt lat="38.839712" lon="-0.519953">
        <ele>328.052</ele>
        <time>2020-10-06T21:28:06Z</time>
      </trkpt>
      <trkpt lat="38.839906" lon="-0.520112">
        <ele>326.849</ele>
        <time>2020-10-06T21:28:11Z</time>
      </trkpt>
      <trkpt lat="38.839941" lon="-0.520154">
        <ele>326.665</ele>
        <time>2020-10-06T21:28:12Z</time>
      </trkpt>
      <trkpt lat="38.840081" lon="-0.520266">
        <ele>326.233</ele>
        <time>2020-10-06T21:28:15Z</time>
      </trkpt>
      <trkpt lat="38.840198" lon="-0.520358">
        <ele>325.830</ele>
        <time>2020-10-06T21:28:18Z</time>
      </trkpt>
      <trkpt lat="38.840237" lon="-0.520395">
        <ele>325.631</ele>
        <time>2020-10-06T21:28:19Z</time>
      </trkpt>
      <trkpt lat="38.840275" lon="-0.520437">
        <ele>325.261</ele>
        <time>2020-10-06T21:28:20Z</time>
      </trkpt>
      <trkpt lat="38.840375" lon="-0.520516">
        <ele>324.607</ele>
        <time>2020-10-06T21:28:22Z</time>
      </trkpt>
      <trkpt lat="38.840583" lon="-0.520714">
        <ele>324.408</ele>
        <time>2020-10-06T21:28:26Z</time>
      </trkpt>
      <trkpt lat="38.840768" lon="-0.520814">
        <ele>323.658</ele>
        <time>2020-10-06T21:28:30Z</time>
      </trkpt>
      <trkpt lat="38.840856" lon="-0.520866">
        <ele>323.291</ele>
        <time>2020-10-06T21:28:32Z</time>
      </trkpt>
      <trkpt lat="38.840880" lon="-0.520878">
        <ele>322.823</ele>
        <time>2020-10-06T21:28:33Z</time>
      </trkpt>
      <trkpt lat="38.840929" lon="-0.520876">
        <ele>322.651</ele>
        <time>2020-10-06T21:28:34Z</time>
      </trkpt>
      <trkpt lat="38.841101" lon="-0.520900">
        <ele>321.298</ele>
        <time>2020-10-06T21:28:38Z</time>
      </trkpt>
      <trkpt lat="38.841195" lon="-0.520918">
        <ele>320.834</ele>
        <time>2020-10-06T21:28:40Z</time>
      </trkpt>
      <trkpt lat="38.841394" lon="-0.520925">
        <ele>320.282</ele>
        <time>2020-10-06T21:28:43Z</time>
      </trkpt>
      <trkpt lat="38.841507" lon="-0.520916">
        <ele>319.429</ele>
        <time>2020-10-06T21:28:46Z</time>
      </trkpt>
      <trkpt lat="38.841568" lon="-0.520909">
        <ele>319.216</ele>
        <time>2020-10-06T21:28:47Z</time>
      </trkpt>
      <trkpt lat="38.841621" lon="-0.520905">
        <ele>319.076</ele>
        <time>2020-10-06T21:28:48Z</time>
      </trkpt>
      <trkpt lat="38.842087" lon="-0.520881">
        <ele>318.413</ele>
        <time>2020-10-06T21:28:56Z</time>
      </trkpt>
      <trkpt lat="38.842150" lon="-0.520878">
        <ele>317.808</ele>
        <time>2020-10-06T21:28:57Z</time>
      </trkpt>
      <trkpt lat="38.842341" lon="-0.520863">
        <ele>316.616</ele>
        <time>2020-10-06T21:29:00Z</time>
      </trkpt>
      <trkpt lat="38.842541" lon="-0.520870">
        <ele>316.019</ele>
        <time>2020-10-06T21:29:03Z</time>
      </trkpt>
      <trkpt lat="38.842667" lon="-0.520883">
        <ele>315.481</ele>
        <time>2020-10-06T21:29:05Z</time>
      </trkpt>
      <trkpt lat="38.842785" lon="-0.520898">
        <ele>314.889</ele>
        <time>2020-10-06T21:29:07Z</time>
      </trkpt>
      <trkpt lat="38.842830" lon="-0.520934">
        <ele>314.646</ele>
        <time>2020-10-06T21:29:08Z</time>
      </trkpt>
      <trkpt lat="38.842863" lon="-0.520996">
        <ele>314.492</ele>
        <time>2020-10-06T21:29:09Z</time>
      </trkpt>
      <trkpt lat="38.842906" lon="-0.521132">
        <ele>314.460</ele>
        <time>2020-10-06T21:29:11Z</time>
      </trkpt>
      <trkpt lat="38.842923" lon="-0.521247">
        <ele>314.697</ele>
        <time>2020-10-06T21:29:13Z</time>
      </trkpt>
      <trkpt lat="38.842922" lon="-0.521330">
        <ele>315.462</ele>
        <time>2020-10-06T21:29:15Z</time>
      </trkpt>
      <trkpt lat="38.842916" lon="-0.521370">
        <ele>315.883</ele>
        <time>2020-10-06T21:29:16Z</time>
      </trkpt>
      <trkpt lat="38.842907" lon="-0.521456">
        <ele>316.811</ele>
        <time>2020-10-06T21:29:18Z</time>
      </trkpt>
      <trkpt lat="38.842912" lon="-0.521549">
        <ele>318.008</ele>
        <time>2020-10-06T21:29:20Z</time>
      </trkpt>
      <trkpt lat="38.842914" lon="-0.521614">
        <ele>318.881</ele>
        <time>2020-10-06T21:29:22Z</time>
      </trkpt>
      <trkpt lat="38.842915" lon="-0.521646">
        <ele>319.224</ele>
        <time>2020-10-06T21:29:23Z</time>
      </trkpt>
      <trkpt lat="38.842903" lon="-0.521776">
        <ele>320.296</ele>
        <time>2020-10-06T21:29:27Z</time>
      </trkpt>
      <trkpt lat="38.842889" lon="-0.521960">
        <ele>321.274</ele>
        <time>2020-10-06T21:29:32Z</time>
      </trkpt>
      <trkpt lat="38.842899" lon="-0.521994">
        <ele>321.481</ele>
        <time>2020-10-06T21:29:33Z</time>
      </trkpt>
      <trkpt lat="38.842902" lon="-0.522079">
        <ele>321.697</ele>
        <time>2020-10-06T21:29:36Z</time>
      </trkpt>
      <trkpt lat="38.842899" lon="-0.522093">
        <ele>321.655</ele>
        <time>2020-10-06T21:29:37Z</time>
      </trkpt>
      <trkpt lat="38.842822" lon="-0.522141">
        <ele>322.092</ele>
        <time>2020-10-06T21:29:42Z</time>
      </trkpt>
      <trkpt lat="38.842786" lon="-0.522148">
        <ele>322.218</ele>
        <time>2020-10-06T21:29:44Z</time>
      </trkpt>
      <trkpt lat="38.842730" lon="-0.522143">
        <ele>322.498</ele>
        <time>2020-10-06T21:29:46Z</time>
      </trkpt>
      <trkpt lat="38.842697" lon="-0.522124">
        <ele>322.617</ele>
        <time>2020-10-06T21:29:48Z</time>
      </trkpt>
      <trkpt lat="38.842673" lon="-0.522113">
        <ele>322.608</ele>
        <time>2020-10-06T21:29:49Z</time>
      </trkpt>
      <trkpt lat="38.842651" lon="-0.522110">
        <ele>322.696</ele>
        <time>2020-10-06T21:29:50Z</time>
      </trkpt>
      <trkpt lat="38.842637" lon="-0.522103">
        <ele>322.679</ele>
        <time>2020-10-06T21:29:51Z</time>
      </trkpt>
      <trkpt lat="38.842615" lon="-0.522105">
        <ele>322.811</ele>
        <time>2020-10-06T21:29:52Z</time>
      </trkpt>
      <trkpt lat="38.842590" lon="-0.522107">
        <ele>322.849</ele>
        <time>2020-10-06T21:29:53Z</time>
      </trkpt>
      <trkpt lat="38.842569" lon="-0.522107">
        <ele>322.886</ele>
        <time>2020-10-06T21:29:54Z</time>
      </trkpt>
      <trkpt lat="38.842526" lon="-0.522108">
        <ele>322.842</ele>
        <time>2020-10-06T21:29:56Z</time>
      </trkpt>
      <trkpt lat="38.842517" lon="-0.522106">
        <ele>323.050</ele>
        <time>2020-10-06T21:29:57Z</time>
      </trkpt>
      <trkpt lat="38.842505" lon="-0.522102">
        <ele>323.017</ele>
        <time>2020-10-06T21:30:01Z</time>
      </trkpt>
    </trkseg>
  </trk>
</gpx>
